[[{"header":{"parameterUnit":"m.s-1","parameterCategory":1,"la1":30.6,"la2":28.766,"lo1":-90.7593,"lo2":-88.6598,"dy":0.0162,"dx":0.0183,"nx":116,"ny":114,"refTime":"2023-07-27T12:00:00:Z","depth":0,"parameterNumber":2,"parameterNumberName":"U-component_of_WINDS"},"data":[0.0,0.0,0.0,0.0,0.0,0.0,0.0,0.0,0.0,0.0,0.0,0.0,0.0,0.0,0.0,0.0,0.0,0.0,0.0,0.0,0.0,0.0,0.0,0.0,0.0,0.0,0.0,0.0,0.0,0.0,0.0,0.0,0.0,0.0,0.0,0.0,0.0,0.0,0.0,0.0,0.0,0.0,0.0,0.0,0.0,0.0,0.0,0.0,0.0,0.0,0.0,0.0,0.0,0.0,0.0,0.0,0.0,0.0,0.0,0.0,0.0,0.0,0.0,0.0,0.0,0.0,0.0,0.0,0.0,0.0,0.0,0.0,0.0,0.0,0.0,0.0,0.0,0.0,0.0,0.0,0.0,0.0,0.0,0.0,0.0,0.0,0.0,0.0,0.0,0.0,0.0,0.0,0.0,0.0,0.0,0.0,0.0,0.0,0.0,0.0,0.0,0.0,0.0,0.0,0.0,0.0,0.0,0.0,0.0,0.0,0.0,0.0,0.0,0.0,0.0,0.0,0.0,0.0,0.0,0.0,0.0,0.0,0.0,0.0,0.0,0.0,0.0,0.0,0.0,0.0,0.0,0.0,0.0,0.0,0.0,0.0,0.0,0.0,0.0,0.0,0.0,0.0,0.0,0.0,0.0,0.0,0.0,0.0,0.0,0.0,0.0,0.0,0.0,0.0,0.0,0.0,0.0,0.0,0.0,0.0,0.0,0.0,0.0,0.0,0.0,0.0,0.0,0.0,0.0,0.0,0.0,0.0,0.0,0.0,0.0,0.0,0.0,0.0,0.0,0.0,0.0,0.0,0.0,0.0,0.0,0.0,0.0,0.0,0.0,0.0,0.0,0.0,0.0,0.0,0.0,0.0,0.0,0.0,0.0,0.0,0.0,0.0,0.0,0.0,0.0,0.0,0.0,0.0,0.0,0.0,0.0,0.0,0.0,0.0,0.0,0.0,0.0,0.0,0.0,0.0,0.0,0.0,0.0,0.0,0.0,0.0,0.0,0.0,0.0,0.0,0.0,0.0,0.0,0.0,0.0,0.0,0.0,0.0,0.0,0.0,0.0,0.0,0.0,0.0,0.0,0.0,0.0,0.0,0.0,0.0,0.0,0.0,0.0,0.0,0.0,0.0,0.0,0.0,0.0,0.0,0.0,0.0,0.0,0.0,0.0,0.0,0.0,0.0,0.0,0.0,0.0,0.0,0.0,0.0,0.0,0.0,0.0,0.0,0.0,0.0,0.0,0.0,0.0,0.0,0.0,0.0,0.0,0.0,0.0,0.0,0.0,0.0,0.0,0.0,0.0,0.0,0.0,0.0,0.0,0.0,0.0,0.0,0.0,0.0,0.0,0.0,0.0,0.0,0.0,0.0,0.0,0.0,0.0,0.0,0.0,0.0,0.0,0.0,0.0,0.0,0.0,0.0,0.0,0.0,0.0,0.0,0.0,0.0,0.0,0.0,0.0,0.0,0.0,0.0,0.0,0.0,0.0,0.0,0.0,0.0,0.0,0.0,0.0,0.0,0.0,0.0,0.0,0.0,0.0,0.0,0.0,0.0,0.0,0.0,0.0,0.0,0.0,0.0,0.0,0.0,0.0,0.0,0.0,0.0,0.0,0.0,0.0,0.0,0.0,0.0,0.0,0.0,0.0,0.0,0.0,0.0,0.0,0.0,0.0,0.0,0.0,0.0,0.0,0.0,0.0,0.0,0.0,0.0,0.0,0.0,0.0,0.0,0.0,0.0,0.0,0.0,0.0,0.0,0.0,0.0,0.0,0.0,0.0,0.0,0.0,0.0,0.0,0.0,0.0,0.0,0.0,0.0,0.0,0.0,0.0,0.0,0.0,0.0,0.0,0.0,0.0,0.0,0.0,0.0,0.0,0.0,0.0,0.0,0.0,0.0,0.0,0.0,0.0,0.0,0.0,0.0,0.0,0.0,0.0,0.0,0.0,0.0,0.0,0.0,0.0,0.0,0.0,0.0,0.0,0.0,0.0,0.0,0.0,0.0,0.0,0.0,0.0,0.0,0.0,0.0,0.0,0.0,0.0,0.0,0.0,0.0,0.0,0.0,0.0,0.0,0.0,0.0,0.0,0.0,0.0,0.0,0.0,0.0,0.0,0.0,0.0,0.0,0.0,0.0,0.0,0.0,0.0,0.0,0.0,0.0,0.0,0.0,0.0,0.0,0.0,0.0,0.0,0.0,0.0,0.0,0.0,0.0,0.0,0.0,0.0,0.0,0.0,0.0,0.0,0.0,0.0,0.0,0.0,0.0,0.0,0.0,0.0,0.0,0.0,0.0,0.0,0.0,0.0,0.0,0.0,0.0,0.0,0.0,0.0,0.0,0.0,0.0,0.0,0.0,0.0,0.0,0.0,0.0,0.0,0.0,0.0,0.0,0.0,0.0,0.0,0.0,0.0,0.0,0.0,0.0,0.0,0.0,0.0,0.0,0.0,0.0,0.0,0.0,0.0,0.0,0.0,0.0,0.0,0.0,0.0,0.0,0.0,0.0,0.0,0.0,0.0,0.0,0.0,0.0,0.0,0.0,0.0,0.0,0.0,0.0,0.0,0.0,0.0,0.0,0.0,0.0,0.0,0.0,0.0,0.0,0.0,0.0,0.0,0.0,0.0,0.0,0.0,0.0,0.0,0.0,0.0,0.0,0.0,0.0,0.0,0.0,0.0,0.0,0.0,0.0,0.0,0.0,0.0,0.0,0.0,0.0,0.0,0.0,0.0,0.0,0.0,0.0,0.0,0.0,0.0,0.0,0.0,0.0,0.0,0.0,0.0,0.0,0.0,0.0,0.0,0.0,0.0,0.0,0.0,0.0,0.0,0.0,0.0,0.0,0.0,0.0,0.0,0.0,0.0,0.0,0.0,0.0,0.0,0.0,0.0,0.0,0.0,0.0,0.0,0.0,0.0,0.0,0.0,0.0,0.0,0.0,0.0,0.0,0.0,0.0,0.0,0.0,0.0,0.0,0.0,0.0,0.0,0.0,0.0,0.0,0.0,0.0,0.0,0.0,0.0,0.0,0.0,0.0,0.0,0.0,0.0,0.0,0.0,0.0,0.0,0.0,0.0,0.0,0.0,0.0,0.0,0.0,0.0,0.0,0.0,0.0,0.0,0.0,0.0,0.0,0.0,0.0,0.0,0.0,0.0,0.0,0.0,0.0,0.0,0.0,0.0,0.0,0.0,0.0,0.0,0.0,0.0,0.0,0.0,0.0,0.0,0.0,0.0,0.0,0.0,0.0,0.0,0.0,0.0,0.0,0.0,0.0,0.0,0.0,0.0,0.0,0.0,0.0,0.0,0.0,0.0,0.0,0.0,0.0,0.0,0.0,0.0,0.0,0.0,0.0,0.0,0.0,0.0,0.0,0.0,0.0,0.0,0.0,0.0,0.0,0.0,0.0,0.0,0.0,0.0,0.0,0.0,0.0,0.0,0.0,0.0,0.0,0.0,0.0,0.0,0.0,0.0,0.0,0.0,0.0,0.0,0.0,0.0,0.0,0.0,0.0,0.0,0.0,0.0,0.0,0.0,0.0,0.0,0.0,0.0,0.0,0.0,0.0,0.0,0.0,0.0,0.0,0.0,0.0,0.0,0.0,0.0,0.0,0.0,0.0,0.0,0.0,0.0,0.0,0.0,0.0,0.0,0.0,0.0,0.0,0.0,0.0,0.0,0.0,0.0,0.0,0.0,0.0,0.0,0.0,0.0,0.0,0.0,0.0,0.0,0.0,0.0,0.0,0.0,0.0,0.0,0.0,0.0,0.0,0.0,0.0,0.0,0.0,0.0,0.0,0.0,0.0,0.0,0.0,0.0,0.0,0.0,0.0,0.0,0.0,0.0,0.0,0.0,0.0,0.0,0.0,0.0,0.0,0.0,0.0,0.0,0.0,0.0,0.0,0.0,0.0,0.0,0.0,0.0,0.0,0.0,0.0,0.0,0.0,0.0,0.0,0.0,0.0,0.0,0.0,0.0,0.0,0.0,0.0,0.0,0.0,0.0,0.0,0.0,0.0,0.0,0.0,0.0,0.0,0.0,0.0,0.0,0.0,0.0,0.0,0.0,0.0,0.0,0.0,0.0,0.0,0.0,0.0,0.0,0.0,0.0,0.0,0.0,0.0,0.0,0.0,0.0,0.0,0.0,0.0,0.0,0.0,0.0,0.0,0.0,0.0,0.0,0.0,0.0,0.0,0.0,0.0,0.0,0.0,0.0,0.0,0.0,0.0,0.0,0.0,0.0,0.0,0.0,0.0,0.0,0.0,0.0,0.0,0.0,0.0,0.0,0.0,0.0,0.0,0.0,0.0,0.0,0.0,0.0,0.0,0.0,0.0,0.0,0.0,0.0,0.0,0.0,0.0,0.0,0.0,0.0,0.0,0.0,0.0,0.0,0.0,0.0,0.0,0.0,0.0,0.0,0.0,0.0,0.0,0.0,0.0,0.0,0.0,0.0,0.0,0.0,0.0,0.0,0.0,0.0,0.0,0.0,0.0,0.0,0.0,0.0,0.0,0.0,0.0,0.0,0.0,0.0,0.0,0.0,0.0,0.0,0.0,0.0,0.0,0.0,0.0,0.0,0.0,0.0,0.0,0.0,0.0,0.0,0.0,0.0,0.0,0.0,0.0,0.0,0.0,0.0,0.0,0.0,0.0,0.0,0.0,0.0,0.0,0.0,0.0,0.0,0.0,0.0,0.0,0.0,0.0,0.0,0.0,0.0,0.0,0.0,0.0,0.0,0.0,0.0,0.0,0.0,0.0,0.0,0.0,0.0,0.0,0.0,0.0,0.0,0.0,0.0,0.0,0.0,0.0,0.0,0.0,0.0,0.0,0.0,0.0,0.0,0.0,0.0,0.0,0.0,0.0,0.0,0.0,0.0,0.0,0.0,0.0,0.0,0.0,0.0,0.0,0.0,0.0,0.0,0.0,0.0,0.0,0.0,0.0,0.0,0.0,0.0,0.0,0.0,0.0,0.0,0.0,0.0,0.0,0.0,0.0,0.0,0.0,0.0,0.0,0.0,0.0,0.0,0.0,0.0,0.0,0.0,0.0,0.0,0.0,0.0,0.0,0.0,0.0,0.0,0.0,0.0,0.0,0.0,0.0,0.0,0.0,0.0,0.0,0.0,0.0,0.0,0.0,0.0,0.0,0.0,0.0,0.0,0.0,0.0,0.0,0.0,0.0,0.0,0.0,0.0,0.0,0.0,0.0,0.0,0.0,0.0,0.0,0.0,0.0,0.0,0.0,0.0,0.0,0.0,0.0,0.0,0.0,0.0,0.0,0.0,0.0,0.0,0.0,0.0,0.0,0.0,0.0,0.0,0.0,0.0,0.0,0.0,0.0,0.0,0.0,0.0,0.0,0.0,0.0,0.0,0.0,0.0,0.0,0.0,0.0,0.0,0.0,0.0,0.0,0.0,0.0,0.0,0.0,0.0,0.0,0.0,0.0,0.0,0.0,0.0,0.0,0.0,0.0,0.0,0.0,0.0,0.0,0.0,0.0,0.0,0.0,0.0,0.0,0.0,0.0,0.0,0.0,0.0,0.0,0.0,0.0,0.0,0.0,0.0,0.0,0.0,0.0,0.0,0.0,0.0,0.0,0.0,0.0,0.0,0.0,0.0,0.0,0.0,0.0,0.0,0.0,0.0,0.0,0.0,0.0,0.0,0.0,0.0,0.0,0.0,0.0,0.0,0.0,0.0,0.0,0.0,0.0,0.0,0.0,0.0,0.0,0.0,0.0,0.0,0.0,0.0,0.0,0.0,0.0,0.0,0.0,0.0,0.0,0.0,0.0,0.0,0.0,0.0,0.0,0.0,0.0,0.0,0.0,0.0,0.0,0.0,0.0,0.0,0.0,0.0,0.0,0.0,0.0,0.0,0.0,0.0,0.0,0.0,0.0,0.0,0.0,0.0,0.0,0.0,0.0,0.0,0.0,0.0,0.0,0.0,0.0,0.0,0.0,0.0,0.0,0.0,0.0,0.0,0.0,0.0,0.0,0.0,0.0,0.0,0.0,0.0,0.0,0.0,0.0,0.0,0.0,0.0,0.0,0.0,0.0,0.0,0.0,0.0,0.0,0.0,0.0,0.0,0.0,-3.56,0.0,0.0,0.0,0.0,0.0,0.0,0.0,0.0,0.0,0.0,0.0,0.0,0.0,0.0,0.0,0.0,0.0,0.0,0.0,0.0,0.0,0.0,0.0,0.0,0.0,0.0,0.0,0.0,0.0,0.0,0.0,0.0,0.0,0.0,0.0,0.0,0.0,0.0,0.0,0.0,-3.7499,-3.7862,-3.8396,-3.8508,-3.8231,0.0,0.0,0.0,0.0,0.0,0.0,0.0,0.0,0.0,0.0,0.0,0.0,0.0,0.0,0.0,0.0,0.0,0.0,0.0,0.0,0.0,0.0,0.0,0.0,0.0,0.0,0.0,0.0,0.0,0.0,0.0,0.0,0.0,0.0,0.0,0.0,0.0,0.0,0.0,0.0,0.0,0.0,0.0,0.0,0.0,0.0,0.0,0.0,0.0,0.0,0.0,0.0,0.0,0.0,0.0,0.0,0.0,0.0,0.0,0.0,0.0,0.0,0.0,0.0,0.0,0.0,0.0,0.0,0.0,0.0,0.0,-3.56,0.0,0.0,0.0,0.0,0.0,0.0,0.0,0.0,0.0,0.0,0.0,0.0,0.0,0.0,0.0,0.0,0.0,0.0,0.0,0.0,0.0,0.0,0.0,0.0,0.0,0.0,0.0,0.0,0.0,0.0,0.0,0.0,0.0,0.0,0.0,0.0,0.0,0.0,0.0,-3.8464,-3.9174,-3.9174,-3.887,-3.8278,-3.8159,0.0,0.0,0.0,0.0,0.0,0.0,0.0,0.0,0.0,0.0,0.0,0.0,0.0,0.0,0.0,0.0,0.0,0.0,0.0,0.0,0.0,0.0,0.0,0.0,0.0,0.0,0.0,0.0,0.0,0.0,0.0,0.0,0.0,0.0,0.0,0.0,0.0,0.0,0.0,0.0,0.0,0.0,0.0,0.0,0.0,0.0,0.0,0.0,0.0,0.0,0.0,0.0,0.0,0.0,0.0,0.0,0.0,0.0,0.0,0.0,0.0,0.0,0.0,0.0,0.0,-3.4783,-3.5362,-3.56,-3.56,-3.56,-3.56,-3.56,0.0,0.0,0.0,0.0,0.0,0.0,0.0,0.0,0.0,0.0,0.0,0.0,0.0,0.0,0.0,0.0,0.0,0.0,0.0,0.0,0.0,0.0,0.0,0.0,0.0,0.0,0.0,0.0,0.0,0.0,0.0,0.0,0.0,0.0,0.0,0.0,0.0,0.0,-3.9225,-3.996,-3.996,-3.991,-3.9791,-3.914,-3.8853,-3.8802,0.0,0.0,0.0,0.0,0.0,0.0,0.0,0.0,0.0,0.0,0.0,0.0,0.0,0.0,0.0,0.0,0.0,0.0,0.0,0.0,0.0,0.0,0.0,0.0,0.0,0.0,0.0,0.0,0.0,0.0,0.0,0.0,0.0,0.0,0.0,0.0,0.0,0.0,0.0,0.0,0.0,-3.4479,-3.3811,0.0,0.0,0.0,0.0,0.0,0.0,0.0,0.0,0.0,0.0,0.0,0.0,0.0,0.0,-3.4576,-3.46,-3.4894,-3.547,-3.5577,-3.5538,-3.547,-3.5577,-3.56,-3.56,-3.56,0.0,-3.56,-3.56,0.0,0.0,0.0,0.0,0.0,0.0,0.0,0.0,0.0,0.0,0.0,0.0,0.0,0.0,0.0,0.0,0.0,0.0,0.0,0.0,0.0,0.0,0.0,0.0,0.0,0.0,0.0,0.0,0.0,0.0,0.0,0.0,0.0,0.0,0.0,0.0,-3.9469,-3.9791,-4.0096,-4.0096,-4.0096,-4.0096,-3.9774,-3.9622,-3.9571,-3.8819,0.0,0.0,0.0,0.0,0.0,0.0,0.0,0.0,0.0,0.0,0.0,0.0,0.0,0.0,0.0,0.0,0.0,0.0,0.0,0.0,0.0,0.0,0.0,0.0,0.0,0.0,0.0,0.0,0.0,0.0,0.0,0.0,0.0,0.0,0.0,0.0,0.0,0.0,0.0,-3.4471,-3.3931,-3.3581,-3.2949,-3.2821,0.0,0.0,0.0,0.0,0.0,0.0,0.0,0.0,0.0,-3.3547,-3.3911,-3.4238,-3.4547,-3.4547,-3.4681,-3.4997,-3.5836,-3.6025,-3.5686,-3.6504,-3.6884,-3.6884,-3.6884,-3.6884,-3.684,-3.5955,-3.56,-3.556,0.0,0.0,0.0,0.0,0.0,-3.3937,0.0,0.0,0.0,0.0,0.0,0.0,0.0,0.0,0.0,0.0,0.0,0.0,0.0,0.0,0.0,-3.56,0.0,0.0,0.0,0.0,0.0,0.0,0.0,0.0,-3.7858,0.0,0.0,-4.0096,-4.0096,-4.0096,-4.0096,-4.0096,-4.0096,-4.0096,-4.0096,-4.0096,-4.0062,-3.952,-3.9276,-3.9208,0.0,0.0,0.0,0.0,0.0,0.0,0.0,0.0,0.0,0.0,0.0,0.0,0.0,0.0,0.0,0.0,0.0,0.0,0.0,0.0,0.0,0.0,0.0,0.0,0.0,0.0,0.0,0.0,0.0,0.0,0.0,0.0,0.0,0.0,0.0,0.0,0.0,-3.4018,-3.3554,-3.3521,-3.3048,-3.2961,0.0,0.0,0.0,0.0,0.0,0.0,-3.3739,-3.4227,-3.4211,-3.353,-3.3969,-3.4323,-3.4496,-3.4496,-3.4583,-3.4784,-3.5894,-3.6257,-3.5991,-3.7095,-3.7704,-3.7905,-3.7905,-3.7905,-3.7821,-3.6648,-3.6174,-3.6112,-3.5442,-3.5153,0.0,-3.4177,-3.3735,-3.3505,0.0,0.0,0.0,0.0,0.0,0.0,0.0,0.0,0.0,0.0,0.0,0.0,0.0,0.0,-3.56,-3.56,-3.56,-3.5926,0.0,0.0,0.0,0.0,-3.6039,-3.6325,-3.7762,0.0,0.0,-4.0096,-4.0096,-4.0096,-4.0096,-4.0096,-4.0096,-4.0096,-4.0096,-4.0096,-4.0096,-4.0062,-4.0045,-3.9977,-3.9225,0.0,0.0,0.0,0.0,0.0,0.0,0.0,0.0,0.0,0.0,0.0,0.0,0.0,0.0,0.0,0.0,0.0,0.0,0.0,0.0,0.0,0.0,0.0,0.0,0.0,0.0,0.0,0.0,0.0,0.0,0.0,0.0,0.0,0.0,0.0,0.0,0.0,0.0,-3.3502,-3.347,0.0,0.0,0.0,0.0,-3.4414,-3.4459,-3.4459,-3.4459,-3.449,-3.419,-3.3514,-3.3515,-3.3879,-3.4496,-3.4496,-3.4857,-3.5534,-3.5616,-3.6007,-3.6648,-3.6741,-3.7195,-3.7905,-3.7905,-3.7905,-3.7905,-3.7821,-3.7787,-3.7696,-3.6986,-3.6698,-3.6527,-3.5089,-3.4161,-3.3505,0.0,0.0,0.0,0.0,0.0,0.0,0.0,0.0,0.0,0.0,0.0,0.0,0.0,-3.56,-3.5825,-3.6315,-3.6366,-3.6705,-3.7449,0.0,0.0,-3.7399,-3.7647,-3.8269,-3.926,-3.9817,-4.0096,-4.0096,-4.0096,-4.0096,-4.0096,-4.0096,-4.0096,-4.0096,-4.0096,-4.0096,-4.0096,-4.0096,-4.0096,-4.0079,-3.9808,-3.9723,0.0,0.0,0.0,0.0,0.0,0.0,0.0,0.0,0.0,0.0,0.0,0.0,0.0,0.0,0.0,0.0,0.0,0.0,0.0,0.0,0.0,0.0,0.0,0.0,0.0,0.0,0.0,0.0,0.0,0.0,0.0,0.0,0.0,0.0,0.0,0.0,0.0,-3.4131,-3.4159,0.0,0.0,-3.4786,-3.4891,-3.5115,-3.513,-3.513,-3.513,-3.513,-3.5026,-3.4801,-3.4786,-3.4898,-3.5151,-3.5151,-3.5276,-3.5539,-3.654,-3.7138,-3.7446,-3.8446,-3.9034,-3.9334,-3.9334,-3.9334,-3.9334,-3.9334,-3.8751,-3.7776,-3.657,-3.6081,-3.5919,-3.4439,-3.3759,-3.3487,0.0,0.0,0.0,0.0,0.0,0.0,0.0,0.0,0.0,0.0,0.0,-3.56,-3.56,-3.5836,-3.6214,-3.6761,-3.7032,-3.7371,-3.7835,0.0,0.0,-3.739,-3.8179,-3.8928,-3.9688,-3.9952,-3.9969,-3.9705,-3.9914,-3.99,-3.9661,-3.9893,-4.0134,-4.0417,-4.0417,-4.043,-4.046,-4.046,-4.0333,-4.0096,-4.0096,-4.0096,-4.0045,0.0,0.0,0.0,0.0,0.0,0.0,0.0,0.0,0.0,0.0,0.0,0.0,0.0,0.0,0.0,0.0,0.0,0.0,0.0,0.0,0.0,0.0,0.0,0.0,0.0,0.0,0.0,0.0,0.0,0.0,0.0,0.0,0.0,0.0,0.0,-3.4592,-3.4805,-3.4848,-3.4996,-3.5459,-3.5504,-3.5504,-3.5504,-3.5504,-3.5504,-3.5504,-3.5504,-3.5504,-3.5504,-3.5504,-3.5504,-3.5504,-3.5504,-3.5619,-3.5894,-3.6905,-3.769,-3.8206,-3.9236,-3.9833,-4.0096,-4.0096,-4.0096,-4.0096,-4.0096,-3.9512,-3.8526,-3.7296,-3.6657,-3.6276,-3.5036,-3.425,-3.3819,0.0,0.0,0.0,0.0,0.0,0.0,0.0,0.0,0.0,0.0,-3.5616,-3.5633,-3.5633,-3.6332,-3.6829,-3.6863,-3.7516,-3.7918,-3.7854,-3.7171,0.0,-3.666,-3.7397,-3.8177,-3.8908,-3.9705,-3.9705,-3.8941,-3.9594,-3.9544,-3.885,-3.9507,-4.0234,-4.0968,-4.0968,-4.1028,-4.1159,-4.1186,-4.0772,-4.0104,-4.0113,-4.0096,-4.0096,0.0,0.0,0.0,0.0,0.0,0.0,0.0,0.0,0.0,0.0,0.0,0.0,0.0,0.0,0.0,0.0,0.0,0.0,0.0,0.0,0.0,0.0,0.0,0.0,0.0,0.0,0.0,0.0,0.0,0.0,0.0,0.0,0.0,-3.5595,-3.4941,-3.4788,-3.5429,-3.5504,-3.5504,-3.5504,-3.5504,-3.5504,-3.5504,-3.5504,-3.5504,-3.5504,-3.5504,-3.5504,-3.5504,-3.5534,-3.5534,-3.5534,-3.5549,-3.5923,-3.6677,-3.6692,-3.7501,-3.8974,-3.9001,-3.9435,-4.013,-4.013,-4.013,-4.0096,-4.0096,-4.0096,-4.0028,-3.9309,-3.8522,-3.7752,-3.7018,-3.5807,-3.4457,0.0,0.0,0.0,0.0,0.0,0.0,0.0,0.0,0.0,0.0,-3.6113,-3.6468,-3.6468,-3.6677,-3.7235,-3.8294,-3.8582,-3.8656,-3.8605,0.0,-3.8285,-3.827,-3.7978,-3.843,-3.9756,-3.9995,-3.9956,-3.9627,-3.9796,-3.976,-3.9539,-3.973,-3.9902,-4.0144,-4.0144,-4.0151,-4.0209,-4.0802,-4.0641,-3.9966,-4.0052,-4.0096,-4.0096,0.0,0.0,0.0,0.0,0.0,0.0,0.0,0.0,0.0,0.0,0.0,0.0,0.0,0.0,0.0,0.0,0.0,0.0,0.0,0.0,0.0,0.0,0.0,0.0,0.0,0.0,0.0,0.0,0.0,0.0,0.0,0.0,-3.5748,-3.5542,-3.5334,-3.5295,-3.5489,-3.5504,-3.5504,-3.5504,-3.5504,-3.5504,-3.5504,-3.5504,-3.5504,-3.5504,-3.5504,-3.5504,-3.5504,-3.5968,-3.6222,-3.6222,-3.6671,-3.7304,-3.8119,-3.8731,-3.9548,-4.0578,-4.112,-4.1172,-4.0899,-4.0899,-4.0578,-4.0096,-4.0096,-4.0096,-4.0028,-3.9246,-3.8788,-3.8514,-3.7772,-3.6869,-3.5906,0.0,0.0,0.0,0.0,0.0,0.0,0.0,0.0,0.0,0.0,-3.6299,-3.6795,-3.6795,-3.7083,-3.7719,-3.8886,-3.8975,-3.8804,-3.8465,0.0,-3.7745,-3.8414,-3.7703,-3.8019,-3.9542,-3.9929,-4.0051,-3.9967,-4.0205,-4.0326,-4.0288,-3.983,-4.0036,-4.0719,-4.0719,-4.0745,-4.0867,-4.1675,-4.1572,-4.0894,-4.066,-4.0383,-4.0096,-4.0096,-4.0096,-4.0096,-4.0096,-4.0096,-4.0096,-4.0096,0.0,0.0,0.0,0.0,0.0,0.0,0.0,0.0,0.0,0.0,0.0,0.0,0.0,0.0,0.0,0.0,0.0,0.0,0.0,0.0,0.0,0.0,0.0,0.0,-3.6768,-3.5863,-3.5522,-3.5504,-3.5504,-3.5504,-3.5504,-3.5504,-3.5504,-3.5504,-3.5624,-3.5893,-3.5923,-3.6028,-3.6282,-3.6312,-3.6312,-3.6312,-3.6671,-3.6881,-3.6881,-3.7225,-3.7815,-3.8676,-3.9486,-4.0307,-4.1144,-4.1946,-4.2066,0.0,-4.166,-4.1407,-4.1027,-4.1027,-4.1027,0.0,0.0,0.0,0.0,0.0,-3.7515,-3.701,0.0,0.0,0.0,0.0,0.0,0.0,0.0,0.0,0.0,0.0,0.0,-3.6829,-3.6914,-3.7499,-3.8227,-3.9039,-3.8992,-3.858,0.0,-3.6523,-3.6399,-3.7863,-3.7233,-3.7496,-3.8881,-3.9677,-4.0033,-3.9919,-4.0485,-4.0785,-4.0801,-3.9856,-4.0235,-4.1707,-4.1804,-4.1867,-4.1945,-4.2958,-4.2907,-4.2095,-4.1632,-4.095,-4.0214,-4.013,-4.0096,-4.0096,-4.0096,-4.0096,-4.0096,-4.0096,0.0,0.0,0.0,0.0,0.0,0.0,0.0,0.0,0.0,0.0,0.0,0.0,0.0,0.0,0.0,0.0,0.0,0.0,0.0,0.0,0.0,0.0,0.0,0.0,-3.707,-3.6244,-3.5587,-3.5564,-3.5594,-3.5519,-3.5564,-3.5609,-3.5609,-3.5669,-3.5968,-3.6552,-3.6596,-3.6836,-3.7375,0.0,0.0,0.0,0.0,-3.7524,-3.7524,-3.7599,-3.8076,-3.9006,-3.9754,-4.058,-4.1432,-4.2209,-4.2506,-4.2422,-4.2422,-4.2371,-4.2286,-4.2286,-4.2286,-4.2151,-4.0773,-3.9744,-3.8942,-3.8124,-3.7719,0.0,0.0,0.0,0.0,0.0,0.0,0.0,0.0,0.0,0.0,-3.5701,-3.6299,-3.7032,-3.7618,-3.7821,-3.8447,-3.9774,-3.9285,-3.858,-3.7851,-3.7531,-3.7748,-3.8635,-3.8536,-3.8591,-3.8881,-3.9589,-3.9603,-3.8874,-3.9557,-3.9791,-3.9702,-3.9493,-3.9574,-3.9935,-4.0638,-4.0594,-4.009,-4.2341,-4.2485,-4.1272,-4.2473,-4.2185,-4.0916,-4.0333,-4.0096,-4.0096,-4.0096,-4.0096,-4.0096,-4.0096,-4.0096,-4.0196,-4.0625,-4.0449,0.0,0.0,0.0,0.0,0.0,0.0,0.0,0.0,0.0,0.0,0.0,0.0,0.0,0.0,0.0,0.0,0.0,0.0,0.0,-3.7806,-3.6631,-3.5668,-3.5537,-3.5968,-3.6103,-3.5564,-3.5968,-3.6297,-3.6297,-3.6746,-3.709,-3.7225,-3.724,-3.7285,-3.7404,-3.7404,0.0,-3.7404,-3.7913,-3.8197,-3.8197,-3.8751,-3.9803,-4.1326,0.0,0.0,-4.3917,-4.4074,-4.3792,-4.32,-4.32,-4.2861,-4.2286,-4.2286,-4.2286,-4.2202,-4.1322,-4.0514,-3.972,-3.8302,-3.7397,-3.6737,0.0,0.0,0.0,0.0,0.0,0.0,0.0,0.0,0.0,0.0,-3.662,-3.7347,-3.7285,-3.7645,-3.8168,-3.8869,-3.8596,-3.8189,-3.7806,-3.7793,-3.8149,-3.8881,-3.8553,-3.8358,-3.8358,-3.9369,-3.9668,-3.9251,-3.9849,-4.0331,-4.0672,-3.9809,-3.9646,-4.008,-4.05,-4.0466,-4.0185,-4.2363,-4.2851,-4.2171,-4.3048,-4.2953,-4.2185,-4.1068,-4.0434,-4.0096,-4.0096,-4.0096,-4.0096,-4.0096,-4.0096,-4.0146,-4.0417,-4.0311,-4.0146,0.0,0.0,0.0,0.0,0.0,0.0,0.0,0.0,0.0,0.0,0.0,0.0,0.0,0.0,-3.9978,0.0,0.0,-3.7772,-3.7706,-3.6748,-3.6103,-3.6417,-3.6746,-3.6701,-3.6073,-3.6552,-3.6941,-3.6941,-3.7225,-3.7539,-3.7883,-3.7898,-3.8048,-3.8392,-3.8407,-3.8407,-3.8407,-3.8736,-3.8901,-3.8901,-3.9245,-4.006,-4.133,-4.1804,-4.2676,-4.3977,-4.4412,-4.4395,-4.3995,-4.3995,-4.3792,-4.3464,-4.3464,-4.3464,-4.3352,-4.2608,-4.1836,-4.1109,-4.0326,-3.9799,-3.9282,0.0,0.0,0.0,0.0,0.0,0.0,0.0,0.0,0.0,0.0,-3.6664,-3.7319,-3.6953,-3.732,-3.7584,0.0,-3.7835,-3.795,-3.7822,-3.8064,-3.8513,-3.9113,-3.8569,-3.8177,-3.8035,-3.9097,-3.965,-3.964,-4.0035,-4.0686,-4.1445,-4.006,-3.9758,-4.0466,-4.0622,-4.069,-4.0811,-4.2552,-4.3306,-4.3317,-4.3552,-4.3443,-4.3064,-4.188,-4.095,-4.0299,-4.0146,-4.0096,-4.0096,-4.0096,-4.0096,-4.0121,-4.0229,-4.0179,-4.0121,-4.0229,-4.0179,0.0,0.0,0.0,0.0,0.0,0.0,0.0,0.0,0.0,-4.0146,-4.0282,-4.0316,-4.0103,-3.9429,-3.8724,-3.8132,-3.7825,-3.716,-3.6836,-3.7345,-3.7524,-3.7419,-3.6911,-3.73,-3.7599,-3.7599,-3.7719,-3.8078,-3.8736,-3.8781,-3.908,-3.9768,-3.9798,-3.9798,-3.9798,-3.9798,-3.9798,-3.9798,-3.9965,-4.0512,-4.1385,-4.2267,-4.3145,-4.4006,-4.4719,-4.5038,-4.5038,-4.4886,-4.4733,-4.4615,-4.4615,-4.4615,-4.4547,-4.3893,-4.3267,-4.2692,-4.2254,-4.1875,-4.141,0.0,0.0,0.0,0.0,0.0,0.0,0.0,0.0,0.0,0.0,0.0,0.0,0.0,0.0,0.0,-3.6734,-3.7987,-3.8497,-3.7835,-3.9076,-3.9876,-3.9952,-3.9876,-3.9506,-3.8799,-3.8879,-3.8853,-3.8741,-3.8694,-3.9008,-3.9681,-3.9481,-3.9445,-3.9574,-4.0363,-4.069,-4.0811,-4.2552,-4.3306,-4.3366,-4.4152,-4.3639,-4.2405,-4.2236,-4.1711,-4.0984,-4.035,-4.0096,-4.0096,-4.0096,-4.0096,-4.0179,-4.0655,-4.0473,-4.0179,-4.0679,-4.0473,-4.0096,-4.0096,-4.0096,-4.0096,-4.0096,-4.0096,-4.0096,0.0,0.0,-4.0299,-4.0933,-4.1085,-4.1019,-4.0805,-4.0154,-3.9403,-3.8616,-3.781,-3.733,-3.7404,-3.7913,-3.8257,-3.8182,-3.8242,-3.8287,-3.8287,-3.8841,-3.9469,-4.0127,-4.0172,-4.0472,-4.113,-4.116,-4.116,-4.116,-4.116,-4.116,-4.116,-4.201,-4.2856,-4.3735,-4.4642,-4.5543,-4.6414,-4.6503,-4.6532,-4.6515,-4.5855,-4.5213,-4.4615,-4.4615,-4.4615,-4.4598,-4.4513,-4.4429,-4.4091,-4.2054,-4.0383,-3.9078,0.0,0.0,0.0,0.0,0.0,0.0,0.0,0.0,0.0,0.0,0.0,0.0,0.0,0.0,0.0,-3.6522,-3.76,-3.8149,-3.7822,-3.9252,-4.0096,-4.0096,-4.0096,-3.9714,-3.8908,-3.9254,-3.9181,-3.8731,-3.9043,-3.9567,-4.0266,-4.0266,-4.0502,-4.0927,-4.128,-4.1478,-4.1543,-4.2785,-4.3059,-4.2723,-4.3569,-4.325,-4.2236,-4.1813,-4.1474,-4.117,-4.0849,-4.073,0.0,-4.073,-4.073,-4.0697,-4.0504,-4.0568,-4.0781,-4.1008,-4.1231,-4.1271,-4.0849,-4.073,-4.073,0.0,-4.073,-4.0849,-4.1297,-4.1399,-4.1484,-4.1779,-4.183,-4.1701,-4.1208,-4.0456,-3.9768,0.0,-3.8527,-3.8123,-3.8527,-3.8811,-3.914,-3.9514,-3.9559,-3.9559,-3.9559,-3.9828,-4.0262,-4.092,-4.0965,-4.1085,-4.1407,-4.1422,-4.1422,-4.1422,-4.1422,-4.1422,-4.1422,-4.179,-4.2406,-4.3301,-4.3685,-4.4625,-4.5979,-4.5979,-4.6287,-4.6769,-4.6464,-4.616,-4.5838,-4.5415,-4.5229,-4.5196,-4.4784,-4.4615,-4.4485,-4.3536,-4.2738,-4.2054,0.0,0.0,0.0,0.0,0.0,0.0,0.0,0.0,0.0,0.0,0.0,0.0,0.0,0.0,-3.5355,-3.5968,-3.7109,-3.7793,-3.7793,-3.9252,-4.0096,-4.0096,-4.0096,-3.985,-3.9246,-3.949,-3.9446,-3.9111,-3.9404,-3.989,-4.0592,-4.0592,-4.0879,-4.139,-4.139,-4.1516,-4.1767,-4.2411,-4.2518,-4.2297,-4.2863,-4.2658,-4.1931,-4.1407,-4.1068,-4.0916,-4.1136,-4.1204,-4.1238,-4.1441,-4.1508,-4.1407,-4.0891,-4.1068,-4.1508,-4.1508,-4.188,-4.2168,-4.1644,-4.1508,0.0,-4.1508,-4.1508,-4.1644,-4.2168,-4.2286,-4.2354,-4.2557,-4.2591,-4.237,-4.1559,-4.0906,-4.0293,-3.9717,-3.9102,-3.8856,-3.9313,-3.9574,-3.9873,-4.0337,-4.0561,-4.0741,-4.092,-4.0771,-4.0935,-4.1647,-4.1692,-4.1767,-4.1908,-4.1923,-4.1923,-4.1923,-4.1923,-4.1923,-4.1923,-4.2213,-4.279,-4.3653,-4.3937,-4.4873,-4.6406,-4.6406,-4.6633,-4.7107,-4.7107,-4.6989,-4.6752,-4.6227,-4.6007,-4.5894,-4.4916,-4.4555,-4.4539,-4.4337,-4.4253,-4.4167,0.0,0.0,0.0,0.0,0.0,0.0,0.0,0.0,0.0,0.0,0.0,0.0,0.0,0.0,-3.6079,-3.4676,-3.6544,-3.7793,-3.7793,-3.9252,-4.0096,-4.0096,-4.0096,-4.007,-4.007,-3.9305,-3.9232,-3.9867,-3.9156,-3.9155,-3.9811,-3.9811,-3.9858,-3.989,-3.989,-4.0298,-4.1033,-4.1062,-4.1532,-4.2293,-4.232,-4.188,-4.1238,-4.1221,-4.0747,-4.0231,-4.0933,-4.1204,-4.1322,-4.2016,-4.2252,-4.2252,-4.2236,-4.2236,-4.2252,-4.2252,-4.2269,-4.2286,-4.2269,0.0,-4.2252,-4.2252,-4.2252,-4.2252,-4.2286,-4.2286,-4.2489,-4.3234,-4.3358,-4.3081,-4.2154,-4.1965,-4.1398,-3.9672,-3.9394,-3.9394,-3.9388,-3.9963,-4.0382,-4.0397,-4.0965,-4.1647,0.0,-4.1767,-4.1662,-4.2321,-4.2366,-4.265,-4.32,-4.323,-4.323,-4.323,-4.323,-4.323,-4.323,-4.4197,-4.5164,-4.6109,-4.7039,-4.7948,-4.8903,-4.8903,-4.8531,-4.7855,-4.7855,-4.7462,-4.6786,-4.6769,-4.6752,-4.6608,-4.5009,-4.442,-4.4306,-4.3583,-4.3336,-4.3336,0.0,0.0,0.0,0.0,0.0,0.0,0.0,0.0,0.0,0.0,0.0,0.0,0.0,0.0,0.0,0.0,-3.568,-3.6585,-3.7086,-3.851,-3.9542,-4.007,-4.0096,-4.0096,-4.0096,-3.9833,-3.9822,-4.0031,-3.9777,-4.0026,-4.0729,-4.0729,-4.1006,-4.1455,-4.1455,-4.1611,-4.1858,-4.1858,-4.1742,-4.1576,-4.1576,-4.1119,-4.046,-4.046,-4.0333,-4.0197,0.0,-4.1204,-4.1238,-4.1491,-4.1576,-4.1576,-4.1576,-4.1914,-4.2489,-4.3532,-4.3836,-4.3718,-4.3183,0.0,-4.3031,-4.3031,-4.3031,-4.3166,-4.369,-4.3836,-4.3904,-4.4147,-4.4198,-4.3905,-4.3029,-4.2395,-4.1609,-4.0432,-3.9773,-3.9388,-3.9388,-3.9993,-4.0561,-4.0995,-4.1677,0.0,0.0,0.0,0.0,-4.2955,-4.3015,-4.3105,-4.329,-4.329,-4.329,-4.329,-4.329,-4.329,-4.329,-4.363,-4.432,-4.5285,-4.685,-4.777,-4.808,-4.8719,-4.8866,-4.8646,-4.8646,-4.8494,-4.8223,-4.7733,-4.753,-4.7432,-4.64,-4.5978,-4.5818,-4.4539,-4.4045,-4.3963,0.0,0.0,0.0,0.0,0.0,0.0,0.0,0.0,0.0,0.0,0.0,0.0,0.0,0.0,0.0,0.0,0.0,-3.571,-3.673,-3.7916,-3.9023,-4.007,-4.0096,-3.9969,-3.9662,-3.9662,-3.9662,-3.9662,-3.9662,-4.006,-4.0798,-4.0798,-4.1052,-4.1491,-4.1491,-4.1491,-4.1491,-4.1491,-4.1238,-4.0798,-4.0798,-4.051,-4.0096,-4.0096,-4.0096,0.0,-4.0629,-4.0798,-4.0882,-4.1424,-4.1593,-4.1593,-4.1593,-4.21,-4.2946,-4.4225,-4.4615,-4.4496,-4.3961,-4.3826,-4.3826,-4.3826,-4.3826,-4.3961,-4.4496,-4.4615,-4.4615,-4.4615,-4.4615,-4.4327,-4.3472,-4.2583,-4.1707,-4.0844,-3.9955,-3.9388,-3.9388,-4.0187,-4.0905,-4.1324,-4.2162,0.0,0.0,0.0,0.0,-4.326,-4.329,-4.329,-4.329,-4.329,-4.329,-4.329,-4.329,-4.329,-4.329,-4.329,-4.3974,-4.5322,-4.7205,-4.808,-4.8112,-4.8719,-4.9001,-4.9001,-4.9001,-4.9001,-4.8968,-4.8494,-4.8308,-4.8193,-4.7144,-4.6733,-4.6511,-4.4877,-4.4282,-4.4152,0.0,0.0,0.0,0.0,0.0,0.0,0.0,0.0,0.0,0.0,0.0,0.0,0.0,0.0,0.0,0.0,0.0,0.0,-3.6602,-3.7502,-3.8583,-3.9935,-4.0028,-3.9705,-3.8962,-3.8908,-3.8908,-3.8962,-3.8962,-3.9342,-4.0045,-4.0045,-4.002,-3.9978,-3.9978,-3.9995,-4.0045,-4.0045,-4.0045,-4.0045,-4.007,-4.007,-4.0045,-4.007,-4.0096,-4.0096,-4.0096,-4.0096,-4.0316,-4.1737,-4.2202,-4.2236,-4.2286,-4.2811,-4.3572,-4.435,-4.4615,-4.4615,-4.4615,-4.4615,-4.4615,-4.4615,-4.4615,-4.4615,-4.4615,-4.4615,-4.4615,-4.4615,-4.4615,-4.4327,0.0,0.0,-4.1772,-4.0912,-4.006,-3.9481,-3.9481,-4.0621,-4.1445,0.0,0.0,0.0,0.0,0.0,0.0,-4.3369,0.0,-4.329,-4.329,-4.329,-4.329,-4.329,-4.329,-4.3329,-4.3369,-4.3433,-4.4365,-4.6208,-4.8015,-4.8861,-4.8861,-4.8861,-4.8892,-4.894,-4.894,-4.897,-4.9001,-4.9001,-4.897,-4.8793,-4.7251,-4.6664,-4.6436,-4.4783,-4.4207,-4.4032,0.0,0.0,0.0,0.0,0.0,0.0,0.0,0.0,0.0,0.0,0.0,0.0,0.0,0.0,0.0,0.0,0.0,0.0,-3.5193,-3.6878,-3.8074,-3.8524,-3.8954,-3.9385,-3.9782,-3.9209,-3.9193,-3.9782,-3.9782,-3.9584,-3.9209,-3.9209,-3.8897,-3.8374,-3.8374,-3.8679,-3.9209,-3.9209,-3.9209,-3.9262,-3.9876,-3.9756,-3.9289,-3.9859,-4.0096,-4.0096,-4.0096,-4.0096,0.0,0.0,0.0,0.0,-4.2117,-4.2811,-4.3572,-4.435,-4.4615,-4.4615,-4.4615,-4.4615,-4.4615,-4.4615,-4.4615,-4.4615,-4.4615,-4.4615,-4.4615,-4.4615,-4.4615,-4.4327,0.0,0.0,0.0,-4.1804,-4.0927,0.0,-4.0363,-4.1581,0.0,-4.1483,0.0,-4.4105,-4.3369,-4.329,0.0,0.0,-4.3732,-4.329,-4.329,-4.329,-4.329,-4.329,-4.329,-4.3669,-4.4412,-4.5122,-4.571,-4.6208,-4.6678,-4.6918,-4.6918,-4.6918,-4.7306,-4.795,-4.795,-4.8353,-4.9001,-4.9001,-4.8576,-4.7917,-4.749,-4.7358,-4.7161,-4.5509,-4.5352,-4.5636,0.0,0.0,0.0,0.0,0.0,0.0,0.0,0.0,0.0,0.0,0.0,0.0,0.0,0.0,0.0,0.0,0.0,0.0,0.0,-3.6233,-3.7047,-3.7454,-3.8094,-3.85,-3.8649,-3.8515,-3.8652,-3.9076,-3.9076,-3.8859,-3.8414,-3.8414,-3.8206,-3.7793,-3.7793,-3.8035,-3.8442,-3.8772,0.0,0.0,0.0,-3.9833,-3.9489,-3.9927,-4.0096,-4.0096,-4.0096,-4.0096,0.0,0.0,0.0,-4.0849,-4.1576,-4.232,-4.3081,-4.3842,0.0,-4.4615,-4.4615,-4.4615,-4.4615,-4.4615,-4.4615,-4.4615,-4.4615,-4.4615,-4.4615,-4.4615,-4.4615,0.0,-4.3977,0.0,0.0,0.0,0.0,0.0,-4.0758,-4.1883,-4.2406,0.0,-4.3008,0.0,-4.3369,-4.3708,-4.3989,0.0,-4.363,-4.3472,-4.3912,-4.3551,-4.3424,-4.3708,-4.3723,-4.4163,-4.5013,-4.5641,-4.5987,-4.5987,-4.614,-4.6208,-4.6208,-4.6208,-4.6488,-4.6986,0.0,-4.7523,-4.8401,-4.8401,-4.8321,-4.8225,-4.8225,-4.7966,-4.744,-4.6122,-4.5961,-4.605,0.0,0.0,0.0,0.0,0.0,0.0,0.0,0.0,0.0,0.0,0.0,0.0,0.0,0.0,0.0,0.0,0.0,0.0,0.0,0.0,-3.5959,-3.6492,-3.7258,-3.7398,-3.6796,-3.727,-3.7534,0.0,0.0,0.0,-3.7504,0.0,0.0,0.0,0.0,0.0,0.0,0.0,0.0,0.0,-3.9731,-3.9995,-3.9825,0.0,0.0,0.0,-4.0096,0.0,0.0,0.0,-4.0096,-4.0231,-4.0967,-4.1711,-4.2439,-4.32,-4.3961,-4.4615,-4.4615,-4.4615,-4.4615,-4.4615,-4.4615,-4.4615,-4.4615,-4.4615,-4.4615,-4.4615,0.0,-4.4615,-4.4615,-4.3977,-4.3472,-4.3472,0.0,-4.1869,-4.1013,-4.2008,-4.2515,-4.152,-4.2638,-4.3512,-4.3512,-4.4182,-4.4373,-4.3732,-4.3523,-4.379,-4.4687,-4.3907,-4.3723,-4.4421,-4.4543,-4.4895,-4.5481,-4.5714,-4.582,-4.582,-4.5987,-4.604,-4.5961,-4.5961,-4.5985,-4.6012,0.0,0.0,-4.7406,-4.7556,-4.8015,-4.8639,-4.875,-4.8257,-4.7306,-4.6488,-4.6208,-4.5881,0.0,0.0,0.0,0.0,0.0,0.0,0.0,0.0,0.0,0.0,-3.4759,0.0,0.0,0.0,0.0,0.0,0.0,0.0,0.0,0.0,0.0,-3.5078,-3.6244,-3.6854,-3.6786,0.0,0.0,0.0,0.0,0.0,0.0,0.0,0.0,0.0,0.0,0.0,0.0,0.0,0.0,0.0,-3.9532,-3.9348,-3.8346,0.0,0.0,0.0,0.0,0.0,-4.0096,-4.0096,-4.0096,-4.0231,-4.0967,-4.1711,-4.2439,-4.32,-4.3961,-4.4615,-4.4615,-4.4615,-4.4615,-4.4615,-4.4615,-4.4615,-4.4615,-4.4615,0.0,0.0,-4.4615,-4.4615,-4.4615,-4.4485,-4.4384,-4.4384,0.0,0.0,0.0,0.0,-4.3266,0.0,0.0,0.0,0.0,0.0,0.0,0.0,0.0,0.0,-4.4379,-4.4218,-4.4451,-4.511,-4.5864,-4.6318,-4.6441,-4.6515,-4.6531,-4.6531,-4.5782,-4.5183,-4.4613,-4.4613,-4.4802,-4.5058,0.0,0.0,-4.6488,-4.7273,-4.7239,-4.6781,-4.7556,-4.7273,-4.6419,-4.6244,-4.6208,-4.6032,0.0,0.0,0.0,0.0,0.0,0.0,0.0,0.0,0.0,0.0,-3.452,-3.4087,0.0,0.0,0.0,0.0,0.0,0.0,0.0,0.0,0.0,0.0,0.0,0.0,0.0,0.0,0.0,0.0,0.0,0.0,0.0,0.0,0.0,0.0,0.0,0.0,0.0,0.0,0.0,0.0,0.0,0.0,0.0,0.0,0.0,0.0,0.0,0.0,-4.0096,-4.0096,-4.0096,-4.0163,-4.0536,-4.139,-4.2354,-4.2726,-4.3656,-4.4615,-4.4615,-4.4615,-4.4615,-4.4615,-4.4615,-4.4615,-4.4615,0.0,0.0,0.0,-4.4615,-4.4615,-4.4615,-4.4615,0.0,0.0,0.0,0.0,0.0,0.0,0.0,0.0,0.0,0.0,0.0,0.0,0.0,0.0,0.0,0.0,-4.5041,-4.5696,-4.6016,-4.5828,-4.7089,-4.7542,-4.703,-4.6681,-4.6498,-4.6498,-4.5687,-4.5125,-4.4811,-4.4466,-4.4404,-4.453,0.0,0.0,-4.5488,-4.5957,-4.6154,-4.6244,-4.6712,-4.6295,-4.5452,-4.5452,-4.5452,-4.5322,0.0,0.0,0.0,0.0,0.0,0.0,0.0,-3.56,-3.5538,-3.5407,-3.4471,-3.371,-3.3417,-3.2922,-3.2815,0.0,0.0,0.0,0.0,0.0,0.0,0.0,0.0,0.0,0.0,0.0,0.0,0.0,0.0,0.0,0.0,0.0,0.0,0.0,0.0,0.0,0.0,0.0,0.0,0.0,0.0,0.0,0.0,0.0,0.0,0.0,0.0,0.0,0.0,0.0,-4.0096,-4.0096,-4.0096,-4.101,-4.21,-4.2236,-4.3267,-4.4395,-4.4564,-4.4615,-4.4615,-4.4615,-4.4615,-4.4615,-4.4615,-4.4615,0.0,0.0,-4.4615,-4.4615,-4.4615,0.0,-4.4384,0.0,-4.3591,-4.3047,0.0,0.0,0.0,0.0,0.0,0.0,0.0,0.0,0.0,0.0,0.0,0.0,0.0,-4.721,-4.7538,-4.6531,-4.7798,-4.8099,-4.7309,-4.68,-4.6488,-4.6488,-4.5978,-4.5648,-4.5499,-4.4975,-4.4586,-4.4287,0.0,0.0,0.0,-4.4699,-4.5211,-4.5905,-4.6103,-4.5634,-4.4812,-4.4812,-4.4662,-4.4373,0.0,0.0,0.0,0.0,0.0,0.0,0.0,-3.56,-3.5385,-3.4759,-3.4576,-3.4037,-3.2815,-3.2641,-3.2614,0.0,0.0,0.0,0.0,0.0,0.0,0.0,0.0,0.0,0.0,0.0,0.0,0.0,0.0,0.0,0.0,0.0,0.0,0.0,0.0,0.0,0.0,0.0,0.0,0.0,0.0,0.0,0.0,0.0,0.0,0.0,0.0,0.0,0.0,0.0,0.0,-4.0096,-4.0096,-4.0646,-4.1441,-4.21,0.0,0.0,-4.4412,-4.4615,-4.4615,-4.4615,-4.4615,-4.4615,-4.4615,0.0,-4.4615,-4.4615,-4.4615,-4.4615,-4.4615,-4.4615,-4.457,-4.4485,-4.4485,-4.4167,0.0,0.0,0.0,0.0,0.0,0.0,0.0,0.0,0.0,0.0,0.0,0.0,0.0,-4.7803,-4.8243,-4.7248,-4.7351,-4.7381,-4.7309,-4.7249,-4.7219,-4.7219,-4.716,-4.6815,-4.619,-4.613,-4.5427,-4.4317,0.0,0.0,0.0,-4.4434,-4.4849,-4.502,-4.5869,-4.5634,-4.4812,-4.4812,-4.422,-4.3433,0.0,0.0,0.0,0.0,0.0,0.0,0.0,-3.5253,-3.4894,-3.4624,-3.3912,-3.3182,-3.2668,-3.2586,-3.2437,0.0,0.0,0.0,0.0,0.0,0.0,0.0,0.0,0.0,0.0,0.0,0.0,0.0,0.0,0.0,0.0,0.0,0.0,0.0,0.0,0.0,0.0,0.0,0.0,0.0,0.0,0.0,0.0,0.0,0.0,0.0,0.0,0.0,0.0,0.0,0.0,0.0,-4.0096,-4.0595,0.0,0.0,-4.3166,-4.4181,-4.4513,-4.4615,-4.4615,-4.4615,-4.4615,-4.4615,-4.4615,0.0,-4.4615,-4.4615,-4.4615,-4.4615,-4.4615,-4.4615,-4.4253,-4.3213,-4.3031,0.0,-4.1129,0.0,0.0,0.0,0.0,0.0,0.0,0.0,0.0,0.0,0.0,0.0,0.0,-4.9035,-4.9004,-4.7337,-4.7876,-4.7919,-4.7309,-4.7309,-4.7309,-4.7309,-4.7309,-4.7174,-4.6905,-4.6459,-4.5798,-4.4885,0.0,0.0,0.0,-4.3732,-4.3888,-4.3912,-4.4305,-4.4228,-4.3888,-4.3888,-4.363,-4.329,0.0,0.0,0.0,0.0,0.0,0.0,-3.5339,-3.4894,-3.4528,-3.4333,-3.3495,-3.2815,-3.2614,-3.2586,-3.2299,-3.1553,0.0,0.0,0.0,0.0,0.0,0.0,0.0,0.0,0.0,0.0,0.0,0.0,0.0,0.0,0.0,0.0,0.0,0.0,0.0,0.0,0.0,0.0,0.0,0.0,0.0,0.0,0.0,0.0,0.0,0.0,0.0,0.0,0.0,0.0,0.0,0.0,0.0,-4.0595,-4.1339,0.0,-4.3217,-4.4282,-4.4547,-4.4615,-4.4615,-4.4615,-4.4615,-4.4615,0.0,0.0,-4.4615,-4.4615,-4.4615,-4.4615,-4.4615,-4.4615,-4.4196,-4.2953,-4.2552,-4.1981,-4.0721,-4.1643,0.0,0.0,0.0,0.0,0.0,0.0,0.0,0.0,0.0,0.0,0.0,0.0,-4.9125,-4.7337,-4.7988,-4.803,-4.7309,-4.7309,-4.7309,-4.7309,-4.7309,-4.7309,-4.7294,-4.683,-4.6127,0.0,0.0,0.0,0.0,-4.329,-4.329,-4.329,-4.329,-4.329,-4.329,-4.329,-4.329,-4.329,0.0,0.0,0.0,0.0,0.0,0.0,0.0,-3.46,-3.4358,-3.371,-3.3582,-3.3339,-3.2668,-3.2586,-3.2299,-3.1553,0.0,0.0,0.0,0.0,0.0,0.0,0.0,0.0,0.0,0.0,0.0,-3.3608,-3.2933,0.0,0.0,0.0,0.0,0.0,0.0,0.0,0.0,0.0,0.0,0.0,0.0,0.0,0.0,0.0,0.0,0.0,0.0,0.0,0.0,0.0,0.0,0.0,0.0,-4.0595,-4.1339,-4.2066,-4.2828,-4.3606,-4.4395,-4.4615,-4.4615,-4.4615,-4.4615,-4.4615,0.0,0.0,-4.4615,-4.4615,-4.4615,-4.4615,-4.4615,-4.4615,-4.4598,-4.457,-4.3844,-4.3276,-4.3276,0.0,0.0,0.0,0.0,0.0,0.0,0.0,0.0,0.0,0.0,0.0,0.0,0.0,-4.8335,-4.7337,-4.7309,-4.7294,-4.7309,-4.7309,-4.7309,-4.7309,-4.7309,-4.7309,-4.7309,-4.7294,0.0,0.0,0.0,0.0,0.0,-4.329,-4.329,-4.329,-4.329,-4.329,-4.329,-4.329,-4.329,-4.329,0.0,0.0,0.0,0.0,0.0,0.0,0.0,-3.3547,-3.3172,-3.2933,-3.2489,-3.2076,-3.1881,-3.2299,-3.2299,-3.1553,0.0,0.0,0.0,0.0,0.0,0.0,0.0,0.0,0.0,0.0,-3.2695,-3.2922,-3.3172,-3.3391,0.0,0.0,0.0,0.0,0.0,0.0,0.0,0.0,0.0,0.0,0.0,0.0,0.0,0.0,0.0,0.0,0.0,0.0,0.0,0.0,0.0,0.0,0.0,0.0,0.0,-4.2066,-4.2828,0.0,-4.4395,-4.4615,-4.4615,-4.4615,-4.4615,-4.4615,-4.4615,0.0,-4.4615,-4.4615,-4.4615,-4.4615,-4.4615,-4.4615,-4.4224,-4.3031,-4.2583,-4.2189,0.0,0.0,0.0,0.0,0.0,0.0,0.0,0.0,0.0,0.0,0.0,0.0,0.0,0.0,-4.7609,-4.7309,-4.7309,-4.7309,-4.7309,-4.7309,-4.7309,-4.7309,-4.7309,-4.7309,-4.7294,-4.6845,0.0,0.0,0.0,0.0,0.0,-4.329,-4.329,-4.329,-4.329,-4.329,-4.329,-4.329,-4.329,-4.329,0.0,0.0,0.0,0.0,0.0,0.0,0.0,-3.3039,-3.2492,-3.2216,-3.1796,-3.1511,-3.1511,-3.191,-3.2007,-3.1539,0.0,0.0,0.0,0.0,0.0,0.0,0.0,0.0,0.0,-3.1951,-3.216,-3.216,-3.2598,-3.2826,-3.2799,-3.2367,-3.216,0.0,0.0,0.0,0.0,0.0,0.0,0.0,0.0,0.0,-3.56,0.0,0.0,0.0,0.0,0.0,0.0,0.0,0.0,0.0,0.0,0.0,0.0,0.0,-4.2405,-4.3217,-4.4327,-4.4615,-4.4615,-4.4615,-4.4615,0.0,0.0,-4.4615,-4.4615,-4.4615,-4.4615,-4.4615,-4.4615,-4.4327,-4.3873,-4.3092,-4.2141,-4.1543,0.0,0.0,0.0,0.0,0.0,0.0,0.0,0.0,0.0,0.0,0.0,0.0,0.0,0.0,-4.7309,-4.7309,-4.7309,-4.7309,-4.7309,-4.7309,-4.7309,-4.7309,-4.7055,-4.6935,-4.692,0.0,0.0,0.0,0.0,0.0,0.0,-4.329,-4.329,-4.329,-4.329,-4.329,-4.329,-4.329,-4.329,-4.329,0.0,0.0,0.0,0.0,0.0,0.0,0.0,0.0,0.0,0.0,-3.1511,-3.1511,-3.1511,-3.1511,-3.1511,0.0,0.0,0.0,0.0,0.0,0.0,0.0,0.0,0.0,0.0,-3.1511,-3.1511,-3.1511,-3.1511,-3.1511,-3.1511,-3.1511,-3.1511,-3.1511,-3.1511,0.0,0.0,0.0,0.0,0.0,0.0,0.0,0.0,0.0,0.0,0.0,0.0,0.0,0.0,0.0,0.0,0.0,0.0,0.0,0.0,0.0,0.0,0.0,0.0,-4.4564,-4.4615,-4.4615,0.0,0.0,-4.4615,-4.4615,0.0,-4.4615,-4.4615,-4.4615,-4.4615,-4.3873,-4.3562,-4.4384,-4.2363,0.0,0.0,0.0,0.0,0.0,0.0,0.0,0.0,0.0,0.0,0.0,0.0,0.0,0.0,0.0,0.0,-4.716,-4.716,-4.7189,-4.7234,-4.7189,-4.716,-4.716,-4.6546,-4.6204,-4.619,0.0,0.0,0.0,0.0,0.0,0.0,-4.329,-4.329,-4.329,-4.329,-4.329,-4.329,-4.329,-4.329,-4.329,0.0,0.0,0.0,0.0,0.0,0.0,0.0,0.0,0.0,0.0,-3.1511,-3.1511,-3.1511,-3.1511,0.0,0.0,0.0,0.0,0.0,0.0,0.0,0.0,0.0,0.0,0.0,-3.1511,-3.1511,-3.1511,-3.1511,-3.1511,-3.1511,-3.1511,-3.1511,-3.1511,-3.1511,0.0,0.0,0.0,0.0,0.0,0.0,0.0,0.0,0.0,0.0,0.0,-3.7415,-3.8024,0.0,0.0,0.0,0.0,0.0,0.0,0.0,0.0,-4.1322,-4.1779,-4.3284,0.0,-4.4615,-4.4615,-4.4615,-4.4615,0.0,-4.4615,-4.4615,-4.4615,-4.4615,-4.4615,-4.4615,-4.3873,-4.3366,-4.3562,0.0,0.0,0.0,0.0,0.0,0.0,0.0,0.0,0.0,0.0,0.0,0.0,0.0,0.0,0.0,0.0,0.0,-4.5768,-4.5768,-4.6022,-4.6546,-4.6037,-4.5768,-4.5768,-4.5603,-4.5544,-4.5514,0.0,0.0,0.0,0.0,0.0,0.0,-4.329,-4.329,-4.329,-4.329,-4.329,-4.329,-4.329,-4.329,-4.329,0.0,0.0,0.0,0.0,0.0,0.0,0.0,0.0,0.0,0.0,0.0,0.0,0.0,0.0,0.0,0.0,0.0,0.0,0.0,0.0,0.0,0.0,0.0,0.0,-3.1511,-3.1511,-3.1511,-3.1511,-3.1511,-3.1511,-3.1511,-3.1511,-3.1511,-3.1511,-3.1511,-3.2104,0.0,0.0,0.0,0.0,0.0,0.0,0.0,0.0,0.0,0.0,-3.7364,-3.7905,0.0,-3.9605,-4.0096,-4.0096,0.0,0.0,0.0,0.0,-4.0933,-4.1457,-4.2591,-4.3453,-4.413,-4.4513,-4.4615,-4.4615,-4.4615,-4.4615,-4.4615,-4.4615,-4.4615,-4.4615,-4.4615,-4.3545,0.0,0.0,0.0,0.0,0.0,0.0,0.0,0.0,0.0,0.0,0.0,0.0,0.0,0.0,0.0,0.0,0.0,0.0,0.0,0.0,-4.6085,-4.607,-4.5843,-4.5484,-4.5289,-4.5289,-4.499,-4.484,-4.4825,0.0,0.0,0.0,0.0,0.0,-4.329,-4.329,-4.329,-4.329,-4.329,-4.329,-4.329,-4.329,-4.329,-4.329,0.0,0.0,0.0,0.0,0.0,0.0,0.0,0.0,0.0,0.0,0.0,0.0,0.0,0.0,0.0,0.0,0.0,0.0,0.0,0.0,0.0,0.0,0.0,-3.1511,-3.1511,-3.1511,-3.1511,-3.1511,-3.1511,-3.1511,-3.1511,-3.1511,-3.1511,-3.1511,-3.1511,-3.191,0.0,0.0,0.0,0.0,-3.5184,0.0,0.0,0.0,0.0,0.0,0.0,0.0,0.0,-3.9462,-4.0011,-4.0096,-4.0096,0.0,0.0,0.0,0.0,0.0,-4.1931,-4.2591,-4.3318,-4.4333,-4.4615,-4.4615,-4.4615,-4.4615,-4.4615,-4.4615,0.0,0.0,0.0,-4.3061,0.0,0.0,0.0,0.0,0.0,0.0,0.0,0.0,0.0,0.0,0.0,0.0,0.0,0.0,0.0,0.0,0.0,0.0,0.0,0.0,-4.6685,-4.6391,-4.5435,-4.5303,-4.5154,-4.499,-4.4436,-4.4167,-4.4152,-4.3544,0.0,0.0,0.0,0.0,-4.329,-4.329,-4.329,-4.329,-4.329,-4.329,-4.329,-4.329,-4.329,-4.329,0.0,0.0,0.0,0.0,0.0,0.0,0.0,0.0,0.0,0.0,0.0,0.0,0.0,0.0,0.0,0.0,0.0,0.0,0.0,0.0,0.0,0.0,-3.1511,-3.1511,-3.1511,-3.1511,-3.1511,-3.1511,-3.1511,-3.1511,-3.1511,-3.1511,-3.1511,-3.1511,-3.1511,-3.191,-3.2629,-3.2722,-3.3145,-3.3811,0.0,0.0,0.0,0.0,0.0,0.0,0.0,0.0,0.0,-3.887,-3.9588,-4.0096,-4.0096,0.0,0.0,0.0,0.0,0.0,-4.117,-4.1457,-4.2033,-4.4107,-4.4615,-4.4615,-4.4615,-4.4615,-4.4615,-4.4615,0.0,0.0,0.0,-4.2567,0.0,0.0,0.0,0.0,0.0,0.0,0.0,0.0,0.0,0.0,0.0,0.0,0.0,0.0,0.0,0.0,0.0,0.0,0.0,0.0,0.0,-4.5467,-4.6063,-4.5279,-4.4449,-4.3589,-4.3484,-4.3439,-4.3439,-4.3349,-4.329,0.0,0.0,0.0,-4.329,-4.329,-4.329,-4.329,-4.329,-4.329,-4.329,-4.329,-4.329,-4.329,0.0,0.0,0.0,0.0,0.0,0.0,0.0,0.0,0.0,0.0,0.0,0.0,0.0,0.0,0.0,0.0,0.0,0.0,0.0,0.0,0.0,-3.1511,-3.1511,-3.1511,-3.1511,-3.1511,-3.1511,-3.1511,-3.1511,-3.1511,-3.1511,-3.1511,-3.1511,-3.1511,-3.1511,-3.191,-3.2586,-3.2586,-3.3198,-3.4161,0.0,0.0,0.0,0.0,0.0,0.0,0.0,0.0,0.0,0.0,-3.9503,-4.0096,-4.0096,0.0,0.0,0.0,0.0,0.0,-4.1001,-4.1204,-4.1644,-4.3487,-4.3944,-4.4062,-4.4513,-4.4615,-4.4615,-4.4615,0.0,0.0,0.0,0.0,0.0,0.0,0.0,0.0,0.0,0.0,0.0,0.0,0.0,0.0,0.0,0.0,0.0,0.0,0.0,0.0,0.0,0.0,0.0,0.0,0.0,0.0,-4.6952,-4.6012,-4.5064,-4.4105,-4.3551,-4.329,-4.329,-4.329,-4.329,0.0,0.0,-4.329,-4.329,-4.329,-4.329,-4.329,-4.329,-4.329,-4.329,-4.329,-4.329,-4.329,0.0,0.0,0.0,0.0,0.0,0.0,0.0,0.0,0.0,0.0,0.0,0.0,0.0,0.0,0.0,0.0,0.0,0.0,0.0,0.0,-3.1511,-3.1511,-3.1511,-3.1511,-3.1511,-3.1511,-3.1511,-3.1511,-3.1511,-3.1511,-3.1511,-3.1511,-3.1511,-3.1511,-3.1511,-3.1824,-3.2355,-3.2547,-3.3182,-3.4161,0.0,0.0,0.0,0.0,0.0,0.0,0.0,0.0,0.0,0.0,0.0,0.0,0.0,0.0,0.0,-4.0096,-4.0096,-4.0231,-4.0781,-4.0933,-4.1305,-4.2777,-4.3257,-4.3567,-4.4158,-4.4298,-4.4224,-4.4018,0.0,0.0,0.0,0.0,0.0,0.0,0.0,0.0,0.0,0.0,0.0,0.0,0.0,0.0,0.0,0.0,0.0,0.0,0.0,0.0,0.0,0.0,0.0,0.0,0.0,0.0,-4.7933,-4.6781,-4.5742,-4.4774,-4.3771,-4.329,-4.329,-4.329,-4.329,-4.329,-4.329,-4.329,-4.329,-4.329,-4.329,-4.329,-4.329,-4.329,-4.329,-4.329,-4.329,-4.329,0.0,0.0,0.0,0.0,0.0,0.0,0.0,0.0,0.0,0.0,0.0,0.0,0.0,0.0,0.0,0.0,0.0,0.0,0.0,0.0,-3.1511,-3.1511,-3.1511,-3.1511,-3.1511,-3.1511,-3.1511,-3.1511,-3.1511,-3.1511,-3.1511,-3.1511,-3.1511,-3.1511,-3.1511,-3.1524,-3.1611,-3.2299,-3.2641,-3.2841,-3.4112,0.0,0.0,0.0,0.0,0.0,0.0,0.0,0.0,0.0,0.0,0.0,0.0,0.0,-4.0096,-4.0096,-4.0096,-4.0113,-4.0163,-4.018,-4.0536,-4.1999,-4.2895,-4.3412,-4.338,-4.3396,-4.3169,-4.2347,0.0,0.0,0.0,0.0,0.0,0.0,0.0,0.0,0.0,0.0,0.0,0.0,0.0,0.0,0.0,0.0,0.0,0.0,0.0,0.0,0.0,0.0,0.0,0.0,0.0,0.0,-4.8892,-4.7088,-4.5742,-4.4774,-4.3771,-4.329,-4.329,-4.329,-4.329,-4.329,-4.329,-4.329,-4.329,-4.329,-4.329,-4.329,-4.329,-4.329,-4.329,-4.329,-4.329,-4.329,0.0,0.0,0.0,0.0,0.0,0.0,0.0,0.0,0.0,0.0,0.0,0.0,0.0,0.0,0.0,0.0,0.0,0.0,0.0,0.0,-3.1511,-3.1511,-3.1511,-3.1511,-3.1511,-3.1511,-3.1511,-3.1511,-3.1511,-3.1511,-3.1511,-3.1511,-3.1511,-3.1511,-3.1511,-3.1511,-3.1511,-3.1796,-3.2422,-3.3261,-3.3761,-3.4471,0.0,0.0,0.0,0.0,0.0,0.0,0.0,0.0,-3.887,-4.0096,-4.0096,-4.0096,-4.0096,-4.0096,-4.0096,-4.0096,-4.0096,-3.9731,-3.9714,-4.1235,-4.1476,-4.1693,-4.2987,-4.3306,-4.3047,-4.2189,-4.1313,0.0,0.0,0.0,0.0,0.0,0.0,0.0,0.0,0.0,0.0,0.0,0.0,0.0,0.0,0.0,0.0,0.0,0.0,0.0,0.0,0.0,0.0,0.0,0.0,0.0,0.0,-4.6276,-4.5153,-4.4774,-4.3771,-4.329,-4.329,-4.329,-4.329,-4.329,-4.329,-4.329,-4.329,-4.329,-4.329,-4.329,-4.329,-4.329,-4.329,-4.329,-4.329,-4.329,0.0,0.0,0.0,0.0,0.0,0.0,0.0,0.0,0.0,0.0,0.0,0.0,0.0,0.0,0.0,0.0,0.0,0.0,0.0,-3.1511,-3.1511,-3.1511,-3.1511,-3.1511,-3.1511,-3.1511,-3.1511,-3.1511,-3.1511,-3.1511,-3.1511,-3.1511,-3.1511,-3.1511,-3.1511,-3.1511,-3.1511,-3.1739,-3.2516,-3.3582,-3.3582,-3.4399,0.0,0.0,0.0,0.0,0.0,0.0,0.0,0.0,-3.887,-4.0096,-4.0096,-4.0096,-4.0096,-4.0096,-4.0096,-4.0096,-4.0096,-3.9705,-3.9578,-4.0871,-4.0652,-4.0473,-4.1907,-4.2388,-4.2228,-4.1081,-4.0551,-4.0115,-3.9517,0.0,0.0,0.0,0.0,0.0,0.0,0.0,0.0,0.0,0.0,0.0,0.0,0.0,0.0,0.0,0.0,0.0,0.0,0.0,0.0,0.0,0.0,0.0,0.0,-4.5577,-4.4812,-4.4774,-4.3771,-4.329,-4.329,-4.329,-4.329,-4.329,-4.329,-4.329,-4.329,-4.329,-4.329,-4.329,-4.329,-4.329,-4.329,-4.329,-4.329,-4.329,0.0,0.0,0.0,0.0,0.0,0.0,0.0,0.0,0.0,0.0,0.0,0.0,0.0,0.0,0.0,0.0,0.0,0.0,-3.1511,-3.1496,-3.1511,-3.1511,-3.1496,-3.1511,-3.1511,-3.1511,-3.1511,-3.1511,-3.1511,-3.1511,-3.1511,-3.1511,-3.1511,-3.1511,-3.1511,-3.1511,-3.1553,-3.2272,-3.2986,-3.3582,-3.3582,-3.4399,-3.5515,0.0,0.0,0.0,0.0,0.0,0.0,0.0,-3.887,-4.0096,-4.0096,-4.0096,-4.0096,-4.0096,-4.0096,-4.0096,-4.0096,-4.007,-4.0257,-4.1001,0.0,0.0,-3.9921,-4.0415,-4.0434,-3.8761,-3.8931,-3.9373,-3.9388,0.0,0.0,0.0,0.0,0.0,0.0,0.0,0.0,0.0,0.0,0.0,0.0,0.0,0.0,0.0,0.0,0.0,0.0,0.0,0.0,0.0,0.0,0.0,0.0,-4.5248,-4.4774,-4.4774,-4.3786,-4.329,-4.329,-4.329,-4.329,-4.329,-4.329,-4.329,-4.329,-4.329,-4.329,-4.329,-4.329,-4.329,-4.329,-4.329,-4.329,-4.329,0.0,0.0,0.0,0.0,0.0,0.0,0.0,0.0,0.0,0.0,0.0,0.0,0.0,0.0,0.0,0.0,0.0,0.0,-3.2244,-3.1796,-3.1739,-3.2244,-3.1768,-3.1511,-3.1511,-3.1511,-3.1511,-3.1511,-3.1511,-3.1511,-3.1511,-3.1511,-3.1511,-3.1511,-3.1511,-3.1511,-3.1496,-3.1739,-3.2244,-3.2895,-3.2895,-3.3684,-3.4871,0.0,0.0,0.0,0.0,0.0,0.0,0.0,0.0,0.0,-4.0096,-4.0096,-4.0096,-4.0096,-4.0096,-4.0096,-4.0096,-3.9305,0.0,-4.0094,0.0,0.0,0.0,-3.9281,0.0,0.0,-3.8901,-3.8841,-3.9334,0.0,0.0,0.0,0.0,0.0,0.0,0.0,0.0,0.0,0.0,0.0,0.0,0.0,0.0,0.0,0.0,0.0,0.0,0.0,0.0,0.0,0.0,0.0,0.0,0.0,-4.3732,-4.3732,-4.3433,-4.329,-4.329,-4.329,-4.329,-4.329,-4.329,-4.329,-4.329,-4.329,-4.329,-4.329,-4.329,-4.329,-4.329,-4.329,-4.329,-4.323,0.0,0.0,0.0,0.0,0.0,0.0,0.0,0.0,0.0,0.0,0.0,0.0,0.0,0.0,0.0,0.0,0.0,0.0,0.0,0.0,-3.2148,-3.2574,-3.1894,-3.1511,-3.1511,-3.1511,-3.1511,-3.1511,-3.1511,-3.1511,-3.1511,-3.1511,-3.1511,-3.1511,-3.1511,-3.1511,-3.1524,-3.1824,-3.2188,-3.2586,-3.2586,-3.3235,-3.4211,0.0,0.0,0.0,0.0,0.0,0.0,0.0,0.0,0.0,-4.0096,-4.0096,-4.0045,-3.9731,-3.9833,-3.9969,-3.9358,-3.8941,0.0,-3.9119,-3.8133,-3.7103,-3.7264,0.0,0.0,0.0,0.0,0.0,0.0,0.0,0.0,0.0,0.0,0.0,0.0,0.0,0.0,0.0,0.0,0.0,0.0,0.0,0.0,0.0,0.0,0.0,0.0,0.0,0.0,0.0,0.0,0.0,0.0,0.0,0.0,-4.2551,-4.2551,-4.2551,-4.2566,-4.305,-4.329,-4.329,-4.329,-4.329,-4.329,-4.329,-4.329,-4.329,-4.329,-4.329,-4.329,-4.329,-4.3125,-4.2895,0.0,0.0,0.0,0.0,0.0,0.0,0.0,0.0,0.0,0.0,-3.464,0.0,0.0,0.0,0.0,0.0,0.0,0.0,0.0,0.0,-3.2586,-3.2586,-3.1894,-3.1511,-3.1511,-3.1511,-3.1511,-3.1511,-3.1511,-3.1511,-3.1511,-3.1511,-3.1511,-3.1511,-3.1511,-3.1511,-3.1524,-3.2216,-3.2492,-3.2492,-3.2492,-3.2933,-3.3582,-3.3582,0.0,0.0,0.0,0.0,0.0,0.0,0.0,0.0,-4.0096,-4.0096,-3.9952,-3.9219,-3.9516,-3.9782,-3.829,-3.8914,-3.9653,-3.8149,-3.7748,0.0,-3.6617,-3.6402,-3.6761,-3.8048,0.0,0.0,0.0,0.0,0.0,0.0,0.0,0.0,0.0,0.0,0.0,0.0,0.0,0.0,0.0,0.0,0.0,0.0,0.0,0.0,0.0,0.0,0.0,0.0,0.0,0.0,0.0,0.0,0.0,0.0,-4.1422,-4.1422,-4.1429,-4.2611,-4.3125,-4.3125,-4.3125,-4.314,-4.32,-4.32,-4.32,-4.32,-4.32,-4.317,-4.3125,-4.3125,-4.2776,-4.2306,0.0,0.0,0.0,0.0,0.0,0.0,0.0,0.0,0.0,0.0,0.0,0.0,0.0,0.0,0.0,0.0,0.0,0.0,0.0,0.0,-3.2586,-3.2586,-3.1894,-3.1511,-3.1511,-3.1511,-3.1511,-3.1511,-3.1511,-3.1511,-3.1511,-3.1511,-3.1511,-3.1511,-3.1511,-3.1511,-3.1511,-3.1668,-3.1754,-3.1754,-3.1754,-3.2489,-3.3582,-3.3582,-3.435,0.0,0.0,0.0,0.0,0.0,0.0,0.0,-4.0096,-4.0096,-4.007,-3.9901,-3.9952,-3.9901,-3.8924,-3.8924,0.0,0.0,-3.7338,-3.6677,-3.5881,-3.5714,-3.6088,0.0,0.0,0.0,0.0,0.0,0.0,0.0,0.0,0.0,0.0,0.0,0.0,0.0,0.0,0.0,0.0,0.0,0.0,0.0,0.0,0.0,0.0,0.0,0.0,0.0,0.0,0.0,-4.1422,-4.1596,-4.1596,0.0,-4.1422,-4.1422,-4.1384,-4.1669,-4.1803,-4.1803,-4.1803,-4.2087,-4.2605,-4.2605,-4.2605,-4.2605,-4.2605,-4.2252,-4.1803,-4.1803,-4.1713,-4.1557,0.0,0.0,0.0,0.0,0.0,0.0,0.0,0.0,0.0,0.0,0.0,0.0,0.0,0.0,0.0,0.0,0.0,0.0,0.0,0.0,0.0,-3.2092,-3.1726,-3.1511,-3.1511,-3.1511,-3.1511,-3.1511,-3.1511,-3.1511,-3.1511,-3.1511,-3.1511,-3.1511,-3.1511,-3.1511,-3.1511,-3.1511,-3.1511,-3.1524,-3.1881,-3.2256,-3.2664,-3.3323,-3.3811,-3.4202,-3.4536,0.0,0.0,0.0,0.0,0.0,0.0,0.0,-4.002,-3.9636,-3.9516,-3.9289,-3.8101,0.0,0.0,-3.7978,0.0,-3.5975,-3.5587,-3.5504,0.0,0.0,0.0,0.0,0.0,0.0,0.0,0.0,0.0,0.0,0.0,0.0,0.0,0.0,0.0,0.0,0.0,0.0,0.0,0.0,0.0,0.0,0.0,0.0,0.0,0.0,0.0,0.0,-4.0442,-4.0873,-4.0873,-4.0442,-4.0442,-4.0442,-4.0457,-4.11,-4.1422,-4.1422,-4.1422,-4.1617,-4.1931,-4.1931,-4.1931,-4.1931,-4.1931,-4.1722,-4.1422,-4.1422,-4.119,-4.0861,0.0,0.0,0.0,0.0,0.0,0.0,0.0,0.0,0.0,0.0,0.0,0.0,0.0,0.0,0.0,0.0,0.0,0.0,0.0,0.0,0.0,-3.1553,-3.1511,-3.1511,-3.1511,-3.1511,-3.1511,-3.1511,-3.1511,-3.1511,-3.1511,-3.1511,-3.1511,-3.1511,-3.1511,-3.1511,-3.1511,-3.1511,-3.1511,-3.1553,-3.216,-3.212,-3.1824,-3.2971,-3.3145,-3.2868,-3.3531,-3.5073,-3.681,-3.6785,0.0,0.0,0.0,0.0,-3.9756,-3.9113,-3.8908,-3.8564,-3.7008,0.0,-3.837,-3.7748,-3.6615,0.0,-3.5537,-3.5504,0.0,0.0,0.0,0.0,0.0,0.0,0.0,0.0,0.0,0.0,0.0,0.0,0.0,0.0,0.0,0.0,0.0,0.0,0.0,0.0,0.0,0.0,0.0,0.0,0.0,0.0,0.0,-4.0115,-3.9424,-4.0115,-4.0115,-3.9388,-3.9388,-3.9388,-3.9454,-4.0546,-4.104,-4.104,-4.104,-4.1115,-4.1205,-4.1205,-4.1205,-4.1205,-4.1205,-4.1145,-4.104,-4.104,-4.0696,-4.0232,0.0,0.0,0.0,0.0,0.0,0.0,0.0,0.0,0.0,0.0,0.0,0.0,0.0,0.0,0.0,0.0,0.0,0.0,-3.3786,0.0,0.0,-3.1511,-3.1511,-3.1511,-3.1511,-3.1511,-3.1511,-3.1511,-3.1511,-3.1511,-3.1511,-3.1511,-3.1511,-3.1511,-3.1511,-3.1511,-3.1511,-3.1511,-3.1511,-3.1511,-3.1611,-3.1951,-3.2449,-3.2668,-3.3039,-3.3556,-3.4235,-3.5473,-3.6785,-3.6724,-3.822,0.0,0.0,0.0,-3.9059,-3.8935,-3.8908,-3.8564,-3.7008,0.0,-3.6873,0.0,-3.6615,-3.6275,0.0,0.0,0.0,0.0,0.0,0.0,0.0,0.0,0.0,0.0,0.0,0.0,0.0,0.0,0.0,0.0,0.0,0.0,0.0,0.0,0.0,0.0,0.0,0.0,0.0,0.0,-3.9388,-3.9388,-3.9502,0.0,-3.9388,-3.9517,-3.9517,-3.9388,-3.9388,-3.9388,-3.9424,-3.9604,-3.9679,-3.9679,-3.9679,-4.0008,-4.0531,-4.0531,-4.0531,-4.0531,-4.0531,-4.0187,-3.9679,-3.9679,-3.9634,-3.9508,0.0,0.0,0.0,0.0,0.0,0.0,0.0,0.0,0.0,0.0,0.0,0.0,0.0,0.0,0.0,-3.5075,-3.4759,-3.4161,-3.3119,-3.2076,-3.1511,-3.1511,-3.1511,-3.1511,-3.1511,-3.1511,-3.1511,-3.1511,-3.1511,-3.1511,-3.1511,-3.1511,-3.1511,-3.1511,-3.1511,-3.1511,-3.1511,-3.1511,-3.1511,-3.1539,-3.1951,-3.2064,-3.2035,-3.2437,-3.2532,-3.2516,-3.3235,-3.4159,-3.5257,-3.6355,-3.7733,-3.9014,-3.9441,0.0,0.0,0.0,-3.8286,-3.7467,-3.6783,-3.6615,-3.6615,0.0,-3.6615,-3.6415,-3.5668,0.0,0.0,0.0,0.0,0.0,0.0,0.0,0.0,0.0,0.0,0.0,0.0,0.0,0.0,0.0,0.0,0.0,0.0,0.0,0.0,0.0,0.0,0.0,0.0,-3.9388,-3.9388,-3.9388,-3.9388,0.0,-3.9388,-3.9388,-3.9388,-3.9388,-3.9388,-3.9388,-3.9388,-3.9388,-3.9388,-3.9388,-3.9388,-3.9589,-3.9843,-3.9843,-3.9843,-3.9843,-3.9843,-3.9679,-3.9388,-3.9388,-3.9388,-3.9388,0.0,0.0,0.0,0.0,0.0,0.0,0.0,0.0,0.0,0.0,0.0,0.0,0.0,0.0,0.0,0.0,-3.4284,-3.3582,-3.241,-3.1796,-3.1511,-3.1511,-3.1511,-3.1511,-3.1511,-3.1511,-3.1511,-3.1511,-3.1511,-3.1511,-3.1511,-3.1511,-3.1511,-3.1511,-3.1511,-3.1511,-3.1511,-3.1511,-3.1511,-3.1553,-3.2092,-3.1979,-3.1553,-3.212,-3.1979,-3.1582,-3.2327,-3.3075,-3.4006,-3.5876,-3.7183,-3.8193,-3.9211,-3.9102,0.0,0.0,0.0,-3.6353,0.0,0.0,-3.6615,-3.6615,-3.6615,-3.6477,0.0,0.0,0.0,0.0,0.0,0.0,0.0,0.0,0.0,0.0,0.0,0.0,0.0,0.0,0.0,0.0,0.0,0.0,0.0,0.0,0.0,0.0,0.0,0.0,-3.9388,-3.9388,-3.9388,-3.9388,-3.9388,-3.9388,-3.9388,-3.9388,-3.9388,-3.9388,-3.9388,-3.9388,-3.9388,-3.9388,-3.9388,-3.9388,-3.9388,-3.9388,-3.9388,-3.9388,-3.9388,-3.9388,-3.9388,-3.9388,-3.9388,-3.9388,-3.9388,-3.9388,0.0,0.0,0.0,0.0,0.0,0.0,0.0,0.0,0.0,0.0,0.0,0.0,-3.56,-3.5012,-3.464,-3.46,-3.3443,-3.2382,-3.1611,-3.1524,-3.1511,-3.1511,-3.1511,0.0,-3.1511,-3.1511,-3.1511,-3.1511,-3.1511,-3.1511,-3.1511,-3.1511,-3.1511,-3.1511,-3.1511,-3.1511,-3.1511,-3.1511,-3.1511,-3.1511,-3.1524,-3.1524,-3.1496,-3.1524,-3.1524,-3.1582,-3.2327,-3.3075,-3.3895,-3.5291,-3.6761,-3.7992,-3.7939,-3.7892,-3.7719,0.0,0.0,0.0,0.0,-3.6615,0.0,-3.6615,-3.6615,0.0,0.0,0.0,0.0,0.0,0.0,0.0,0.0,0.0,0.0,0.0,0.0,0.0,0.0,0.0,0.0,0.0,0.0,0.0,0.0,0.0,0.0,0.0,0.0,0.0,-3.9388,-3.9388,-3.9388,-3.9388,-3.9388,-3.9388,-3.9388,-3.9388,-3.9388,-3.9388,-3.9388,-3.9388,-3.9388,-3.9388,-3.9388,-3.9388,-3.9388,-3.9388,-3.9388,-3.9388,-3.9388,-3.9388,-3.9388,-3.9388,-3.9388,-3.9388,-3.9388,-3.9388,0.0,0.0,0.0,0.0,0.0,0.0,0.0,0.0,0.0,0.0,0.0,0.0,0.0,-3.5385,-3.4894,-3.4037,-3.2691,-3.1768,-3.1511,-3.1511,-3.1511,-3.1511,-3.1511,-3.1511,-3.1511,-3.1511,-3.1511,-3.1511,-3.1511,-3.1511,-3.1511,-3.1511,-3.1511,-3.1511,-3.1511,-3.1511,-3.1511,-3.1511,-3.1511,-3.1511,-3.1511,-3.1511,-3.1511,-3.1511,-3.1511,0.0,0.0,0.0,0.0,-3.4449,-3.5436,-3.6027,-3.691,-3.7105,-3.6889,-3.6117,-3.5701,-3.5554,0.0,0.0,0.0,-3.6006,-3.6646,0.0,0.0,0.0,0.0,0.0,0.0,0.0,0.0,0.0,0.0,0.0,0.0,0.0,0.0,0.0,0.0,0.0,0.0,0.0,0.0,0.0,0.0,0.0,0.0,0.0,-3.8751,-3.9185,-3.9388,-3.9388,-3.9388,-3.9388,-3.9388,-3.9388,-3.9388,-3.9388,-3.9388,-3.9388,-3.9388,-3.9388,-3.9388,-3.9388,-3.9388,-3.9388,-3.9388,-3.9388,-3.9388,-3.9388,-3.9388,-3.9388,-3.9388,-3.9388,-3.9388,-3.9388,0.0,0.0,0.0,0.0,0.0,0.0,0.0,0.0,0.0,0.0,0.0,0.0,0.0,0.0,-3.4374,-3.3024,-3.2048,-3.1511,-3.1511,-3.1511,-3.1511,-3.1511,-3.1511,-3.1511,-3.1511,-3.1511,-3.1511,-3.1511,-3.1511,-3.1511,-3.1511,-3.1511,-3.1511,-3.1511,-3.1511,-3.1511,-3.1511,-3.1511,0.0,-3.1511,0.0,-3.1511,-3.1511,-3.1511,0.0,0.0,0.0,0.0,0.0,0.0,0.0,0.0,-3.5966,-3.6327,-3.6134,-3.5636,-3.5504,-3.5504,-3.5504,0.0,0.0,0.0,0.0,0.0,0.0,0.0,0.0,0.0,0.0,0.0,0.0,0.0,0.0,0.0,0.0,0.0,0.0,0.0,0.0,0.0,0.0,0.0,0.0,0.0,0.0,0.0,0.0,0.0,-3.8063,-3.8497,-3.8751,-3.8751,-3.896,-3.9065,-3.9065,-3.9305,-3.9388,-3.9388,-3.9388,-3.9388,-3.9388,-3.9388,-3.9388,-3.9388,-3.9388,-3.9388,-3.9388,-3.9388,-3.9388,-3.9388,-3.9388,-3.9388,-3.9388,-3.9388,-3.9388,-3.9388,0.0,0.0,0.0,0.0,0.0,0.0,0.0,0.0,0.0,-3.56,0.0,0.0,0.0,0.0,0.0,-3.1682,-3.1524,-3.1511,-3.1511,-3.1511,-3.1511,-3.1511,-3.1511,-3.1511,-3.1511,-3.1511,-3.1511,-3.1511,-3.1511,-3.1511,-3.1511,-3.1511,-3.1511,-3.1511,-3.1511,-3.1511,-3.1511,0.0,-3.1511,-3.1511,0.0,-3.1511,-3.1511,0.0,0.0,0.0,-3.1511,-3.1511,0.0,-3.3134,0.0,0.0,0.0,0.0,-3.5474,-3.5489,-3.5504,-3.5504,0.0,0.0,0.0,0.0,0.0,0.0,0.0,0.0,0.0,0.0,0.0,0.0,0.0,0.0,0.0,0.0,0.0,0.0,0.0,0.0,0.0,0.0,0.0,0.0,0.0,0.0,0.0,0.0,0.0,-3.7443,-3.7409,-3.7389,-3.7404,-3.7404,-3.8018,-3.8362,-3.8362,-3.9035,-3.9328,-3.9328,-3.9343,-3.9394,-3.9394,-3.9373,-3.9388,-3.9388,-3.9388,-3.9388,-3.9388,-3.9388,-3.9388,-3.9388,-3.9388,-3.9388,-3.9388,-3.9388,-3.9388,-3.9388,0.0,0.0,0.0,0.0,0.0,0.0,0.0,0.0,0.0,0.0,0.0,0.0,-3.56,-3.4399,-3.3427,-3.305,-3.2104,-3.1511,-3.1511,-3.1511,-3.1511,-3.1511,-3.1511,-3.1511,-3.1511,-3.1511,-3.1511,-3.1511,-3.1511,-3.1511,-3.1511,0.0,-3.1511,-3.1511,-3.1511,-3.1511,-3.1511,-3.1511,0.0,-3.1511,-3.1511,-3.1511,0.0,0.0,0.0,0.0,0.0,-3.1511,-3.1554,0.0,-3.2443,-3.3063,0.0,0.0,-3.4861,0.0,0.0,0.0,-3.5504,0.0,0.0,0.0,0.0,0.0,0.0,0.0,0.0,0.0,0.0,0.0,0.0,0.0,0.0,0.0,0.0,0.0,0.0,0.0,0.0,0.0,0.0,0.0,0.0,0.0,0.0,0.0,0.0,-3.8169,-3.758,-3.7458,-3.7404,-3.7404,-3.7584,-3.7689,-3.7689,-3.7868,-3.7958,-3.7973,-3.8437,-3.8676,-3.8691,-3.9185,-3.9388,-3.9388,-3.9388,-3.9388,-3.9388,-3.9388,-3.9388,-3.9388,-3.9388,-3.9388,-3.9388,-3.9388,-3.9388,-3.9388,0.0,0.0,0.0,0.0,0.0,0.0,0.0,0.0,0.0,0.0,0.0,0.0,-3.5207,-3.4252,-3.3495,-3.3224,-3.216,-3.1511,-3.1511,-3.1511,-3.1511,-3.1511,-3.1511,-3.1511,-3.1511,-3.1511,-3.1511,-3.1511,-3.1511,0.0,0.0,0.0,0.0,0.0,0.0,0.0,0.0,0.0,0.0,0.0,-3.1511,0.0,0.0,-3.1511,-3.1511,0.0,0.0,0.0,-3.1511,-3.1511,-3.1944,0.0,0.0,0.0,0.0,0.0,0.0,-3.507,-3.507,-3.5295,0.0,0.0,0.0,0.0,0.0,-3.6523,0.0,0.0,0.0,0.0,0.0,0.0,0.0,0.0,0.0,0.0,0.0,0.0,0.0,0.0,0.0,0.0,0.0,0.0,0.0,0.0,-3.7371,-3.7219,-3.6761,-3.6637,-3.6611,-3.6611,-3.6881,-3.703,-3.703,-3.7285,-3.7404,-3.7404,-3.7808,-3.7973,-3.8003,-3.8392,-3.8736,-3.899,-3.899,-3.9155,-3.9388,-3.9388,-3.9388,-3.9388,-3.9388,-3.9388,-3.9388,-3.9388,-3.9388,-3.9388,0.0,0.0,0.0,0.0,0.0,0.0,0.0,0.0,0.0,0.0,-3.56,-3.5339,-3.4688,-3.4012,-3.3339,-3.2668,-3.1938,-3.1511,-3.1511,-3.1511,-3.1511,-3.1511,-3.1511,-3.1511,-3.1511,-3.1511,-3.1511,-3.1511,0.0,0.0,0.0,0.0,0.0,0.0,0.0,0.0,0.0,0.0,0.0,-3.1511,-3.1511,-3.1511,0.0,0.0,-3.1553,0.0,-3.1611,-3.1653,-3.171,-3.164,-3.1972,0.0,0.0,0.0,0.0,0.0,-3.3903,-3.4399,-3.4399,-3.4816,-3.528,0.0,0.0,0.0,-3.7014,-3.6775,0.0,0.0,0.0,0.0,0.0,0.0,0.0,0.0,0.0,0.0,0.0,0.0,0.0,0.0,0.0,0.0,0.0,0.0,0.0,-3.6934,-3.6212,-3.5716,-3.5651,-3.5522,-3.5504,-3.5504,-3.6073,-3.6372,-3.6372,-3.6926,-3.7195,-3.7195,-3.727,-3.73,-3.73,-3.7375,-3.7734,-3.8287,-3.8287,-3.8631,-3.9164,-3.9239,-3.9313,-3.9388,-3.9388,-3.9388,-3.9388,-3.9388,-3.9388,-3.9388,0.0,0.0,0.0,0.0,0.0,0.0,0.0,0.0,0.0,-3.56,-3.56,-3.5339,-3.4688,-3.4012,-3.3339,-3.2668,-3.1938,-3.1511,-3.1511,-3.1511,-3.1511,-3.1511,-3.1511,-3.1511,-3.1511,-3.1511,-3.1511,-3.1511,0.0,0.0,0.0,0.0,0.0,0.0,0.0,0.0,0.0,0.0,0.0,-3.1511,-3.1511,0.0,-3.1511,-3.1511,-3.1881,-3.2382,-3.2382,-3.2734,-3.3103,0.0,-3.207,-3.1795,0.0,0.0,0.0,0.0,0.0,0.0,0.0,0.0,0.0,0.0,0.0,0.0,-3.4273,-3.4212,0.0,0.0,0.0,0.0,0.0,0.0,0.0,0.0,0.0,0.0,0.0,0.0,0.0,0.0,0.0,0.0,0.0,0.0,-3.9279,-3.9411,-3.8133,-3.7086,-3.6415,-3.5799,-3.5504,-3.5504,-3.5624,-3.5699,-3.5699,-3.5818,-3.5878,-3.5893,-3.6417,-3.6671,-3.6686,-3.718,-3.7479,-3.7599,-3.7599,-3.7674,-3.7838,-3.8377,-3.8916,-3.9388,-3.9388,-3.9388,-3.9388,-3.9388,-3.9388,-3.9388,0.0,0.0,0.0,0.0,0.0,0.0,0.0,0.0,-3.56,-3.56,-3.5316,-3.4965,-3.464,-3.371,-3.2975,-3.2614,-3.1938,-3.1511,-3.1511,-3.1511,-3.1511,-3.1511,-3.1511,-3.1511,-3.1511,-3.1511,-3.1511,-3.1511,0.0,0.0,0.0,0.0,0.0,0.0,0.0,0.0,0.0,0.0,-3.1511,-3.1511,-3.1511,0.0,-3.1511,-3.1511,-3.1966,-3.2586,-3.2586,-3.2815,-3.3039,-3.2722,-3.212,0.0,0.0,-3.1989,-3.2064,0.0,-3.2751,-3.3006,0.0,0.0,0.0,-3.3499,0.0,0.0,0.0,-3.4104,0.0,0.0,0.0,0.0,0.0,0.0,0.0,0.0,0.0,0.0,0.0,0.0,0.0,0.0,0.0,0.0,0.0,0.0,-3.7086,-3.7801,-3.7148,-3.6664,-3.6584,-3.5894,-3.5504,-3.5504,-3.5504,-3.5504,-3.5504,-3.5504,-3.5504,-3.5504,-3.5833,-3.5998,-3.6013,-3.6312,-3.6641,-3.6941,-3.6941,-3.712,-3.7434,-3.7764,-3.8108,-3.8482,-3.9119,-3.9388,-3.9388,-3.9388,-3.9388,-3.9388,-3.5481,0.0,0.0,0.0,0.0,0.0,0.0,0.0,-3.5538,-3.5407,-3.4941,-3.4503,-3.4235,-3.3235,-3.2532,-3.241,-3.1853,-3.1511,0.0,0.0,0.0,-3.1511,-3.1511,-3.1511,-3.1511,-3.1511,-3.1511,-3.1511,0.0,0.0,0.0,0.0,0.0,0.0,0.0,0.0,0.0,0.0,0.0,-3.1511,0.0,-3.1511,-3.1511,-3.1668,-3.216,-3.2815,-3.2949,-3.2895,-3.2761,-3.2641,0.0,-3.1511,-3.1511,-3.1511,0.0,0.0,0.0,0.0,0.0,0.0,0.0,0.0,0.0,-3.3292,0.0,0.0,0.0,0.0,0.0,0.0,0.0,0.0,0.0,0.0,0.0,0.0,0.0,0.0,0.0,0.0,0.0,0.0,0.0,0.0,-3.4539,-3.555,-3.5495,-3.5595,-3.5984,-3.5574,-3.531,-3.531,-3.5429,-3.5504,-3.5504,-3.5504,-3.5504,-3.5504,-3.5504,-3.5504,-3.5504,-3.5504,-3.5804,-3.6297,-3.6297,-3.6582,-3.7045,-3.718,-3.724,-3.736,-3.8556,-3.9074,-3.923,-3.923,-3.9305,-3.9388,-3.5583,-3.56,0.0,0.0,0.0,0.0,0.0,0.0,-3.5385,-3.4783,-3.4664,-3.4161,-3.296,0.0,0.0,0.0,0.0,0.0,-3.1511,0.0,-3.1511,-3.1511,-3.1511,-3.1511,-3.1511,-3.1511,-3.1511,-3.1511,0.0,0.0,0.0,0.0,0.0,0.0,-3.1511,0.0,0.0,0.0,-3.1511,0.0,-3.1511,-3.1511,0.0,-3.2231,-3.2895,-3.3556,-3.4161,-3.3987,-3.3391,0.0,-3.212,-3.1511,0.0,-3.1511,-3.1511,0.0,0.0,0.0,0.0,0.0,0.0,0.0,-3.1735,0.0,0.0,0.0,0.0,0.0,0.0,0.0,0.0,0.0,0.0,0.0,0.0,0.0,0.0,0.0,0.0,0.0,0.0,0.0,0.0,0.0,0.0,-3.5724,-3.5156,-3.4523,-3.3878,-3.4325,-3.4623,-3.4623,-3.519,-3.5504,-3.5504,-3.5504,-3.5504,-3.5504,-3.5504,-3.5504,-3.5504,-3.5504,-3.5549,-3.5609,-3.5609,-3.5654,-3.5774,-3.6357,-3.6596,-3.6656,-3.736,-3.7988,-3.8497,-3.8497,-3.8901,-3.9388,-3.56,-3.56,0.0,0.0,0.0,0.0,0.0,0.0,-3.5362,-3.4688,-3.426,-3.3659,0.0,0.0,0.0,0.0,0.0,-3.1511,0.0,0.0,-3.1511,0.0,0.0,0.0,0.0,-3.1511,-3.1511,-3.1511,-3.1511,0.0,0.0,0.0,0.0,0.0,-3.1511,0.0,-3.1511,0.0,0.0,0.0,0.0,0.0,0.0,-3.2327,-3.3029,-3.3735,-3.48,-3.4496,-3.3624,0.0,-3.3039,0.0,0.0,0.0,0.0,0.0,0.0,0.0,0.0,0.0,0.0,0.0,0.0,0.0,0.0,0.0,-3.1511,0.0,0.0,0.0,0.0,0.0,0.0,0.0,0.0,0.0,0.0,0.0,0.0,0.0,0.0,0.0,0.0,0.0,0.0,0.0,0.0,-3.4394,-3.5304,-3.4819,-3.4683,-3.5064,-3.4994,-3.51,-3.5504,-3.5504,-3.5504,-3.5504,-3.5504,-3.5504,-3.5504,-3.5504,-3.5504,-3.5504,-3.5504,-3.5504,-3.5534,-3.5804,-3.5923,-3.5938,-3.6207,-3.6926,-3.7823,-3.7823,-3.8003,-3.8257,-3.56,-3.56,0.0,0.0,0.0,0.0,0.0,0.0,0.0,0.0,0.0,0.0,-3.2394,-3.1824,0.0,0.0,-3.1511,-3.1511,0.0,0.0,-3.1511,0.0,0.0,0.0,0.0,0.0,-3.1511,-3.1511,-3.1511,-3.1511,0.0,0.0,0.0,0.0,0.0,-3.1511,-3.1511,0.0,0.0,-3.1511,-3.1511,-3.1739,-3.2117,-3.268,-3.3391,-3.4252,-3.5028,-3.4704,-3.3912,-3.4235,-3.3684,0.0,-3.3443,0.0,0.0,0.0,0.0,0.0,-3.1838,0.0,0.0,0.0,0.0,0.0,0.0,0.0,0.0,0.0,0.0,0.0,0.0,0.0,0.0,0.0,0.0,0.0,0.0,0.0,0.0,0.0,0.0,0.0,0.0,0.0,0.0,0.0,-3.3963,0.0,-3.5768,-3.5006,-3.4667,-3.4946,-3.4668,-3.4722,-3.522,-3.522,-3.5325,-3.5504,-3.5504,-3.5504,-3.5504,-3.5504,-3.5504,-3.5504,-3.5504,-3.5504,-3.5504,-3.5504,-3.5504,-3.5504,-3.5504,-3.6073,-3.6911,-3.709,-3.727,-3.7404,-3.56,-3.56,0.0,0.0,0.0,0.0,0.0,0.0,0.0,0.0,0.0,0.0,0.0,0.0,0.0,0.0,0.0,-3.1511,-3.1511,0.0,-3.1511,0.0,0.0,-3.1511,0.0,0.0,-3.1511,-3.1511,-3.1511,-3.1511,0.0,0.0,0.0,0.0,-3.1511,-3.1511,-3.1511,-3.1511,-3.1511,-3.1511,-3.1511,-3.2324,-3.3531,0.0,-3.4374,-3.547,-3.4847,0.0,0.0,-3.3836,-3.3608,0.0,0.0,0.0,0.0,0.0,0.0,0.0,0.0,0.0,0.0,-3.1697,0.0,0.0,0.0,0.0,-3.1511,0.0,0.0,0.0,0.0,0.0,-3.1511,-3.1511,0.0,0.0,0.0,0.0,0.0,0.0,0.0,0.0,0.0,0.0,0.0,0.0,-3.3018,0.0,-3.3646,-3.4276,-3.4268,-3.3581,-3.4174,-3.4513,-3.4533,-3.4533,-3.4846,-3.5504,-3.5504,-3.5504,-3.5504,-3.5504,-3.5504,-3.5504,-3.5504,-3.5504,-3.5504,-3.5504,-3.5504,-3.5504,-3.5504,-3.5534,-3.5639,-3.6282,-3.6896,-3.7404,0.0,-3.56,0.0,0.0,0.0,0.0,0.0,-3.523,0.0,0.0,0.0,0.0,0.0,0.0,-3.2035,0.0,0.0,-3.1511,-3.1511,-3.1511,0.0,0.0,0.0,-3.1511,0.0,0.0,-3.1511,-3.1511,-3.1511,-3.1511,-3.1511,-3.1511,0.0,0.0,0.0,-3.1511,0.0,0.0,0.0,0.0,0.0,-3.2076,-3.2986,0.0,0.0,-3.4981,-3.5168,-3.4965,0.0,-3.4847,-3.4616,-3.4333,-3.4776,-3.4325,-3.3684,-3.4137,-3.3962,0.0,0.0,0.0,-3.3093,-3.2394,0.0,0.0,0.0,0.0,0.0,0.0,0.0,0.0,0.0,0.0,-3.1511,-3.1511,-3.1511,-3.1511,0.0,0.0,0.0,0.0,0.0,0.0,0.0,0.0,0.0,-3.4211,-3.4062,-3.4227,0.0,-3.4726,-3.4681,-3.4884,-3.4674,-3.4554,-3.4483,-3.4927,-3.5047,-3.4831,-3.5295,-3.5504,-3.5504,-3.5504,-3.5504,-3.5504,-3.5504,-3.5504,-3.5504,-3.5504,-3.5504,-3.5504,-3.5504,-3.5504,-3.5534,-3.5744,-3.5968,-3.6148,-3.56,0.0,0.0,0.0,0.0,0.0,0.0,0.0,0.0,0.0,-3.4235,0.0,-3.2695,0.0,-3.2299,0.0,-3.1511,-3.1511,-3.1511,-3.1511,0.0,-3.1511,-3.1511,0.0,0.0,0.0,0.0,-3.1511,-3.1511,-3.1511,-3.1511,-3.1511,0.0,0.0,0.0,-3.1511,-3.1511,0.0,-3.1511,0.0,0.0,-3.2076,0.0,0.0,-3.4012,0.0,0.0,-3.5316,-3.5028,-3.5453,-3.5299,-3.5028,-3.547,-3.5005,-3.4399,-3.4823,-3.464,-3.4276,-3.4012,-3.3962,0.0,0.0,-3.2975,0.0,-3.2064,0.0,0.0,0.0,0.0,0.0,0.0,0.0,-3.1511,-3.1511,-3.1511,-3.1511,0.0,-3.1511,0.0,0.0,0.0,0.0,0.0,0.0,-3.3245,-3.4186,-3.4235,-3.464,0.0,0.0,-3.4709,-3.4886,-3.4244,-3.396,-3.4125,-3.4327,-3.4577,-3.4848,-3.5033,-3.5265,-3.5504,-3.5504,-3.5504,-3.5504,-3.5504,-3.5504,-3.5504,-3.5504,-3.5504,-3.5504,-3.5504,-3.5504,-3.5504,-3.5504,-3.5504,-3.5504,0.0,0.0,0.0,0.0,-3.56,0.0,0.0,0.0,-3.5339,0.0,-3.4624,-3.4112,-3.2841,-3.2668,-3.2355,-3.1611,-3.1524,0.0,-3.1511,-3.1511,0.0,0.0,-3.1511,-3.1511,-3.1511,0.0,0.0,0.0,0.0,-3.1511,-3.1511,-3.1511,0.0,0.0,-3.1511,0.0,-3.1511,-3.1511,-3.1524,-3.1553,-3.1553,-3.2351,-3.3556,-3.3608,0.0,-3.4624,-3.5362,-3.56,-3.56,-3.56,-3.56,-3.56,-3.56,-3.56,-3.56,-3.56,-3.56,-3.547,-3.4807,-3.4664,-3.4479,-3.3811,0.0,0.0,0.0,0.0,-3.2641,0.0,0.0,0.0,0.0,0.0,0.0,-3.1511,-3.1511,-3.1511,-3.1511,0.0,0.0,0.0,0.0,0.0,0.0,-3.1553,-3.2145,-3.3505,-3.3633,-3.4227,0.0,0.0,0.0,-3.371,-3.3039,-3.2963,-3.3485,-3.2922,-3.3546,-3.5397,-3.4833,-3.4895,-3.5504,-3.5504,-3.5504,-3.5504,-3.5504,-3.5504,-3.5504,-3.5504,-3.5504,-3.5504,-3.5504,-3.5504,-3.5504,-3.5504,-3.5504,-3.5504,-3.56,-3.56,-3.56,0.0,-3.56,-3.56,0.0,0.0,0.0,0.0,-3.4918,-3.4455,-3.4137,-3.3633,-3.3066,-3.2382,-3.1824,0.0,0.0,0.0,0.0,-3.1511,-3.1511,-3.1511,-3.1511,-3.1511,0.0,-3.1511,0.0,0.0,-3.1511,0.0,0.0,0.0,0.0,0.0,-3.1511,-3.1511,-3.1824,-3.2327,-3.2327,-3.2532,0.0,0.0,-3.4137,-3.4012,-3.5184,-3.56,-3.56,-3.56,-3.56,-3.56,-3.56,-3.56,-3.56,-3.56,-3.56,-3.556,-3.5385,-3.5339,-3.5184,-3.452,-3.4333,-3.4161,0.0,0.0,0.0,0.0,0.0,0.0,0.0,0.0,0.0,-3.1582,-3.1511,-3.1511,0.0,0.0,0.0,0.0,0.0,0.0,0.0,-3.2461,-3.3209,-3.3556,-3.4062,0.0,0.0,0.0,0.0,-3.5091,-3.4447,-3.3917,-3.3593,-3.3903,-3.4025,-3.403,-3.4836,-3.5321,-3.5504,-3.5504,-3.5504,-3.5504,-3.5504,-3.5504,-3.5504,-3.5504,-3.5504,-3.5504,-3.5504,-3.5504,-3.5504,-3.5504,-3.5504,-3.5504,-3.56,0.0,0.0,-3.56,0.0,0.0,-3.56,0.0,0.0,-3.5144,-3.5098,0.0,-3.4235,-3.4087,-3.3761,-3.3093,-3.268,0.0,0.0,0.0,0.0,-3.1979,-3.1979,-3.2104,-3.2407,-3.1809,0.0,-3.1979,0.0,0.0,-3.1511,0.0,0.0,0.0,0.0,-3.1511,0.0,-3.1511,-3.1739,-3.2148,-3.2465,0.0,0.0,-3.4087,-3.4358,-3.4161,-3.5207,-3.56,-3.56,-3.56,-3.56,-3.56,-3.56,-3.56,-3.56,-3.56,-3.56,-3.56,-3.56,-3.56,-3.5515,-3.5121,-3.5052,-3.4871,-3.4186,-3.4037,-3.4037,0.0,0.0,0.0,0.0,0.0,0.0,-3.1611,0.0,0.0,0.0,0.0,0.0,0.0,0.0,0.0,0.0,0.0,0.0,0.0,0.0,0.0,0.0,0.0,0.0,0.0,-3.4078,-3.3684,-3.3582,-3.3683,-3.3665,-3.3514,-3.4555,-3.5064,-3.507,-3.537,-3.5504,-3.5504,-3.5504,-3.5504,-3.5504,-3.5504,-3.5504,-3.5504,-3.5504,-3.5504,-3.5504,-3.5504,-3.5504,-3.5504,0.0,0.0,0.0,0.0,0.0,0.0,0.0,-3.56,0.0,-3.4807,0.0,-3.5161,-3.4003,-3.4309,-3.4358,-3.3786,0.0,-3.3365,-3.2776,-3.3261,-3.3339,-3.2776,-3.2749,-3.3013,-3.3582,-3.2407,0.0,0.0,0.0,0.0,0.0,0.0,0.0,0.0,0.0,0.0,0.0,-3.164,-3.1682,0.0,-3.2586,-3.2815,-3.2895,-3.4211,-3.4688,-3.4688,-3.5362,-3.56,-3.56,-3.56,-3.56,-3.56,-3.56,-3.56,-3.56,-3.56,-3.56,-3.56,-3.56,-3.56,-3.56,-3.56,-3.56,-3.5447,-3.4854,-3.4736,-3.4736,-3.4736,-3.426,0.0,0.0,0.0,0.0,0.0,0.0,0.0,0.0,0.0,0.0,0.0,0.0,0.0,0.0,0.0,0.0,0.0,0.0,0.0,0.0,0.0,0.0,0.0,-3.3093,0.0,-3.3582,0.0,-3.2994,-3.3519,-3.4273,-3.4633,-3.4644,-3.5222,-3.5504,-3.5504,-3.5504,-3.5504,-3.5504,-3.5504,-3.5504,-3.5504,-3.5504,-3.5504,-3.5504,-3.5619,-3.5636,-3.5651,0.0,0.0,0.0,0.0,0.0,-3.56,-3.56,-3.56,-3.5577,-3.543,-3.5515,0.0,-3.527,-3.4871,-3.4552,-3.4431,-3.3912,0.0,0.0,0.0,0.0,-3.3443,-3.3401,-3.3495,-3.3582,-3.3365,-3.3013,0.0,0.0,0.0,-3.1511,0.0,0.0,0.0,0.0,0.0,-3.241,-3.241,0.0,-3.3271,-3.3987,-3.3912,-3.3572,-3.4911,-3.5075,-3.4688,-3.5362,-3.56,-3.56,-3.56,-3.56,-3.56,-3.56,-3.56,-3.56,-3.56,-3.56,-3.56,-3.56,-3.56,-3.56,-3.56,-3.56,-3.5577,-3.5447,-3.5407,-3.5407,-3.5407,-3.5339,-3.5115,-3.4688,0.0,0.0,0.0,0.0,0.0,0.0,0.0,0.0,0.0,0.0,0.0,0.0,0.0,0.0,0.0,0.0,0.0,0.0,0.0,0.0,0.0,0.0,0.0,0.0,0.0,0.0,-3.3534,-3.4797,-3.5391,-3.5323,-3.5463,-3.5504,-3.5504,-3.5504,-3.5504,-3.5504,-3.5504,-3.5504,-3.5504,-3.5504,-3.5504,-3.5554,-3.6196,-3.6415,-3.6337,0.0,0.0,0.0,0.0,0.0,0.0,0.0,-3.56,0.0,-3.5121,-3.5385,-3.547,-3.5121,-3.5098,-3.5121,-3.5121,-3.4823,-3.4496,-3.4137,-3.4447,-3.4471,-3.4137,-3.4112,0.0,-3.4633,-3.3962,-3.3443,-3.3119,0.0,0.0,0.0,0.0,0.0,0.0,0.0,-3.2272,0.0,0.0,0.0,-3.3156,-3.4186,-3.3987,-3.3277,-3.4958,-3.4958,-3.4211,-3.523,-3.5385,-3.5121,-3.5492,-3.56,-3.56,-3.56,-3.56,-3.56,-3.56,-3.56,-3.56,-3.56,-3.56,-3.56,-3.56,-3.56,-3.56,-3.56,-3.56,-3.56,-3.56,-3.56,-3.5402,-3.4712,-3.3761,0.0,0.0,0.0,0.0,0.0,0.0,0.0,0.0,0.0,0.0,0.0,0.0,0.0,0.0,0.0,0.0,0.0,0.0,0.0,0.0,0.0,0.0,0.0,0.0,0.0,-3.3565,-3.4219,-3.4672,-3.4979,-3.4968,-3.516,-3.5504,-3.5504,-3.5504,-3.5537,-3.5911,-3.5846,-3.5602,-3.6368,-3.6446,-3.6165,-3.6919,-3.7203,-3.71,0.0,-3.56,0.0,0.0,-3.56,0.0,0.0,-3.56,-3.5407,-3.4894,-3.5276,-3.5385,-3.4871,-3.5276,-3.56,-3.56,-3.56,-3.5385,-3.4847,-3.5316,-3.5362,-3.4847,-3.4807,-3.5052,-3.56,-3.4585,-3.3962,0.0,0.0,0.0,0.0,0.0,0.0,0.0,0.0,0.0,0.0,0.0,-3.3443,-3.2922,-3.4112,-3.3887,-3.2986,-3.4728,-3.4823,-3.4161,-3.5207,-3.5253,-3.4894,-3.5407,-3.56,-3.56,-3.56,-3.56,-3.56,-3.56,-3.56,-3.56,-3.56,-3.56,-3.5577,-3.5407,-3.5492,-3.556,-3.5407,-3.5385,-3.5385,-3.5385,-3.5385,-3.523,-3.4712,-3.3836,0.0,0.0,0.0,0.0,0.0,0.0,0.0,0.0,0.0,0.0,0.0,0.0,0.0,0.0,0.0,0.0,0.0,0.0,0.0,0.0,0.0,0.0,-3.4382,0.0,-3.3582,0.0,-3.3673,-3.4085,-3.4758,-3.4744,-3.5085,-3.5733,-3.5554,-3.5587,-3.5782,-3.6538,-3.6523,-3.6116,-3.7324,-3.7427,-3.6934,-3.7732,-3.8035,-3.7933,0.0,0.0,0.0,0.0,0.0,0.0,0.0,-3.56,-3.5577,-3.5515,-3.556,-3.5577,-3.5515,-3.556,-3.56,-3.56,-3.56,-3.5577,-3.5515,-3.5577,-3.5577,-3.5515,-3.5515,-3.5554,-3.56,-3.547,-3.5115,0.0,0.0,0.0,0.0,0.0,0.0,0.0,0.0,0.0,0.0,-3.4479,-3.4112,-3.3556,-3.4309,-3.4161,-3.3582,-3.4382,-3.4988,-3.5424,-3.5538,-3.5577,-3.5515,-3.5577,-3.56,-3.56,-3.56,-3.56,-3.56,-3.56,-3.56,-3.56,-3.56,-3.56,-3.5453,-3.4847,-3.5144,-3.543,-3.483,-3.4688,-3.4688,-3.4688,-3.4688,-3.4688,-3.46,-3.5005,-3.4934,0.0,0.0,0.0,0.0,0.0,0.0,0.0,0.0,0.0,0.0,0.0,0.0,0.0,0.0,0.0,0.0,0.0,0.0,0.0,0.0,-3.3633,-3.3684,-3.3633,0.0,-3.3598,-3.4223,-3.4872,-3.5589,-3.5474,-3.5814,-3.6477,-3.5782,-3.5894,-3.6554,-3.7368,-3.7648,-3.7589,-3.7719,-3.7748,-3.7777,-3.8525,-3.8799,-3.8799,0.0,0.0,0.0,0.0,0.0,0.0,0.0,-3.56,-3.56,-3.56,-3.56,-3.56,-3.56,-3.56,-3.56,-3.56,-3.56,-3.56,-3.56,-3.56,-3.56,-3.56,-3.56,-3.56,-3.56,-3.56,-3.5276,0.0,0.0,0.0,0.0,0.0,0.0,0.0,0.0,-3.4112,-3.4624,-3.5028,-3.4823,-3.426,-3.4918,-3.48,-3.4284,-3.4941,-3.5121,-3.5052,-3.547,-3.5339,-3.5075,-3.547,-3.56,-3.56,-3.56,-3.56,-3.56,-3.56,-3.56,-3.56,-3.56,-3.56,-3.5554,-3.527,-3.5385,-3.5515,-3.5253,-3.5207,-3.5207,-3.5207,-3.4894,-3.4712,-3.5121,-3.4752,-3.4496,0.0,0.0,0.0,0.0,0.0,0.0,0.0,0.0,0.0,0.0,0.0,0.0,0.0,0.0,0.0,0.0,0.0,0.0,-3.2986,0.0,-3.4211,-3.4211,-3.4211,-3.4211,-3.4186,-3.4076,-3.4606,-3.571,-3.5621,-3.625,-3.7308,-3.6995,-3.7055,-3.7381,-3.8161,-3.8189,-3.7892,-3.8832,-3.8887,-3.8553,-3.9315,-3.961,-3.961,-3.7209,0.0,-3.66,0.0,-3.6075,-3.5783,-3.5605,-3.56,-3.56,-3.56,-3.56,-3.56,-3.56,-3.56,-3.56,-3.56,-3.56,-3.56,-3.56,-3.56,-3.56,-3.56,-3.56,0.0,-3.56,-3.56,-3.5362,-3.4894,-3.4211,0.0,0.0,0.0,0.0,0.0,-3.4382,-3.4712,-3.4918,-3.5385,-3.5207,-3.4624,-3.5121,-3.5028,-3.4664,-3.5121,-3.5121,-3.4965,-3.5447,-3.5293,-3.4981,-3.543,-3.56,-3.56,-3.56,-3.56,-3.56,-3.56,-3.56,-3.56,-3.56,-3.56,-3.5538,-3.5362,-3.5453,-3.5538,-3.5362,-3.5316,-3.5316,-3.5316,-3.4918,-3.4807,-3.547,-3.484,-3.4374,0.0,0.0,0.0,0.0,0.0,0.0,0.0,0.0,-3.4681,-3.46,0.0,0.0,0.0,0.0,0.0,0.0,0.0,0.0,0.0,0.0,0.0,0.0,0.0,-3.46,-3.4576,-3.3912,-3.4334,-3.571,-3.5876,-3.6521,-3.7456,-3.7706,-3.7921,-3.8161,-3.8951,-3.8951,-3.8569,-3.9679,-3.9756,-3.9315,-3.9901,-4.0096,-4.0096,-3.7209,-3.7192,-3.702,-3.6498,-3.6395,-3.6224,-3.5672,-3.56,-3.56,-3.56,-3.56,-3.56,-3.56,-3.56,-3.56,-3.56,-3.56,-3.56,-3.56,-3.56,-3.56,0.0,0.0,-3.56,-3.56,-3.56,-3.56,-3.56,0.0,0.0,-3.4552,0.0,0.0,-3.4576,-3.4616,-3.4965,-3.56,-3.56,-3.5207,-3.46,-3.46,-3.46,-3.46,-3.46,-3.5028,-3.56,-3.56,-3.56,-3.56,-3.56,-3.56,-3.56,-3.56,-3.56,-3.56,-3.56,-3.56,-3.56,-3.56,-3.56,-3.543,-3.4783,-3.5098,-3.5447,-3.4759,-3.46,-3.46,-3.46,-3.46,-3.4807,-3.547,-3.56,-3.5138,-3.3853,0.0,0.0,0.0,0.0,0.0,0.0,-3.3443,-3.3145,-3.4479,0.0,0.0,0.0,0.0,0.0,0.0,0.0,0.0,-3.4528,-3.4576,0.0,-3.46,-3.46,-3.46,-3.4576,-3.3912,-3.4334,-3.5715,-3.6322,-3.66,-3.6661,-3.7456,-3.8218,-3.8935,-3.9756,-4.007,-4.007,-4.0096,-4.0096,-4.007,-4.0113,-4.0096,-4.0096,-3.8218,-3.7929,-3.7632,-3.7452,-3.6865,-3.6333,-3.6182,-3.5832,-3.56,-3.56,-3.56,-3.56,-3.56,-3.56,-3.56,0.0,-3.56,-3.56,0.0,-3.56,-3.56,-3.56,-3.56,-3.56,-3.56,-3.56,-3.56,-3.56,0.0,0.0,0.0,-3.4382,-3.464,-3.5276,-3.5276,-3.5385,-3.56,-3.56,-3.547,-3.5276,-3.5276,-3.5276,-3.5276,-3.5276,-3.5407,-3.56,-3.56,-3.56,-3.56,-3.56,-3.56,-3.56,-3.56,-3.56,-3.56,-3.56,-3.56,-3.56,-3.56,-3.56,-3.5538,-3.5339,-3.543,-3.5538,-3.5339,-3.5276,-3.5276,-3.5276,-3.5276,-3.5207,-3.4965,-3.5276,-3.5316,-3.4431,0.0,0.0,0.0,0.0,0.0,0.0,0.0,-3.4816,0.0,-3.4496,0.0,0.0,0.0,0.0,0.0,0.0,0.0,0.0,-3.48,0.0,-3.46,-3.5052,-3.5052,-3.46,-3.4847,-3.574,-3.7236,-3.8441,-3.9005,-3.9005,-3.9252,-3.9506,-3.9756,-3.9978,-4.0096,-4.0096,-4.0096,-4.0096,-4.0096,-4.0096,-4.0096,-4.0096,-3.8707,-3.8433,-3.815,-3.7946,-3.7379,-3.6845,-3.6457,-3.6118,-3.5832,-3.5622,-3.56,-3.56,-3.56,-3.56,0.0,-3.56,-3.56,0.0,-3.56,-3.56,-3.56,-3.56,-3.56,-3.56,-3.56,0.0,0.0,-3.56,-3.5184,-3.4965,-3.4965,-3.4965,-3.5207,-3.56,-3.56,-3.56,-3.56,-3.56,-3.56,-3.56,-3.56,-3.56,-3.56,-3.56,-3.56,-3.56,-3.56,-3.56,-3.56,-3.56,-3.56,-3.56,-3.56,-3.56,-3.56,-3.56,-3.56,-3.56,-3.56,-3.56,-3.56,-3.56,-3.56,-3.56,-3.56,-3.56,-3.56,-3.56,-3.56,-3.547,-3.5052,-3.5316,-3.5385,-3.4712,0.0,0.0,0.0,0.0,0.0,0.0,0.0,0.0,0.0,-3.4847,0.0,0.0,0.0,0.0,0.0,0.0,0.0,-3.435,-3.5161,0.0,-3.4965,-3.5385,-3.5385,-3.4981,-3.5689,-3.6386,-3.7119,-3.8579,-3.9385,-3.9636,-3.9636,-3.9808,-4.0096,-4.0096,-4.0096,-4.0096,-4.0096,-4.0096,-4.0096,-4.0096,-4.0096,-4.0096,-3.8707,-3.8707,0.0,0.0,-3.7911,0.0,-3.6643,-3.6437,-3.6224,-3.5717,-3.5605,-3.56,-3.56,-3.56,-3.56,-3.56,0.0,0.0,0.0,-3.56,-3.56,-3.56,-3.56,0.0,-3.56,-3.56,-3.56,-3.56,-3.56,-3.56,-3.56,-3.56,-3.56,-3.56,-3.56,-3.56,-3.56,-3.56,-3.56,-3.56,-3.56,-3.56,-3.56,-3.56,-3.56,-3.56,-3.56,-3.56,-3.56,-3.56,-3.56,-3.56,-3.56,-3.56,-3.56,-3.56,-3.56,-3.56,-3.56,-3.56,-3.56,-3.56,-3.56,-3.56,-3.56,-3.56,-3.56,-3.56,-3.56,-3.56,-3.5554,-3.5577,-3.5385,-3.4712,-3.5144,-3.5385,-3.4759,0.0,0.0,0.0,0.0,0.0,0.0,-3.4688,-3.4918,0.0,0.0,0.0,0.0,0.0,0.0,-3.5577,-3.56,-3.56,-3.56,-3.5538,-3.5515,-3.5532,-3.6323,-3.6414,-3.5894,-3.7307,-3.8346,-3.8989,-3.8989,-3.9411,-4.0096,-4.0096,-4.0096,-4.0096,-4.0096,-4.0096,-4.0096,-4.0096,-4.0096,-4.0096,0.0,0.0,-3.8658,-3.853,-3.8167,-3.7825,-3.7578,-3.6904,-3.6354,-3.6224,-3.5854,-3.56,-3.56,-3.56,-3.56,-3.56,-3.56,-3.56,-3.56,-3.56,-3.56,-3.56,-3.56,-3.56,-3.56,-3.56,-3.56,-3.56,-3.56,-3.56,-3.56,-3.56,-3.56,-3.56,-3.56,-3.56,-3.56,-3.56,-3.56,-3.56,-3.56,-3.56,-3.56,-3.56,-3.56,-3.56,-3.56,-3.56,-3.56,-3.56,-3.56,-3.56,-3.56,-3.56,-3.56,-3.56,-3.56,-3.56,-3.56,-3.56,-3.56,-3.56,-3.56,-3.56,-3.56,-3.56,-3.56,-3.56,-3.56,-3.543,-3.4918,-3.5253,-3.5385,-3.4712,-3.5144,-3.5538,-3.5385,0.0,0.0,0.0,-3.5362,-3.5362,-3.5362,-3.5362,-3.5207,0.0,0.0,0.0,0.0,0.0,-3.4736,-3.5577,-3.56,-3.56,-3.56,-3.5098,-3.4847,-3.4847,-3.6158,-3.6986,-3.7427,-3.8881,-3.9653,-3.9808,-3.9808,-3.9927,-4.0096,-4.0096,-4.0096,-4.0096,-4.0096,-4.0096,-4.0096,-4.0096,-4.0096,-4.0096,-3.8707,-3.8707,-3.8707,-3.8707,-3.8465,-3.8183,-3.7946,-3.7433,-3.702,-3.6803,-3.6501,-3.6249,-3.5989,-3.5963,-3.5854,-3.5622,-3.56,-3.56,-3.56,-3.56,-3.56,-3.56,-3.56,-3.56,-3.56,-3.56,-3.56,-3.56,-3.56,-3.56,-3.56,-3.56,-3.56,-3.56,-3.56,-3.56,-3.56,-3.56,-3.56,-3.56,-3.56,-3.56,-3.56,-3.56,-3.56,-3.56,-3.56,-3.56,-3.56,-3.56,-3.56,-3.56,-3.56,-3.56,-3.56,-3.56,-3.56,-3.56,-3.56,-3.56,-3.56,-3.56,-3.56,-3.56,-3.56,-3.56,-3.56,-3.56,-3.56,-3.5492,-3.5121,-3.5362,-3.547,-3.5121,-3.5362,-3.56,-3.56,-3.56,0.0,-3.56,-3.56,-3.56,-3.56,-3.56,-3.5447,-3.5075,0.0,0.0,-3.5052,-3.5052,-3.523,-3.56,-3.56,-3.56,-3.56,-3.523,-3.5052,-3.5068,-3.6577,-3.7524,-3.7956,-3.9436,-4.0096,-4.0096,-4.0096,-4.0096,-4.0096,-4.0096,-4.0096,-4.0096,-4.0096,-4.0096,-4.0096,-4.0096,-4.0096,-4.0096,-3.8707,-3.8707,-3.8707,-3.8707,-3.8707,-3.8546,-3.8082,-3.7946,-3.7755,-3.736,-3.7229,-3.7038,-3.658,-3.6519,-3.6291,-3.5783,-3.5717,-3.5689,-3.56,-3.56,-3.56,-3.56,-3.56,-3.56,-3.56,-3.56,-3.56,-3.56,-3.56,-3.56,-3.56,-3.56,-3.56,-3.56,-3.56,-3.56,-3.56,-3.56,-3.56,-3.56,-3.56,-3.56,-3.56,-3.56,-3.56,-3.56,-3.56,-3.56,-3.56,-3.56,-3.56,-3.56,-3.56,-3.56,-3.56,-3.56,-3.56,-3.56,-3.56,-3.56,-3.56,-3.56,-3.56,-3.56,-3.56,-3.56,-3.56,-3.56,-3.56,-3.56,-3.56,-3.56,-3.5577,-3.547,-3.5538,-3.556,-3.547,0.0,-3.56,-3.56,-3.56,-3.56,-3.56,-3.56,-3.56,-3.56,-3.56,0.0,0.0,-3.56,-3.56,-3.56,-3.56,-3.5538,-3.5447,-3.5447,-3.5447,-3.5464,-3.7003,-3.7793,-3.7956,-3.9436,-4.0096,-4.0096,-4.0096,-4.0096,-4.0096,-4.0096,-4.0096,-4.0096,-4.0096,-4.0096,-4.0096,-4.0096,-4.0096,-4.0096,-3.8707,-3.8707,-3.8707,-3.8707,-3.8707,-3.8658,-3.8578,-3.8183,-3.7859,-3.779,-3.7451,-3.7171,-3.7078,-3.7095,-3.6862,-3.6312,-3.6287,-3.6075,-3.5644,-3.56,-3.56,-3.56,-3.56,-3.56,-3.56,-3.56,-3.56,-3.56,-3.56,-3.56,-3.56,-3.56,-3.56,-3.56,-3.56,-3.56,-3.56,-3.56,-3.56,-3.56,-3.56,-3.56,-3.56,-3.56,-3.56,-3.56,-3.56,-3.56,-3.56,-3.56,-3.56,-3.56,-3.56,-3.56,-3.56,-3.56,-3.56,-3.56,-3.56,-3.56,-3.56,-3.56,-3.56,-3.56,-3.56,-3.56,-3.56,-3.56,-3.56,-3.56,-3.56,-3.56,-3.5407,-3.4847,-3.523,-3.5385,0.0,0.0,-3.56,-3.56,-3.56,-3.56,-3.56,-3.56,-3.56,-3.56,-3.56,-3.56,-3.56,-3.56,-3.56,-3.56,-3.56,-3.5339,-3.4759,-3.4759,-3.4759,-3.4776,-3.6257,-3.7294,-3.7956,-3.9436,-4.0096,-4.0096,-4.0096,-4.0096,-4.0096,-4.0096,-4.0096,-4.0096,-4.0096,-4.0096,-4.0096,-4.0096,-4.0096,-4.0096,-3.8707,-3.8707,-3.8707,-3.8707,-3.8707,-3.8707,-3.8707,-3.8481,-3.8316,-3.8316,-3.8133,-3.7895,-3.7596,-3.7578,-3.7378,-3.6865,-3.6843,-3.6603,-3.6071,-3.5761,-3.56,-3.56,-3.56,-3.56,-3.56,-3.56,-3.56,-3.56,-3.56,-3.56,-3.56,-3.56,-3.56,-3.56,-3.56,-3.56,-3.56,-3.56,-3.56,-3.56,-3.56,-3.56,-3.56,-3.56,-3.56,-3.56,-3.56,-3.56,-3.56,-3.56,-3.56,-3.56,-3.56,-3.56,-3.56,-3.56,-3.56,-3.56,-3.56,-3.56,-3.56,-3.56,-3.56,-3.56,-3.56,-3.56,-3.56,-3.56,-3.56,-3.56,-3.56,-3.56,-3.5492,-3.5184,-3.5385,0.0,0.0,-3.5407,-3.56,-3.56,-3.56,-3.56,-3.56,-3.56,-3.56,-3.56,-3.56,-3.56,-3.56,-3.56,-3.56,-3.56,-3.56,-3.5447,-3.5144,-3.5138,-3.5138,-3.5161,-3.6272,-3.7187,-3.7939,-3.9005,-3.9723,-4.0096,-4.0096,-4.0096,-4.0096,-4.0096,-4.0096,-4.0096,-4.0096,-3.9859,-3.952,-3.952,-3.9242,-3.8903,-3.8707,-3.8707,-3.8707,-3.8707,-3.8707,-3.8707,-3.8707,-3.8707,-3.8707,-3.8707,-3.8707,-3.8546,-3.8115,-3.8082,-3.7894,-3.7396,-3.736,-3.7135,-3.6623,-3.6186,-3.5854,-3.5622,-3.56,-3.56,-3.56,-3.56,-3.56,-3.56,-3.56,-3.56,-3.56,-3.56,-3.56,-3.56,-3.56,-3.56,-3.56,-3.56,-3.56,-3.56,-3.56,-3.56,-3.56,-3.56,-3.56,-3.56,-3.56,-3.56,-3.56,-3.56,-3.56,-3.56,-3.56,-3.56,-3.56,-3.56,-3.56,-3.56,-3.56,-3.56,-3.56,-3.56,-3.56,-3.56,-3.56,-3.56,-3.56,-3.56,-3.56,-3.56,-3.56,-3.56,-3.5538,-3.5385,0.0,0.0,0.0,-3.5492,-3.56,-3.56,-3.56,-3.56,-3.56,-3.56,-3.56,-3.56,-3.56,-3.56,-3.56,-3.56,-3.56,-3.56,-3.56,-3.56,-3.56,-3.56,-3.56,-3.56,-3.6417,-3.7117,-3.7686,-3.8582,-3.9292,-3.9859,-4.0028,-4.0096,-4.0096,-3.991,-3.9842,-3.9842,-3.9673,-3.9225,-3.8734,-3.8734,-3.8396,-3.7905,-3.8707,-3.8707,-3.8707,-3.8707,-3.8707,-3.8707,-3.8707,-3.8707,-3.8707,-3.8707,-3.8707,-3.8673,-3.8643,-3.8643,-3.8433,-3.7876,-3.7842,-3.7649,-3.7173,-3.7097,-3.6643,-3.5627,-3.56,-3.56,-3.56,-3.56,-3.56,-3.56,-3.56,-3.56,-3.56,-3.56,-3.56,-3.56,-3.56,-3.56,-3.56,-3.56,-3.56,-3.56,-3.56,-3.56,-3.56,-3.56,-3.56,-3.56,-3.56,-3.56,-3.56,-3.56,-3.56,-3.56,-3.56,-3.56,-3.56,-3.56,-3.56,-3.56,-3.56,-3.56,-3.56,-3.56,-3.56,-3.56,-3.56,-3.56,-3.56,-3.56,-3.56,-3.56,-3.56,-3.56,-3.5385,-3.4759,0.0,0.0,-3.4759,-3.5207,-3.56,-3.56,-3.56,-3.56,-3.56,-3.56,-3.56,-3.56,-3.56,-3.56,-3.56,-3.56,-3.56,-3.56,-3.56,-3.56,-3.56,-3.56,-3.56,-3.56,-3.6417,-3.6829,-3.6931,-3.8345,-3.9022,-3.9106,-3.9808,-4.0096,-4.0045,-3.9343,-3.9073,-3.9005,-3.8328,-3.8041,-3.799,-3.799,-3.7956,-3.7905,-3.8707,-3.8707,-3.8707,-3.8707,-3.8707,-3.8707,-3.8707,-3.8707,-3.8707,-3.8707,-3.8707,-3.8707,-3.8707,-3.8707,-3.8627,-3.8415,-3.8399,-3.805,-3.7248,-3.7209,-3.6865,-3.6139,-3.5783,-3.56,-3.56,-3.56,-3.56,-3.56,-3.56,-3.56,-3.56,-3.56,-3.56,-3.56,-3.56,-3.56,-3.56,-3.56,-3.56,-3.56,-3.56,-3.56,-3.56,-3.56,-3.56,-3.56,-3.56,-3.56,-3.56,-3.56,-3.56,-3.56,-3.56,-3.56,-3.56,-3.56,-3.56,-3.56,-3.56,-3.56,-3.56,-3.56,-3.56,-3.56,-3.56,-3.56,-3.56,-3.56,-3.56,-3.56,-3.56,-3.56,-3.5515,-3.5253,0.0,-3.5515,-3.5253,-3.543,-3.56,-3.56,-3.56,-3.56,-3.56,-3.56,-3.56,-3.56,-3.56,-3.56,-3.56,-3.56,-3.56,-3.56,-3.56,-3.56,-3.56,-3.56,-3.56,-3.56,-3.591,-3.6315,-3.6829,-3.7388,-3.7872,-3.8328,-3.8616,-3.8734,-3.87,-3.843,-3.8328,-3.8294,-3.8024,-3.7618,-3.7212,-3.7212,-3.6907,-3.6462,-3.8707,-3.8707,-3.8707,-3.8707,-3.8707,-3.8707,-3.8707,-3.8707,-3.8707,-3.8707,-3.8707,-3.8707,-3.8707,-3.8707,-3.8707,-3.8707,-3.8707,-3.8417,-3.7721,-3.7377,-3.6902,-3.6182,-3.5805,-3.56,-3.56,-3.56,-3.56,-3.56,-3.56,-3.56,-3.56,-3.56,-3.56,-3.56,-3.56,-3.56,-3.56,-3.56,-3.56,-3.56,-3.56,-3.56,-3.56,-3.56,-3.56,-3.56,-3.56,-3.56,-3.56,-3.56,-3.56,-3.56,-3.56,-3.56,-3.56,-3.56,-3.56,-3.56,-3.56,-3.56,-3.56,-3.56,-3.56,-3.56,-3.56,-3.56,-3.56,-3.56,-3.56,-3.56,-3.56,-3.56,-3.56,-3.56,-3.56,-3.56,-3.56,-3.56,-3.56,-3.56,-3.56,-3.56,-3.56,-3.56,-3.56,-3.56,-3.56,-3.56,-3.56,-3.56,-3.56,-3.56,-3.56,-3.56,-3.56,-3.56,-3.56,-3.56,-3.56,-3.5893,-3.6417,-3.6694,-3.7083,-3.7567,-3.7804,-3.7905,-3.7889,-3.7652,-3.755,-3.7533,-3.728,-3.6874,-3.6417,-3.6417,-3.6079,-3.56,-3.8707,-3.8707,-3.8707,-3.8707,-3.8707,-3.8707,-3.8707,-3.8707,-3.8707,-3.8707,-3.8707,-3.8707,-3.8707,-3.8707,-3.8707,-3.8707,-3.8707,-3.8707,-3.8692,-3.7756,-3.6744,-3.565,-3.56,-3.56,-3.56,-3.56,-3.56,-3.56,-3.56,-3.56,-3.56,-3.56,-3.56,-3.56,-3.56,-3.56,-3.56,-3.56,-3.56,-3.56,-3.56,-3.56,-3.56,-3.56,-3.56,-3.56,-3.56,-3.56,-3.56,-3.56,-3.56,-3.56,-3.56,-3.56,-3.56,-3.56,-3.56,-3.56,-3.56,-3.56,-3.56,-3.56,-3.56,-3.56,-3.56,-3.56,-3.56,-3.56,-3.56,-3.56,-3.56,-3.56,-3.56,-3.56,-3.56,-3.56,-3.56,-3.56,-3.56,-3.56,-3.56,-3.56,-3.56,-3.56,-3.56,-3.56,-3.56,-3.56,-3.56,-3.56,-3.56,-3.56,-3.56,-3.56,-3.56,-3.56,-3.56,-3.56,-3.56,-3.56,-3.5616,-3.6417,-3.6795,-3.6829,-3.7567,-3.7889,-3.7838,-3.7077,-3.6795,-3.6711,-3.5904,-3.56,-3.56,-3.56,-3.56,-3.56,-3.8707,-3.8707,-3.8707,-3.8707,-3.8707,-3.8707,-3.8707,-3.8707,-3.8707,-3.8707,-3.8707,-3.8707,-3.8707,-3.8707,-3.8707,-3.8707,-3.8707,-3.8546,-3.8167,-3.756,-3.7058,-3.6744,-3.6011,-3.56,-3.56,-3.56,-3.56,-3.56,-3.56,-3.56,-3.56,-3.56,-3.56,-3.56,-3.56,-3.56,-3.56,-3.56,-3.56,-3.56,-3.56,-3.56,-3.56,-3.56,-3.56,-3.56,-3.56,-3.56,-3.56,-3.56,-3.56,-3.56,-3.56,-3.56,-3.56,-3.56,-3.56,-3.56,-3.56,-3.56,-3.56,-3.56,-3.56,-3.56,-3.56,-3.56,-3.56,-3.56,-3.56,-3.56,-3.56,-3.56,-3.56,-3.56,-3.56,-3.56,-3.56,-3.56,-3.56,-3.56,-3.56,-3.56,-3.56,-3.56,-3.56,-3.56,-3.56,-3.56,-3.56,-3.56,-3.56,-3.56,-3.56,-3.56,-3.56,-3.56,-3.56,-3.56,-3.56,-3.56,-3.56,-3.5859,-3.596,-3.5977,-3.6174,-3.6276,-3.6259,-3.6039,-3.596,-3.5943,-3.5684,-3.56,-3.56,-3.56,-3.56,-3.56,-3.8707,-3.8707,-3.8707,-3.8707,-3.8707,-3.8707,-3.8707,-3.8707,-3.8707,-3.8707,-3.8707,-3.8707,-3.8707,-3.8707,-3.8707,-3.8707,-3.8707,-3.8562,-3.8251,-3.7755,-3.747,-3.747,-3.6686,-3.6122,-3.592,-3.5717,-3.56,-3.56,-3.56,-3.56,-3.56,-3.56,-3.56,-3.56,-3.56,-3.56,-3.56,-3.56,-3.56,-3.56,-3.56,-3.56,-3.56,-3.56,-3.56,-3.56,-3.56,-3.56,-3.56,-3.56,-3.56,-3.56,-3.56,-3.56,-3.56,-3.56,-3.56,-3.56,-3.56,-3.56,-3.56,-3.56,-3.56,-3.56,-3.56,-3.56,-3.56,-3.56,-3.56,-3.56,-3.56,-3.56,-3.56,-3.56,-3.56,-3.56,-3.56,-3.56,-3.56,-3.56,-3.56,-3.56,-3.56,-3.56,-3.56,-3.56,-3.56,-3.56,-3.56,-3.56,-3.56,-3.56,-3.56,-3.56,-3.56,-3.56,-3.56,-3.56,-3.56,-3.56,-3.56,-3.56,-3.56,-3.56,-3.56,-3.56,-3.56,-3.56,-3.56,-3.56,-3.56,-3.56,-3.56,-3.56,-3.56,-3.56,-3.8707,-3.8707,-3.8707,-3.8707,-3.8707,-3.8707,-3.8707,-3.8707,-3.8707,-3.8707,-3.8707,-3.8707,-3.8707,-3.8707,-3.8707,-3.8707,-3.8707,-3.8707,-3.8707,-3.8232,-3.7963,-3.7963,-3.7524,-3.702,-3.6542,-3.5985,-3.5672,-3.5672,-3.5605,-3.56,-3.56,-3.56,-3.56,-3.56,-3.56,-3.56,-3.56,-3.56,-3.56,-3.56,-3.56,-3.56,-3.56,-3.56,-3.56,-3.56,-3.56,-3.56,-3.56,-3.56,-3.56,-3.56,-3.56,-3.56,-3.56,-3.56,-3.56,-3.56,-3.56,-3.56,-3.56,-3.56,-3.56,-3.56,-3.56,-3.56,-3.56,-3.56,-3.56,-3.56,-3.56,-3.56,-3.56,-3.56,-3.56,-3.56,-3.56,-3.56,-3.56,-3.56,-3.56,-3.56,-3.56,-3.56,-3.56,-3.56,-3.56,-3.56,-3.56,-3.56,-3.56,-3.56,-3.56,-3.56,-3.56,-3.56,-3.56,-3.56,-3.56,-3.56,-3.56,-3.56,-3.56,-3.56,-3.56,-3.56,-3.56,-3.56,-3.56,-3.56,-3.56,-3.56,-3.56,-3.56,-3.56,-3.56,-3.8707,-3.8707,-3.8707,-3.8707,-3.8707,-3.8707,-3.8707,-3.8707,-3.8707,-3.8707,-3.8707,-3.8707,-3.8707,-3.8707,-3.8707,-3.8707,-3.8707,-3.8707,-3.8707,-3.8578,-3.853,-3.853,-3.8032,-3.7702,-3.7596,-3.6686,-3.6224,-3.6224,-3.5805,-3.56,-3.56,-3.56,-3.56,-3.56,-3.56,-3.56,-3.56,-3.56,-3.56,-3.56,-3.56,-3.56,-3.56,-3.56,-3.56,-3.56,-3.56,-3.56,-3.56,-3.56,-3.56,-3.56,-3.56,-3.56,-3.56,-3.56,-3.56,-3.56,-3.56,-3.56,-3.56,-3.56,-3.56,-3.56,-3.56,-3.56,-3.56,-3.56,-3.56,-3.56,-3.56,-3.56,-3.56,-3.56,-3.56,-3.56,-3.56,-3.56,-3.56,-3.56,-3.56,-3.56,-3.56,-3.56,-3.56,-3.56,-3.56,-3.56,-3.56,-3.56,-3.56,-3.56,-3.56,-3.56,-3.56,-3.56,-3.56,-3.56,-3.56,-3.56,-3.56,-3.56,-3.56,-3.56,-3.56,-3.56,-3.56,-3.56,-3.56,-3.56,-3.56,-3.56,-3.56,-3.56,-3.56,-3.56,-3.8923,-3.888,-3.884,-3.8719,-3.8707,-3.8707,-3.8707,-3.8707,-3.8707,-3.8707,-3.8707,-3.8707,-3.8707,-3.8707,-3.8707,-3.8707,-3.8707,-3.8707,-3.8707,-3.8707,-3.8707,-3.8707,-3.8433,-3.8283,-3.8283,-3.7524,-3.7001,-3.6783,-3.6228,-3.5985,-3.5985,-3.5717,-3.56,-3.56,-3.56,-3.56,-3.56,-3.56,-3.56,-3.56,-3.56,-3.56,-3.56,-3.56,-3.56,-3.56,-3.56,-3.56,-3.56,-3.56,-3.56,-3.56,-3.56,-3.56,-3.56,-3.56,-3.56,-3.56,-3.56,-3.56,-3.56,-3.56,-3.56,-3.56,-3.56,-3.56,-3.56,-3.56,-3.56,-3.56,-3.56,-3.56,-3.56,-3.56,-3.56,-3.56,-3.56,-3.56,-3.56,-3.56,-3.56,-3.56,-3.56,-3.56,-3.56,-3.56,-3.56,-3.56,-3.56,-3.56,-3.56,-3.56,-3.56,-3.56,-3.56,-3.56,-3.56,-3.56,-3.56,-3.56,-3.56,-3.56,-3.56,-3.56,-3.56,-3.56,-3.56,-3.56,-3.56,-3.56,-3.56,-3.56,-3.56,-3.56,-3.56,-3.56,-3.9238,-3.9192,-3.9117,-3.8888,-3.8822,-3.8777,-3.8777,-3.8735,-3.8707,-3.8707,-3.8707,-3.8707,-3.8707,-3.8707,-3.8707,-3.8707,-3.8707,-3.8707,-3.8707,-3.8707,-3.8707,-3.8707,-3.8707,-3.8707,-3.8707,-3.8267,-3.7808,-3.7323,-3.6803,-3.6498,-3.6374,-3.5941,-3.5694,-3.56,-3.56,-3.56,-3.56,-3.56,-3.56,-3.56,-3.56,-3.56,-3.56,-3.56,-3.56,-3.56,-3.56,-3.56,-3.56,-3.56,-3.56,-3.56,-3.56,-3.56,-3.56,-3.56,-3.56,-3.56,-3.56,-3.56,-3.56,-3.56,-3.56,-3.56,-3.56,-3.56,-3.56,-3.56,-3.56,-3.56,-3.56,-3.56,-3.56,-3.56,-3.56,-3.56,-3.56,-3.56,-3.56,-3.56,-3.56,-3.56,-3.56,-3.56,-3.56,-3.56,-3.56,-3.56,-3.56,-3.56,-3.56,-3.56,-3.56,-3.56,-3.56,-3.56,-3.56,-3.56,-3.56,-3.56,-3.56,-3.56,-3.56,-3.56,-3.56,-3.56,-3.56,-3.56,-3.56,-3.56,-3.56,-3.56,-3.56,-3.56,-3.56,-3.56,-3.9552,-3.9541,-3.9529,-3.9481,-3.9231,-3.9049,-3.9049,-3.8859,-3.8707,-3.8707,-3.8707,-3.8707,-3.8707,-3.8707,-3.8707,-3.8707,-3.8707,-3.8707,-3.8707,-3.8707,-3.8707,-3.8707,-3.8707,-3.8707,-3.8707,-3.8627,-3.8316,-3.7807,-3.7323,-3.6845,-3.6395,-3.6329,-3.6032,-3.56,-3.56,-3.56,-3.56,-3.56,-3.56,-3.56,-3.56,-3.56,-3.56,-3.56,-3.56,-3.56,-3.56,-3.56,-3.56,-3.56,-3.56,-3.56,-3.56,-3.56,-3.56,-3.56,-3.56,-3.56,-3.56,-3.56,-3.56,-3.56,-3.56,-3.56,-3.56,-3.56,-3.56,-3.56,-3.56,-3.56,-3.56,-3.56,-3.56,-3.56,-3.56,-3.56,-3.56,-3.56,-3.56,-3.56,-3.56,-3.56,-3.56,-3.56,-3.56,-3.56,-3.56,-3.56,-3.56,-3.56,-3.56,-3.56,-3.56,-3.56,-3.56,-3.56,-3.56,-3.56,-3.56,-3.56,-3.56,-3.56,-3.56,-3.56,-3.56,-3.56,-3.56,-3.56,-3.56,-3.56,-3.56,-3.56,-3.56,-3.56,-3.56,-3.56,-3.9912,-3.988,-3.9819,-3.9634,-3.9481,-3.9333,-3.9139,-3.8999,-3.8869,-3.8719,-3.8707,-3.8707,-3.8707,-3.8707,-3.8707,-3.8707,-3.8707,-3.8707,-3.8707,-3.8707,-3.8707,-3.8707,-3.8707,-3.8707,-3.8707,-3.8707,-3.8578,-3.835,-3.7843,-3.747,-3.723,-3.6962,-3.6724,-3.6501,-3.6501,-3.6333,-3.6049,-3.6049,-3.6049,-3.6049,-3.6049,-3.6228,-3.6501,-3.6501,-3.6501,-3.646,-3.6161,-3.5854,-3.56,-3.56,-3.56,-3.56,-3.56,-3.56,-3.56,-3.56,-3.56,-3.56,-3.56,-3.56,-3.56,-3.56,-3.56,-3.56,-3.56,-3.56,-3.56,-3.56,-3.56,-3.56,-3.56,-3.56,-3.56,-3.56,-3.56,-3.56,-3.56,-3.56,-3.56,-3.56,-3.56,-3.56,-3.56,-3.56,-3.56,-3.56,-3.5876,-3.6049,-3.6049,-3.6316,-3.6501,-3.6501,-3.6501,-3.6336,-3.6054,-3.6049,-3.6049,-3.6049,-3.6049,-3.5898,-3.56,-3.56,-3.56,-3.56,-3.56,-3.56,-3.56,-3.56,-3.56,-3.56,-3.56,-3.56,-3.56,-3.56,-3.56,-3.56]},{"header":{"parameterUnit":"m.s-1","parameterCategory":1,"la1":30.6,"la2":28.766,"lo1":-90.7593,"lo2":-88.6598,"dy":0.0162,"dx":0.0183,"nx":116,"ny":114,"refTime":"2023-07-27T12:00:00:Z","depth":0,"parameterNumber":3,"parameterNumberName":"V-component_of_WINDS"},"data":[0.0,0.0,0.0,0.0,0.0,0.0,0.0,0.0,0.0,0.0,0.0,0.0,0.0,0.0,0.0,0.0,0.0,0.0,0.0,0.0,0.0,0.0,0.0,0.0,0.0,0.0,0.0,0.0,0.0,0.0,0.0,0.0,0.0,0.0,0.0,0.0,0.0,0.0,0.0,0.0,0.0,0.0,0.0,0.0,0.0,0.0,0.0,0.0,0.0,0.0,0.0,0.0,0.0,0.0,0.0,0.0,0.0,0.0,0.0,0.0,0.0,0.0,0.0,0.0,0.0,0.0,0.0,0.0,0.0,0.0,0.0,0.0,0.0,0.0,0.0,0.0,0.0,0.0,0.0,0.0,0.0,0.0,0.0,0.0,0.0,0.0,0.0,0.0,0.0,0.0,0.0,0.0,0.0,0.0,0.0,0.0,0.0,0.0,0.0,0.0,0.0,0.0,0.0,0.0,0.0,0.0,0.0,0.0,0.0,0.0,0.0,0.0,0.0,0.0,0.0,0.0,0.0,0.0,0.0,0.0,0.0,0.0,0.0,0.0,0.0,0.0,0.0,0.0,0.0,0.0,0.0,0.0,0.0,0.0,0.0,0.0,0.0,0.0,0.0,0.0,0.0,0.0,0.0,0.0,0.0,0.0,0.0,0.0,0.0,0.0,0.0,0.0,0.0,0.0,0.0,0.0,0.0,0.0,0.0,0.0,0.0,0.0,0.0,0.0,0.0,0.0,0.0,0.0,0.0,0.0,0.0,0.0,0.0,0.0,0.0,0.0,0.0,0.0,0.0,0.0,0.0,0.0,0.0,0.0,0.0,0.0,0.0,0.0,0.0,0.0,0.0,0.0,0.0,0.0,0.0,0.0,0.0,0.0,0.0,0.0,0.0,0.0,0.0,0.0,0.0,0.0,0.0,0.0,0.0,0.0,0.0,0.0,0.0,0.0,0.0,0.0,0.0,0.0,0.0,0.0,0.0,0.0,0.0,0.0,0.0,0.0,0.0,0.0,0.0,0.0,0.0,0.0,0.0,0.0,0.0,0.0,0.0,0.0,0.0,0.0,0.0,0.0,0.0,0.0,0.0,0.0,0.0,0.0,0.0,0.0,0.0,0.0,0.0,0.0,0.0,0.0,0.0,0.0,0.0,0.0,0.0,0.0,0.0,0.0,0.0,0.0,0.0,0.0,0.0,0.0,0.0,0.0,0.0,0.0,0.0,0.0,0.0,0.0,0.0,0.0,0.0,0.0,0.0,0.0,0.0,0.0,0.0,0.0,0.0,0.0,0.0,0.0,0.0,0.0,0.0,0.0,0.0,0.0,0.0,0.0,0.0,0.0,0.0,0.0,0.0,0.0,0.0,0.0,0.0,0.0,0.0,0.0,0.0,0.0,0.0,0.0,0.0,0.0,0.0,0.0,0.0,0.0,0.0,0.0,0.0,0.0,0.0,0.0,0.0,0.0,0.0,0.0,0.0,0.0,0.0,0.0,0.0,0.0,0.0,0.0,0.0,0.0,0.0,0.0,0.0,0.0,0.0,0.0,0.0,0.0,0.0,0.0,0.0,0.0,0.0,0.0,0.0,0.0,0.0,0.0,0.0,0.0,0.0,0.0,0.0,0.0,0.0,0.0,0.0,0.0,0.0,0.0,0.0,0.0,0.0,0.0,0.0,0.0,0.0,0.0,0.0,0.0,0.0,0.0,0.0,0.0,0.0,0.0,0.0,0.0,0.0,0.0,0.0,0.0,0.0,0.0,0.0,0.0,0.0,0.0,0.0,0.0,0.0,0.0,0.0,0.0,0.0,0.0,0.0,0.0,0.0,0.0,0.0,0.0,0.0,0.0,0.0,0.0,0.0,0.0,0.0,0.0,0.0,0.0,0.0,0.0,0.0,0.0,0.0,0.0,0.0,0.0,0.0,0.0,0.0,0.0,0.0,0.0,0.0,0.0,0.0,0.0,0.0,0.0,0.0,0.0,0.0,0.0,0.0,0.0,0.0,0.0,0.0,0.0,0.0,0.0,0.0,0.0,0.0,0.0,0.0,0.0,0.0,0.0,0.0,0.0,0.0,0.0,0.0,0.0,0.0,0.0,0.0,0.0,0.0,0.0,0.0,0.0,0.0,0.0,0.0,0.0,0.0,0.0,0.0,0.0,0.0,0.0,0.0,0.0,0.0,0.0,0.0,0.0,0.0,0.0,0.0,0.0,0.0,0.0,0.0,0.0,0.0,0.0,0.0,0.0,0.0,0.0,0.0,0.0,0.0,0.0,0.0,0.0,0.0,0.0,0.0,0.0,0.0,0.0,0.0,0.0,0.0,0.0,0.0,0.0,0.0,0.0,0.0,0.0,0.0,0.0,0.0,0.0,0.0,0.0,0.0,0.0,0.0,0.0,0.0,0.0,0.0,0.0,0.0,0.0,0.0,0.0,0.0,0.0,0.0,0.0,0.0,0.0,0.0,0.0,0.0,0.0,0.0,0.0,0.0,0.0,0.0,0.0,0.0,0.0,0.0,0.0,0.0,0.0,0.0,0.0,0.0,0.0,0.0,0.0,0.0,0.0,0.0,0.0,0.0,0.0,0.0,0.0,0.0,0.0,0.0,0.0,0.0,0.0,0.0,0.0,0.0,0.0,0.0,0.0,0.0,0.0,0.0,0.0,0.0,0.0,0.0,0.0,0.0,0.0,0.0,0.0,0.0,0.0,0.0,0.0,0.0,0.0,0.0,0.0,0.0,0.0,0.0,0.0,0.0,0.0,0.0,0.0,0.0,0.0,0.0,0.0,0.0,0.0,0.0,0.0,0.0,0.0,0.0,0.0,0.0,0.0,0.0,0.0,0.0,0.0,0.0,0.0,0.0,0.0,0.0,0.0,0.0,0.0,0.0,0.0,0.0,0.0,0.0,0.0,0.0,0.0,0.0,0.0,0.0,0.0,0.0,0.0,0.0,0.0,0.0,0.0,0.0,0.0,0.0,0.0,0.0,0.0,0.0,0.0,0.0,0.0,0.0,0.0,0.0,0.0,0.0,0.0,0.0,0.0,0.0,0.0,0.0,0.0,0.0,0.0,0.0,0.0,0.0,0.0,0.0,0.0,0.0,0.0,0.0,0.0,0.0,0.0,0.0,0.0,0.0,0.0,0.0,0.0,0.0,0.0,0.0,0.0,0.0,0.0,0.0,0.0,0.0,0.0,0.0,0.0,0.0,0.0,0.0,0.0,0.0,0.0,0.0,0.0,0.0,0.0,0.0,0.0,0.0,0.0,0.0,0.0,0.0,0.0,0.0,0.0,0.0,0.0,0.0,0.0,0.0,0.0,0.0,0.0,0.0,0.0,0.0,0.0,0.0,0.0,0.0,0.0,0.0,0.0,0.0,0.0,0.0,0.0,0.0,0.0,0.0,0.0,0.0,0.0,0.0,0.0,0.0,0.0,0.0,0.0,0.0,0.0,0.0,0.0,0.0,0.0,0.0,0.0,0.0,0.0,0.0,0.0,0.0,0.0,0.0,0.0,0.0,0.0,0.0,0.0,0.0,0.0,0.0,0.0,0.0,0.0,0.0,0.0,0.0,0.0,0.0,0.0,0.0,0.0,0.0,0.0,0.0,0.0,0.0,0.0,0.0,0.0,0.0,0.0,0.0,0.0,0.0,0.0,0.0,0.0,0.0,0.0,0.0,0.0,0.0,0.0,0.0,0.0,0.0,0.0,0.0,0.0,0.0,0.0,0.0,0.0,0.0,0.0,0.0,0.0,0.0,0.0,0.0,0.0,0.0,0.0,0.0,0.0,0.0,0.0,0.0,0.0,0.0,0.0,0.0,0.0,0.0,0.0,0.0,0.0,0.0,0.0,0.0,0.0,0.0,0.0,0.0,0.0,0.0,0.0,0.0,0.0,0.0,0.0,0.0,0.0,0.0,0.0,0.0,0.0,0.0,0.0,0.0,0.0,0.0,0.0,0.0,0.0,0.0,0.0,0.0,0.0,0.0,0.0,0.0,0.0,0.0,0.0,0.0,0.0,0.0,0.0,0.0,0.0,0.0,0.0,0.0,0.0,0.0,0.0,0.0,0.0,0.0,0.0,0.0,0.0,0.0,0.0,0.0,0.0,0.0,0.0,0.0,0.0,0.0,0.0,0.0,0.0,0.0,0.0,0.0,0.0,0.0,0.0,0.0,0.0,0.0,0.0,0.0,0.0,0.0,0.0,0.0,0.0,0.0,0.0,0.0,0.0,0.0,0.0,0.0,0.0,0.0,0.0,0.0,0.0,0.0,0.0,0.0,0.0,0.0,0.0,0.0,0.0,0.0,0.0,0.0,0.0,0.0,0.0,0.0,0.0,0.0,0.0,0.0,0.0,0.0,0.0,0.0,0.0,0.0,0.0,0.0,0.0,0.0,0.0,0.0,0.0,0.0,0.0,0.0,0.0,0.0,0.0,0.0,0.0,0.0,0.0,0.0,0.0,0.0,0.0,0.0,0.0,0.0,0.0,0.0,0.0,0.0,0.0,0.0,0.0,0.0,0.0,0.0,0.0,0.0,0.0,0.0,0.0,0.0,0.0,0.0,0.0,0.0,0.0,0.0,0.0,0.0,0.0,0.0,0.0,0.0,0.0,0.0,0.0,0.0,0.0,0.0,0.0,0.0,0.0,0.0,0.0,0.0,0.0,0.0,0.0,0.0,0.0,0.0,0.0,0.0,0.0,0.0,0.0,0.0,0.0,0.0,0.0,0.0,0.0,0.0,0.0,0.0,0.0,0.0,0.0,0.0,0.0,0.0,0.0,0.0,0.0,0.0,0.0,0.0,0.0,0.0,0.0,0.0,0.0,0.0,0.0,0.0,0.0,0.0,0.0,0.0,0.0,0.0,0.0,0.0,0.0,0.0,0.0,0.0,0.0,0.0,0.0,0.0,0.0,0.0,0.0,0.0,0.0,0.0,0.0,0.0,0.0,0.0,0.0,0.0,0.0,0.0,0.0,0.0,0.0,0.0,0.0,0.0,0.0,0.0,0.0,0.0,0.0,0.0,0.0,0.0,0.0,0.0,0.0,0.0,0.0,0.0,0.0,0.0,0.0,0.0,0.0,0.0,0.0,0.0,0.0,0.0,0.0,0.0,0.0,0.0,0.0,0.0,0.0,0.0,0.0,0.0,0.0,0.0,0.0,0.0,0.0,0.0,0.0,0.0,0.0,0.0,0.0,0.0,0.0,0.0,0.0,0.0,0.0,0.0,0.0,0.0,0.0,0.0,0.0,0.0,0.0,0.0,0.0,0.0,0.0,0.0,0.0,0.0,0.0,0.0,0.0,0.0,0.0,0.0,0.0,0.0,0.0,0.0,0.0,0.0,0.0,0.0,0.0,0.0,0.0,0.0,0.0,0.0,0.0,0.0,0.0,0.0,0.0,0.0,0.0,0.0,0.0,0.0,0.0,0.0,0.0,0.0,0.0,0.0,0.0,0.0,0.0,0.0,0.0,0.0,0.0,0.0,0.0,0.0,0.0,0.0,0.0,0.0,0.0,0.0,0.0,0.0,0.0,0.0,0.0,0.0,0.0,0.0,0.0,0.0,0.0,0.0,0.0,0.0,0.0,0.0,0.0,0.0,0.0,0.0,0.0,0.0,0.0,0.0,0.0,0.0,0.0,0.0,0.0,0.0,0.0,0.0,0.0,0.0,0.0,0.0,0.0,0.0,0.0,0.0,0.0,0.0,0.0,0.0,0.0,0.0,0.0,0.0,0.0,0.0,0.0,0.0,0.0,0.0,0.0,0.0,0.0,0.0,0.0,0.0,0.0,0.0,0.0,0.0,0.0,0.0,0.0,0.0,0.0,0.0,0.0,0.0,0.0,0.0,0.0,0.0,0.0,0.0,0.0,0.0,0.0,0.0,0.0,0.0,0.0,0.0,0.0,0.0,0.0,0.0,0.0,0.0,0.0,0.0,0.0,0.0,0.0,0.0,0.0,0.0,0.0,0.0,0.0,0.0,0.0,0.0,0.0,0.0,0.0,0.0,0.0,0.0,0.0,0.0,0.0,0.0,0.0,0.0,0.0,0.0,0.0,0.0,0.0,0.0,0.0,0.0,0.0,0.0,0.0,0.0,0.0,0.0,0.0,0.0,0.0,-2.0605,0.0,0.0,0.0,0.0,0.0,0.0,0.0,0.0,0.0,0.0,0.0,0.0,0.0,0.0,0.0,0.0,0.0,0.0,0.0,0.0,0.0,0.0,0.0,0.0,0.0,0.0,0.0,0.0,0.0,0.0,0.0,0.0,0.0,0.0,0.0,0.0,0.0,0.0,0.0,0.0,-2.165,-2.1804,-2.0685,-2.0475,-2.1029,0.0,0.0,0.0,0.0,0.0,0.0,0.0,0.0,0.0,0.0,0.0,0.0,0.0,0.0,0.0,0.0,0.0,0.0,0.0,0.0,0.0,0.0,0.0,0.0,0.0,0.0,0.0,0.0,0.0,0.0,0.0,0.0,0.0,0.0,0.0,0.0,0.0,0.0,0.0,0.0,0.0,0.0,0.0,0.0,0.0,0.0,0.0,0.0,0.0,0.0,0.0,0.0,0.0,0.0,0.0,0.0,0.0,0.0,0.0,0.0,0.0,0.0,0.0,0.0,0.0,0.0,0.0,0.0,0.0,0.0,0.0,-2.0605,0.0,0.0,0.0,0.0,0.0,0.0,0.0,0.0,0.0,0.0,0.0,0.0,0.0,0.0,0.0,0.0,0.0,0.0,0.0,0.0,0.0,0.0,0.0,0.0,0.0,0.0,0.0,0.0,0.0,0.0,0.0,0.0,0.0,0.0,0.0,0.0,0.0,0.0,0.0,-2.2207,-2.2617,-2.2617,-2.2441,-2.21,-2.2031,0.0,0.0,0.0,0.0,0.0,0.0,0.0,0.0,0.0,0.0,0.0,0.0,0.0,0.0,0.0,0.0,0.0,0.0,0.0,0.0,0.0,0.0,0.0,0.0,0.0,0.0,0.0,0.0,0.0,0.0,0.0,0.0,0.0,0.0,0.0,0.0,0.0,0.0,0.0,0.0,0.0,0.0,0.0,0.0,0.0,0.0,0.0,0.0,0.0,0.0,0.0,0.0,0.0,0.0,0.0,0.0,0.0,0.0,0.0,0.0,0.0,0.0,0.0,0.0,0.0,-2.1735,-2.0934,-2.0605,-2.0605,-2.0605,-2.0605,-2.0605,0.0,0.0,0.0,0.0,0.0,0.0,0.0,0.0,0.0,0.0,0.0,0.0,0.0,0.0,0.0,0.0,0.0,0.0,0.0,0.0,0.0,0.0,0.0,0.0,0.0,0.0,0.0,0.0,0.0,0.0,0.0,0.0,0.0,0.0,0.0,0.0,0.0,0.0,-2.2646,-2.3013,-2.3013,-2.2984,-2.2916,-2.2598,-2.2432,-2.2402,0.0,0.0,0.0,0.0,0.0,0.0,0.0,0.0,0.0,0.0,0.0,0.0,0.0,0.0,0.0,0.0,0.0,0.0,0.0,0.0,0.0,0.0,0.0,0.0,0.0,0.0,0.0,0.0,0.0,0.0,0.0,0.0,0.0,0.0,0.0,0.0,0.0,0.0,0.0,0.0,0.0,-2.2178,-2.3184,0.0,0.0,0.0,0.0,0.0,0.0,0.0,0.0,0.0,0.0,0.0,0.0,0.0,0.0,-2.2027,-2.1989,-2.1593,-2.0789,-2.0644,-2.0673,-2.0789,-2.0644,-2.0605,-2.0605,-2.0605,0.0,-2.0605,-2.0605,0.0,0.0,0.0,0.0,0.0,0.0,0.0,0.0,0.0,0.0,0.0,0.0,0.0,0.0,0.0,0.0,0.0,0.0,0.0,0.0,0.0,0.0,0.0,0.0,0.0,0.0,0.0,0.0,0.0,0.0,0.0,0.0,0.0,0.0,0.0,0.0,-2.273,-2.2916,-2.3091,-2.3091,-2.3091,-2.3091,-2.2906,-2.2818,-2.2789,-2.2412,0.0,0.0,0.0,0.0,0.0,0.0,0.0,0.0,0.0,0.0,0.0,0.0,0.0,0.0,0.0,0.0,0.0,0.0,0.0,0.0,0.0,0.0,0.0,0.0,0.0,0.0,0.0,0.0,0.0,0.0,0.0,0.0,0.0,0.0,0.0,0.0,0.0,0.0,0.0,-2.2226,-2.332,-2.4622,-2.5685,-2.6225,0.0,0.0,0.0,0.0,0.0,0.0,0.0,0.0,0.0,-2.6092,-2.5554,-2.5047,-2.4585,-2.4585,-2.4397,-2.3941,-2.2775,-2.2511,-2.3009,-2.1879,-2.1349,-2.1349,-2.1349,-2.1349,-2.1269,-2.0811,-2.0605,-2.0634,0.0,0.0,0.0,0.0,0.0,-2.2999,0.0,0.0,0.0,0.0,0.0,0.0,0.0,0.0,0.0,0.0,0.0,0.0,0.0,0.0,0.0,-2.0605,0.0,0.0,0.0,0.0,0.0,0.0,0.0,0.0,-2.2468,0.0,0.0,-2.3091,-2.3091,-2.3091,-2.3091,-2.3091,-2.3091,-2.3091,-2.3091,-2.3091,-2.3071,-2.276,-2.2676,-2.2637,0.0,0.0,0.0,0.0,0.0,0.0,0.0,0.0,0.0,0.0,0.0,0.0,0.0,0.0,0.0,0.0,0.0,0.0,0.0,0.0,0.0,0.0,0.0,0.0,0.0,0.0,0.0,0.0,0.0,0.0,0.0,0.0,0.0,0.0,0.0,0.0,0.0,-2.3435,-2.4659,-2.619,-2.7062,-2.7657,0.0,0.0,0.0,0.0,0.0,0.0,-2.831,-2.7593,-2.7457,-2.8073,-2.7385,-2.6876,-2.659,-2.659,-2.6477,-2.6212,-2.467,-2.4169,-2.4563,-2.3011,-2.2154,-2.1885,-2.1885,-2.1885,-2.1836,-2.1212,-2.0938,-2.1007,-2.156,-2.1806,0.0,-2.2782,-2.3294,-2.3624,0.0,0.0,0.0,0.0,0.0,0.0,0.0,0.0,0.0,0.0,0.0,0.0,0.0,0.0,-2.0605,-2.0605,-2.0605,-2.0742,0.0,0.0,0.0,0.0,-2.4423,-2.4733,-2.4115,0.0,0.0,-2.3091,-2.3091,-2.3091,-2.3091,-2.3091,-2.3091,-2.3091,-2.3091,-2.3091,-2.3091,-2.3071,-2.3062,-2.3023,-2.2646,0.0,0.0,0.0,0.0,0.0,0.0,0.0,0.0,0.0,0.0,0.0,0.0,0.0,0.0,0.0,0.0,0.0,0.0,0.0,0.0,0.0,0.0,0.0,0.0,0.0,0.0,0.0,0.0,0.0,0.0,0.0,0.0,0.0,0.0,0.0,0.0,0.0,0.0,-2.7801,-2.8023,0.0,0.0,0.0,0.0,-2.8813,-2.885,-2.885,-2.885,-2.8813,-2.8562,-2.8122,-2.806,-2.7558,-2.659,-2.659,-2.6148,-2.5288,-2.5171,-2.4574,-2.3572,-2.3463,-2.2849,-2.1885,-2.1885,-2.1885,-2.1885,-2.1836,-2.1816,-2.1818,-2.1407,-2.1241,-2.1302,-2.1873,-2.2664,-2.3624,0.0,0.0,0.0,0.0,0.0,0.0,0.0,0.0,0.0,0.0,0.0,0.0,0.0,-2.0605,-2.0684,-2.0967,-2.0996,-2.1191,-2.1621,0.0,0.0,-2.3883,-2.3639,-2.3451,-2.3473,-2.3221,-2.3091,-2.3091,-2.3091,-2.3091,-2.3091,-2.3091,-2.3091,-2.3091,-2.3091,-2.3091,-2.3091,-2.3091,-2.3091,-2.3081,-2.2925,-2.2877,0.0,0.0,0.0,0.0,0.0,0.0,0.0,0.0,0.0,0.0,0.0,0.0,0.0,0.0,0.0,0.0,0.0,0.0,0.0,0.0,0.0,0.0,0.0,0.0,0.0,0.0,0.0,0.0,0.0,0.0,0.0,0.0,0.0,0.0,0.0,0.0,0.0,-2.845,-2.8599,0.0,0.0,-2.9189,-2.9277,-2.9465,-2.9478,-2.9478,-2.9478,-2.9478,-2.939,-2.9202,-2.9189,-2.9024,-2.8656,-2.8656,-2.8502,-2.8142,-2.6731,-2.5824,-2.5376,-2.3907,-2.305,-2.2652,-2.2652,-2.2652,-2.2652,-2.2652,-2.2373,-2.203,-2.3186,-2.3656,-2.3831,-2.5367,-2.6139,-2.6518,0.0,0.0,0.0,0.0,0.0,0.0,0.0,0.0,0.0,0.0,0.0,-2.0605,-2.0605,-2.0742,-2.0908,-2.1171,-2.1327,-2.1794,-2.2621,0.0,0.0,-2.5458,-2.444,-2.3796,-2.3671,-2.3299,-2.3309,-2.3681,-2.3864,-2.4152,-2.4543,-2.4687,-2.4594,-2.4165,-2.4165,-2.3875,-2.3359,-2.3359,-2.3227,-2.3091,-2.3091,-2.3091,-2.3062,0.0,0.0,0.0,0.0,0.0,0.0,0.0,0.0,0.0,0.0,0.0,0.0,0.0,0.0,0.0,0.0,0.0,0.0,0.0,0.0,0.0,0.0,0.0,0.0,0.0,0.0,0.0,0.0,0.0,0.0,0.0,0.0,0.0,0.0,0.0,-2.7825,-2.9075,-2.9176,-2.9365,-2.9754,-2.9792,-2.9792,-2.9792,-2.9792,-2.9792,-2.9792,-2.9792,-2.9792,-2.9792,-2.9792,-2.9792,-2.9792,-2.9792,-2.9624,-2.9197,-2.7747,-2.6637,-2.5891,-2.4339,-2.3464,-2.3091,-2.3091,-2.3091,-2.3091,-2.3091,-2.2812,-2.2411,-2.3646,-2.4378,-2.4873,-2.6103,-2.7001,-2.7631,0.0,0.0,0.0,0.0,0.0,0.0,0.0,0.0,0.0,0.0,-2.0615,-2.0625,-2.0625,-2.0977,-2.121,-2.1229,-2.166,-2.2559,-2.4115,-2.519,0.0,-2.794,-2.7046,-2.5933,-2.4787,-2.3681,-2.3681,-2.4808,-2.5346,-2.6174,-2.733,-2.7856,-2.7459,-2.6351,-2.6351,-2.5451,-2.3943,-2.3898,-2.3599,-2.3154,-2.3101,-2.3091,-2.3091,0.0,0.0,0.0,0.0,0.0,0.0,0.0,0.0,0.0,0.0,0.0,0.0,0.0,0.0,0.0,0.0,0.0,0.0,0.0,0.0,0.0,0.0,0.0,0.0,0.0,0.0,0.0,0.0,0.0,0.0,0.0,0.0,0.0,-2.7436,-2.8357,-2.9126,-2.9729,-2.9792,-2.9792,-2.9792,-2.9792,-2.9792,-2.9792,-2.9792,-2.9792,-2.9792,-2.9792,-2.9792,-2.9792,-2.9817,-2.9817,-2.9817,-2.9829,-2.9285,-2.8143,-2.8091,-2.6935,-2.4829,-2.4787,-2.4166,-2.311,-2.311,-2.311,-2.3091,-2.3091,-2.3091,-2.3052,-2.2695,-2.3261,-2.4166,-2.3754,-2.4898,-2.68,0.0,0.0,0.0,0.0,0.0,0.0,0.0,0.0,0.0,0.0,-2.085,-2.1055,-2.1055,-2.1122,-2.1444,-2.2109,-2.2275,-2.2998,-2.4535,0.0,-2.528,-2.5692,-2.6224,-2.5557,-2.3594,-2.3266,-2.3831,-2.5367,-2.5537,-2.6379,-2.7878,-2.8014,-2.7939,-2.759,-2.759,-2.7338,-2.6867,-2.5994,-2.5334,-2.4792,-2.3593,-2.3091,-2.3091,0.0,0.0,0.0,0.0,0.0,0.0,0.0,0.0,0.0,0.0,0.0,0.0,0.0,0.0,0.0,0.0,0.0,0.0,0.0,0.0,0.0,0.0,0.0,0.0,0.0,0.0,0.0,0.0,0.0,0.0,0.0,0.0,-2.8819,-2.9104,-2.9387,-2.9616,-2.9779,-2.9792,-2.9792,-2.9792,-2.9792,-2.9792,-2.9792,-2.9792,-2.9792,-2.9792,-2.9792,-2.9792,-2.9792,-3.0181,-3.0394,-3.0394,-3.0771,-3.0343,-2.9184,-2.8334,-2.7181,-2.5727,-2.4891,-2.4192,-2.3613,-2.3613,-2.3428,-2.3091,-2.3091,-2.3091,-2.3169,-2.3874,-2.4355,-2.4714,-2.5417,-2.6542,-2.7864,0.0,0.0,0.0,0.0,0.0,0.0,0.0,0.0,0.0,0.0,-2.0957,-2.119,-2.119,-2.1356,-2.1777,-2.2451,-2.3073,-2.4071,-2.5399,0.0,-2.6491,-2.5546,-2.6584,-2.613,-2.3877,-2.3991,-2.4543,-2.5523,-2.6485,-2.7393,-2.8341,-2.9607,-2.9625,-2.8644,-2.8644,-2.8266,-2.75,-2.6295,-2.5538,-2.4999,-2.3831,-2.3257,-2.3091,-2.3091,-2.3091,-2.3091,-2.3091,-2.3091,-2.3091,-2.3091,0.0,0.0,0.0,0.0,0.0,0.0,0.0,0.0,0.0,0.0,0.0,0.0,0.0,0.0,0.0,0.0,0.0,0.0,0.0,0.0,0.0,0.0,0.0,0.0,-2.7959,-2.9236,-2.974,-2.9792,-2.9792,-2.9792,-2.9792,-2.9792,-2.9792,-2.9792,-2.9892,-3.0118,-3.0143,-3.0231,-3.0444,-3.047,-3.047,-3.047,-3.0771,-3.0947,-3.0947,-3.1235,-3.0828,-2.9677,-2.8491,-2.7316,-2.6148,-2.4955,-2.4287,0.0,-2.4053,-2.3906,-2.3627,-2.3627,-2.3627,0.0,0.0,0.0,0.0,0.0,-2.6883,-2.7574,0.0,0.0,0.0,0.0,0.0,0.0,0.0,0.0,0.0,0.0,0.0,-2.121,-2.1259,-2.165,-2.207,-2.2539,-2.3953,-2.5294,0.0,-2.8343,-2.8502,-2.6389,-2.7238,-2.6808,-2.483,-2.5216,-2.5565,-2.5923,-2.7955,-2.9025,-2.917,-3.1845,-3.1933,-2.9818,-2.9681,-2.8842,-2.75,-2.6003,-2.5211,-2.4858,-2.4218,-2.3643,-2.3159,-2.311,-2.3091,-2.3091,-2.3091,-2.3091,-2.3091,-2.3091,0.0,0.0,0.0,0.0,0.0,0.0,0.0,0.0,0.0,0.0,0.0,0.0,0.0,0.0,0.0,0.0,0.0,0.0,0.0,0.0,0.0,0.0,0.0,0.0,-2.7493,-2.8636,-2.9663,-2.9842,-2.9867,-2.9804,-2.9842,-2.988,-2.988,-2.993,-3.0181,-3.067,-3.0708,-3.0909,-3.1361,0.0,0.0,0.0,0.0,-3.1486,-3.1486,-3.1549,-3.0971,-2.9728,-2.8619,-2.7436,-2.6205,-2.5049,-2.4541,-2.4492,-2.4492,-2.4463,-2.4414,-2.4414,-2.4414,-2.4336,-2.3481,-2.3881,-2.4988,-2.608,-2.6595,0.0,0.0,0.0,0.0,0.0,0.0,0.0,0.0,0.0,0.0,-2.0664,-2.0957,-2.1327,-2.1719,-2.1836,-2.2197,-2.2906,-2.4074,-2.5294,-2.6442,-2.6894,-2.6554,-2.521,-2.5326,-2.5241,-2.483,-2.5282,-2.6649,-2.8962,-2.9809,-3.0949,-3.2222,-3.2846,-3.284,-3.2339,-3.1323,-3.1219,-3.1676,-2.8492,-2.7458,-2.7773,-2.571,-2.4355,-2.3623,-2.3227,-2.3091,-2.3091,-2.3091,-2.3091,-2.3091,-2.3091,-2.3091,-2.2916,-2.1943,-2.2306,0.0,0.0,0.0,0.0,0.0,0.0,0.0,0.0,0.0,0.0,0.0,0.0,0.0,0.0,0.0,0.0,0.0,0.0,0.0,-2.6472,-2.8171,-2.9534,-2.9753,-3.0181,-3.0294,-2.9842,-3.0181,-3.0457,-3.0457,-3.0834,-3.1122,-3.1235,-3.1248,-3.1286,-3.1386,-3.1386,0.0,-3.1386,-3.1813,-3.2051,-3.2051,-3.2516,-3.1661,-2.9477,0.0,0.0,-2.5805,-2.5575,-2.5283,-2.4941,-2.4941,-2.4746,-2.4414,-2.4414,-2.4414,-2.4365,-2.3857,-2.4344,-2.5366,-2.6201,-2.7046,-2.7936,0.0,0.0,0.0,0.0,0.0,0.0,0.0,0.0,0.0,0.0,-2.1143,-2.1835,-2.2625,-2.2899,-2.3504,-2.4703,-2.5305,-2.588,-2.6472,-2.6524,-2.5975,-2.483,-2.5336,-2.563,-2.563,-2.6367,-2.7455,-2.8846,-3.0233,-3.1017,-3.1279,-3.2525,-3.2754,-3.2096,-3.15,-3.1545,-3.1965,-2.8912,-2.7828,-2.8045,-2.593,-2.4861,-2.4355,-2.3711,-2.3286,-2.3091,-2.3091,-2.3091,-2.3091,-2.3091,-2.3091,-2.3003,-2.2403,-2.2633,-2.3003,0.0,0.0,0.0,0.0,0.0,0.0,0.0,0.0,0.0,0.0,0.0,0.0,0.0,0.0,-2.3256,0.0,0.0,-2.6757,-2.7584,-2.91,-3.0294,-3.0557,-3.0834,-3.0796,-3.0269,-3.067,-3.0997,-3.0997,-3.1235,-3.1499,-3.1788,-3.18,-3.1926,-3.2215,-3.2227,-3.2227,-3.2227,-3.2503,-3.2641,-3.2641,-3.293,-3.2152,-3.0305,-2.9681,-2.8448,-2.662,-2.5965,-2.5567,-2.54,-2.54,-2.5283,-2.5031,-2.5031,-2.5031,-2.5029,-2.46,-2.4643,-2.4946,-2.5321,-2.5784,-2.6496,0.0,0.0,0.0,0.0,0.0,0.0,0.0,0.0,0.0,0.0,-2.1222,-2.2037,-2.3091,-2.3718,-2.4818,0.0,-2.6431,-2.6265,-2.6483,-2.6099,-2.5431,-2.45,-2.5347,-2.5933,-2.6141,-2.7249,-2.7957,-2.8275,-3.0375,-3.0938,-3.0181,-3.2152,-3.2556,-3.1545,-3.1311,-3.1223,-3.1033,-2.8634,-2.7589,-2.7463,-2.5847,-2.5145,-2.4863,-2.418,-2.3643,-2.3208,-2.312,-2.3091,-2.3091,-2.3091,-2.3091,-2.3047,-2.2818,-2.2906,-2.3047,-2.2818,-2.2906,0.0,0.0,0.0,0.0,0.0,0.0,0.0,0.0,0.0,-2.312,-2.3198,-2.3218,-2.3622,-2.4878,-2.5997,-2.7262,-2.8828,-3.0024,-3.0909,-3.1336,-3.1486,-3.1399,-3.0972,-3.1298,-3.1549,-3.1549,-3.165,-3.1951,-3.2503,-3.2541,-3.2792,-3.337,-3.3395,-3.3395,-3.3395,-3.3395,-3.3395,-3.3395,-3.3165,-3.2369,-3.1115,-2.9872,-2.8625,-2.7431,-2.6407,-2.5937,-2.5937,-2.5849,-2.5762,-2.5693,-2.5693,-2.5693,-2.5654,-2.5342,-2.498,-2.4648,-2.4703,-2.5037,-2.5688,0.0,0.0,0.0,0.0,0.0,0.0,0.0,0.0,0.0,0.0,0.0,0.0,0.0,0.0,0.0,-2.7681,-2.6108,-2.542,-2.6431,-2.4595,-2.343,-2.3299,-2.343,-2.3973,-2.4957,-2.6534,-2.8099,-2.9593,-3.1264,-3.2299,-3.2711,-3.2982,-3.3025,-3.284,-3.1677,-3.1223,-3.1033,-2.8634,-2.7589,-2.7494,-2.6137,-2.5195,-2.4482,-2.4385,-2.4082,-2.3662,-2.3237,-2.3091,-2.3091,-2.3091,-2.3091,-2.2906,-2.1845,-2.2262,-2.2906,-2.18,-2.2262,-2.3091,-2.3091,-2.3091,-2.3091,-2.3091,-2.3091,-2.3091,0.0,0.0,-2.3208,-2.3633,-2.3721,-2.4222,-2.5808,-2.702,-2.8171,-2.9498,-3.0618,-3.1323,-3.1386,-3.1813,-3.2102,-3.2039,-3.2089,-3.2127,-3.2127,-3.2591,-3.3119,-3.3671,-3.3709,-3.396,-3.4512,-3.4537,-3.4537,-3.4537,-3.4537,-3.4537,-3.4537,-3.3341,-3.2148,-3.0909,-2.9548,-2.8251,-2.7068,-2.6916,-2.6865,-2.6855,-2.6475,-2.6103,-2.5693,-2.5693,-2.5693,-2.5684,-2.5635,-2.5586,-2.5584,-2.5834,-2.7239,-2.9048,0.0,0.0,0.0,0.0,0.0,0.0,0.0,0.0,0.0,0.0,0.0,0.0,0.0,0.0,0.0,-2.8024,-2.6696,-2.5975,-2.6483,-2.4349,-2.3091,-2.3091,-2.3091,-2.3627,-2.4787,-2.5798,-2.6991,-2.8334,-2.9355,-3.0087,-3.0619,-3.0619,-3.0729,-3.0911,-3.0406,-3.0135,-3.0045,-2.8319,-2.7432,-2.7087,-2.5857,-2.4971,-2.4385,-2.4141,-2.3945,-2.3769,-2.3584,-2.3516,0.0,-2.3516,-2.3516,-2.3378,-2.2568,-2.2894,-2.3427,-2.2907,-2.3268,-2.3828,-2.3584,-2.3516,-2.3516,0.0,-2.3516,-2.3584,-2.3783,-2.3842,-2.389,-2.4121,-2.415,-2.4564,-2.5937,-2.7096,-2.8366,0.0,-3.1129,-3.1989,-3.2328,-3.2566,-3.2842,-3.3156,-3.3194,-3.3194,-3.3194,-3.342,-3.3784,-3.4336,-3.4374,-3.4474,-3.4668,-3.468,-3.468,-3.468,-3.468,-3.468,-3.468,-3.4144,-3.3281,-3.2041,-3.1449,-3.01,-2.8176,-2.8176,-2.7743,-2.7002,-2.6826,-2.665,-2.6465,-2.6221,-2.6113,-2.6094,-2.5791,-2.5693,-2.5684,-2.5837,-2.6511,-2.7441,0.0,0.0,0.0,0.0,0.0,0.0,0.0,0.0,0.0,0.0,0.0,0.0,0.0,0.0,-2.8123,-2.8292,-2.7209,-2.6524,-2.6524,-2.4349,-2.3091,-2.3091,-2.3091,-2.3474,-2.4286,-2.5037,-2.5862,-2.6817,-2.7527,-2.8126,-2.8621,-2.8621,-2.8757,-2.9049,-2.9049,-2.8868,-2.8505,-2.7608,-2.6827,-2.611,-2.5248,-2.4629,-2.4209,-2.3906,-2.3711,-2.3623,-2.375,-2.3789,-2.3809,-2.3926,-2.3965,-2.3906,-2.3549,-2.3711,-2.3965,-2.3965,-2.418,-2.4346,-2.4043,-2.3965,0.0,-2.3965,-2.3965,-2.4043,-2.4346,-2.4414,-2.4453,-2.457,-2.459,-2.5083,-2.6732,-2.7721,-2.894,-3.0822,-3.1877,-3.2604,-3.3061,-3.3206,-3.3458,-3.3847,-3.4035,-3.4186,-3.4336,-3.4211,-3.4349,-3.4868,-3.4906,-3.4969,-3.5165,-3.5177,-3.5177,-3.5177,-3.5177,-3.5177,-3.5177,-3.4798,-3.3961,-3.2746,-3.2364,-3.0985,-2.8787,-2.8787,-2.8228,-2.7197,-2.7197,-2.7129,-2.6992,-2.6689,-2.6562,-2.6564,-2.6457,-2.6376,-2.6366,-2.6247,-2.6197,-2.6342,0.0,0.0,0.0,0.0,0.0,0.0,0.0,0.0,0.0,0.0,0.0,0.0,0.0,0.0,-2.6697,-2.8712,-2.7413,-2.6524,-2.6524,-2.4349,-2.3091,-2.3091,-2.3091,-2.3135,-2.3135,-2.4264,-2.5114,-2.5643,-2.6786,-2.7608,-2.8136,-2.8136,-2.8104,-2.8126,-2.8126,-2.7503,-2.6394,-2.6349,-2.5638,-2.448,-2.4434,-2.418,-2.3809,-2.3799,-2.3525,-2.3169,-2.3633,-2.3789,-2.3857,-2.4258,-2.4394,-2.4394,-2.4385,-2.4385,-2.4394,-2.4394,-2.4404,-2.4414,-2.4404,0.0,-2.4394,-2.4394,-2.4394,-2.4394,-2.4414,-2.4414,-2.4531,-2.4961,-2.5096,-2.595,-2.8769,-2.9316,-3.0146,-3.263,-3.3056,-3.3056,-3.3124,-3.3533,-3.3884,-3.3897,-3.4374,-3.4868,0.0,-3.4969,-3.4881,-3.5433,-3.547,-3.5708,-3.6329,-3.6355,-3.6355,-3.6355,-3.6355,-3.6355,-3.6355,-3.5078,-3.3726,-3.2286,-3.0987,-2.9671,-2.8305,-2.8305,-2.809,-2.7699,-2.7699,-2.7402,-2.7012,-2.7002,-2.6992,-2.7045,-2.7852,-2.8094,-2.8091,-2.7699,-2.7542,-2.7542,0.0,0.0,0.0,0.0,0.0,0.0,0.0,0.0,0.0,0.0,0.0,0.0,0.0,0.0,0.0,0.0,-2.7132,-2.6702,-2.5968,-2.483,-2.3877,-2.3135,-2.3091,-2.3091,-2.3091,-2.3464,-2.3751,-2.3934,-2.4316,-2.4769,-2.5266,-2.5266,-2.5375,-2.5653,-2.5653,-2.5437,-2.5027,-2.5027,-2.4649,-2.4004,-2.4004,-2.374,-2.3359,-2.3359,-2.3227,-2.3149,0.0,-2.3789,-2.3809,-2.3955,-2.4004,-2.4004,-2.4004,-2.4199,-2.4531,-2.507,-2.5245,-2.5177,-2.4932,0.0,-2.4844,-2.4844,-2.4844,-2.4922,-2.5225,-2.5245,-2.5284,-2.5488,-2.5518,-2.6056,-2.7876,-2.8866,-2.9954,-3.1589,-3.2568,-3.3124,-3.3124,-3.3558,-3.4035,-3.4399,-3.4893,0.0,0.0,0.0,0.0,-3.6044,-3.6094,-3.6169,-3.6405,-3.6405,-3.6405,-3.6405,-3.6405,-3.6405,-3.6405,-3.5966,-3.5017,-3.3662,-3.1378,-3.0068,-2.9608,-2.8698,-2.8213,-2.8086,-2.8086,-2.7998,-2.7842,-2.7559,-2.7441,-2.7454,-2.74,-2.7422,-2.7462,-2.7831,-2.7992,-2.794,0.0,0.0,0.0,0.0,0.0,0.0,0.0,0.0,0.0,0.0,0.0,0.0,0.0,0.0,0.0,0.0,0.0,-2.6605,-2.5659,-2.4918,-2.4089,-2.3135,-2.3091,-2.3309,-2.3714,-2.3714,-2.3714,-2.3714,-2.3714,-2.3656,-2.3555,-2.3555,-2.3701,-2.3955,-2.3955,-2.3955,-2.3955,-2.3955,-2.3809,-2.3555,-2.3555,-2.3389,-2.3091,-2.3091,-2.3091,0.0,-2.3457,-2.3555,-2.3603,-2.3916,-2.4014,-2.4014,-2.4014,-2.4307,-2.4795,-2.5469,-2.5693,-2.5625,-2.5381,-2.5303,-2.5303,-2.5303,-2.5303,-2.5381,-2.5625,-2.5693,-2.5693,-2.5693,-2.5693,-2.611,-2.7363,-2.8588,-2.9818,-3.0989,-3.2283,-3.3124,-3.3124,-3.3721,-3.4324,-3.4675,-3.5378,0.0,0.0,0.0,0.0,-3.638,-3.6405,-3.6405,-3.6405,-3.6405,-3.6405,-3.6405,-3.6405,-3.6405,-3.6405,-3.6405,-3.5451,-3.3613,-3.0876,-2.9608,-2.9555,-2.8698,-2.8291,-2.8291,-2.8291,-2.8291,-2.8271,-2.7998,-2.7891,-2.7894,-2.7908,-2.7872,-2.8016,-2.8866,-2.9171,-2.9085,0.0,0.0,0.0,0.0,0.0,0.0,0.0,0.0,0.0,0.0,0.0,0.0,0.0,0.0,0.0,0.0,0.0,0.0,-2.5569,-2.4587,-2.376,-2.3173,-2.3169,-2.3681,-2.4702,-2.4787,-2.4787,-2.4702,-2.4702,-2.4168,-2.3178,-2.3178,-2.3222,-2.3256,-2.3256,-2.3266,-2.3178,-2.3178,-2.3178,-2.3178,-2.3135,-2.3135,-2.3178,-2.3135,-2.3091,-2.3091,-2.3091,-2.3091,-2.3218,-2.4036,-2.4365,-2.4385,-2.4414,-2.4717,-2.5156,-2.5605,-2.5693,-2.5693,-2.5693,-2.5693,-2.5693,-2.5693,-2.5693,-2.5693,-2.5693,-2.5693,-2.5693,-2.5693,-2.5693,-2.611,0.0,0.0,-2.9727,-3.0899,-3.2152,-3.2982,-3.2982,-3.3934,-3.4623,0.0,0.0,0.0,0.0,0.0,0.0,-3.631,0.0,-3.6405,-3.6405,-3.6405,-3.6405,-3.6405,-3.6405,-3.6358,-3.631,-3.6203,-3.4896,-3.228,-2.9713,-2.8495,-2.8495,-2.8495,-2.8441,-2.8398,-2.8398,-2.8344,-2.8291,-2.8291,-2.8344,-2.8455,-2.924,-2.9514,-2.9655,-3.0563,-3.0882,-3.0689,0.0,0.0,0.0,0.0,0.0,0.0,0.0,0.0,0.0,0.0,0.0,0.0,0.0,0.0,0.0,0.0,0.0,0.0,-2.4585,-2.4293,-2.4023,-2.3781,-2.4164,-2.4135,-2.3551,-2.4382,-2.4372,-2.3551,-2.3551,-2.3844,-2.4382,-2.4382,-2.484,-2.5641,-2.5641,-2.5179,-2.4382,-2.4382,-2.4382,-2.4296,-2.343,-2.3594,-2.4253,-2.342,-2.3091,-2.3091,-2.3091,-2.3091,0.0,0.0,0.0,0.0,-2.4316,-2.4717,-2.5156,-2.5605,-2.5693,-2.5693,-2.5693,-2.5693,-2.5693,-2.5693,-2.5693,-2.5693,-2.5693,-2.5693,-2.5693,-2.5693,-2.5693,-2.611,0.0,0.0,0.0,-2.9681,-3.0911,0.0,-3.1677,-3.256,0.0,-3.4577,0.0,-3.5319,-3.631,-3.6405,0.0,0.0,-3.581,-3.6405,-3.6405,-3.6405,-3.6405,-3.6405,-3.6405,-3.5918,-3.4933,-3.3848,-3.2982,-3.228,-3.1633,-3.1276,-3.1276,-3.1276,-3.0721,-2.9817,-2.9817,-2.9197,-2.8291,-2.8291,-2.89,-2.9797,-3.0036,-3.0098,-3.019,-3.1059,-3.0734,-3.0063,0.0,0.0,0.0,0.0,0.0,0.0,0.0,0.0,0.0,0.0,0.0,0.0,0.0,0.0,0.0,0.0,0.0,0.0,0.0,-2.353,-2.3601,-2.3689,-2.421,-2.4409,-2.4209,-2.5072,-2.5221,-2.4595,-2.4595,-2.4935,-2.5546,-2.5546,-2.5891,-2.6524,-2.6524,-2.6141,-2.5504,-2.4999,0.0,0.0,0.0,-2.3464,-2.3963,-2.3343,-2.3091,-2.3091,-2.3091,-2.3091,0.0,0.0,0.0,-2.3584,-2.4004,-2.4434,-2.4873,-2.5312,0.0,-2.5693,-2.5693,-2.5693,-2.5693,-2.5693,-2.5693,-2.5693,-2.5693,-2.5693,-2.5693,-2.5693,-2.5693,0.0,-2.662,0.0,0.0,0.0,0.0,0.0,-3.1134,-3.2138,-3.3281,0.0,-3.5061,0.0,-3.631,-3.587,-3.5463,0.0,-3.5966,-3.6156,-3.5559,-3.6061,-3.6518,-3.6757,-3.6769,-3.6486,-3.5966,-3.4393,-3.3565,-3.3565,-3.2684,-3.228,-3.228,-3.228,-3.1876,-3.1173,0.0,-3.0421,-2.9154,-2.9154,-2.925,-2.9408,-2.9408,-2.9755,-3.0441,-3.1477,-3.1367,-3.1061,0.0,0.0,0.0,0.0,0.0,0.0,0.0,0.0,0.0,0.0,0.0,0.0,0.0,0.0,0.0,0.0,0.0,0.0,0.0,0.0,-2.2909,-2.3416,-2.385,-2.4461,-2.5289,-2.5976,-2.6281,0.0,0.0,0.0,-2.6628,0.0,0.0,0.0,0.0,0.0,0.0,0.0,0.0,0.0,-2.3637,-2.3266,-2.3517,0.0,0.0,0.0,-2.3091,0.0,0.0,0.0,-2.3091,-2.3169,-2.3652,-2.4082,-2.4502,-2.4941,-2.5381,-2.5693,-2.5693,-2.5693,-2.5693,-2.5693,-2.5693,-2.5693,-2.5693,-2.5693,-2.5693,-2.5693,0.0,-2.5693,-2.5693,-2.662,-2.7363,-2.7363,0.0,-2.959,-3.0765,-3.1943,-3.3142,-3.4532,-3.554,-3.6108,-3.6108,-3.5223,-3.4981,-3.581,-3.6278,-3.6017,-3.4835,-3.5874,-3.6769,-3.7274,-3.7128,-3.7256,-3.7742,-3.6119,-3.5318,-3.5318,-3.3796,-3.2992,-3.2935,-3.2935,-3.2801,-3.2593,0.0,0.0,-3.0566,-3.0369,-2.9713,-2.8794,-2.8644,-2.9355,-3.0721,-3.1876,-3.228,-3.2576,0.0,0.0,0.0,0.0,0.0,0.0,0.0,0.0,0.0,0.0,-2.1773,0.0,0.0,0.0,0.0,0.0,0.0,0.0,0.0,0.0,0.0,-2.3996,-2.3763,-2.3649,-2.3718,0.0,0.0,0.0,0.0,0.0,0.0,0.0,0.0,0.0,0.0,0.0,0.0,0.0,0.0,0.0,-2.393,-2.4231,-2.5683,0.0,0.0,0.0,0.0,0.0,-2.3091,-2.3091,-2.3091,-2.3169,-2.3652,-2.4082,-2.4502,-2.4941,-2.5381,-2.5693,-2.5693,-2.5693,-2.5693,-2.5693,-2.5693,-2.5693,-2.5693,-2.5693,0.0,0.0,-2.5693,-2.5693,-2.5693,-2.5878,-2.6014,-2.6014,0.0,0.0,0.0,0.0,-3.2089,0.0,0.0,0.0,0.0,0.0,0.0,0.0,0.0,0.0,-3.6746,-3.6939,-3.7299,-3.7852,-3.681,-3.6269,-3.6365,-3.6016,-3.5866,-3.5866,-3.6662,-3.6752,-3.6369,-3.6369,-3.5478,-3.403,0.0,0.0,-3.1876,-3.0773,-3.0824,-3.148,-3.0369,-3.0773,-3.1977,-3.223,-3.228,-3.2532,0.0,0.0,0.0,0.0,0.0,0.0,0.0,0.0,0.0,0.0,-2.2151,-2.2776,0.0,0.0,0.0,0.0,0.0,0.0,0.0,0.0,0.0,0.0,0.0,0.0,0.0,0.0,0.0,0.0,0.0,0.0,0.0,0.0,0.0,0.0,0.0,0.0,0.0,0.0,0.0,0.0,0.0,0.0,0.0,0.0,0.0,0.0,0.0,0.0,-2.3091,-2.3091,-2.3091,-2.313,-2.3344,-2.3896,-2.4453,-2.4668,-2.5205,-2.5693,-2.5693,-2.5693,-2.5693,-2.5693,-2.5693,-2.5693,-2.5693,0.0,0.0,0.0,-2.5693,-2.5693,-2.5693,-2.5693,0.0,0.0,0.0,0.0,0.0,0.0,0.0,0.0,0.0,0.0,0.0,0.0,0.0,0.0,0.0,0.0,-3.6149,-3.6675,-3.7429,-3.8454,-3.7372,-3.7144,-3.7915,-3.7633,-3.7486,-3.7486,-3.783,-3.7864,-3.76,-3.7312,-3.6685,-3.5819,0.0,0.0,-3.3353,-3.2705,-3.2392,-3.223,-3.1582,-3.2191,-3.3403,-3.3403,-3.3403,-3.3613,0.0,0.0,0.0,0.0,0.0,0.0,0.0,-2.0605,-2.0673,-2.0857,-2.2226,-2.3331,-2.3781,-2.4528,-2.4671,0.0,0.0,0.0,0.0,0.0,0.0,0.0,0.0,0.0,0.0,0.0,0.0,0.0,0.0,0.0,0.0,0.0,0.0,0.0,0.0,0.0,0.0,0.0,0.0,0.0,0.0,0.0,0.0,0.0,0.0,0.0,0.0,0.0,0.0,0.0,-2.3091,-2.3091,-2.3091,-2.3617,-2.4307,-2.4385,-2.498,-2.5567,-2.5664,-2.5693,-2.5693,-2.5693,-2.5693,-2.5693,-2.5693,-2.5693,0.0,0.0,-2.5693,-2.5693,-2.5693,0.0,-2.6014,0.0,-2.7173,-2.7955,0.0,0.0,0.0,0.0,0.0,0.0,0.0,0.0,0.0,0.0,0.0,0.0,0.0,-3.6554,-3.756,-3.9044,-3.8362,-3.8518,-3.9697,-3.927,-3.9095,-3.9095,-3.858,-3.8304,-3.8178,-3.7739,-3.7412,-3.7161,0.0,0.0,0.0,-3.4532,-3.3761,-3.2744,-3.2431,-3.3155,-3.4385,-3.4385,-3.4581,-3.4981,0.0,0.0,0.0,0.0,0.0,0.0,0.0,-2.0605,-2.0895,-2.1773,-2.2027,-2.285,-2.4671,-2.4933,-2.4969,0.0,0.0,0.0,0.0,0.0,0.0,0.0,0.0,0.0,0.0,0.0,0.0,0.0,0.0,0.0,0.0,0.0,0.0,0.0,0.0,0.0,0.0,0.0,0.0,0.0,0.0,0.0,0.0,0.0,0.0,0.0,0.0,0.0,0.0,0.0,0.0,-2.3091,-2.3091,-2.3467,-2.3926,-2.4307,0.0,0.0,-2.5577,-2.5693,-2.5693,-2.5693,-2.5693,-2.5693,-2.5693,0.0,-2.5693,-2.5693,-2.5693,-2.5693,-2.5693,-2.5693,-2.5732,-2.5878,-2.5878,-2.6342,0.0,0.0,0.0,0.0,0.0,0.0,0.0,0.0,0.0,0.0,0.0,0.0,0.0,-3.7855,-3.8117,-3.9558,-3.9556,-3.9581,-3.9697,-3.9647,-3.9622,-3.9622,-3.9572,-3.9283,-3.8844,-3.8793,-3.8202,-3.7186,0.0,0.0,0.0,-3.4872,-3.4337,-3.408,-3.2794,-3.3155,-3.4385,-3.4385,-3.5174,-3.6203,0.0,0.0,0.0,0.0,0.0,0.0,0.0,-2.1078,-2.1593,-2.1952,-2.3036,-2.4108,-2.4898,-2.5004,-2.5229,0.0,0.0,0.0,0.0,0.0,0.0,0.0,0.0,0.0,0.0,0.0,0.0,0.0,0.0,0.0,0.0,0.0,0.0,0.0,0.0,0.0,0.0,0.0,0.0,0.0,0.0,0.0,0.0,0.0,0.0,0.0,0.0,0.0,0.0,0.0,0.0,0.0,-2.3091,-2.3437,0.0,0.0,-2.4922,-2.5508,-2.5635,-2.5693,-2.5693,-2.5693,-2.5693,-2.5693,-2.5693,0.0,-2.5693,-2.5693,-2.5693,-2.5693,-2.5693,-2.5693,-2.6197,-2.7662,-2.7945,0.0,-3.0643,0.0,0.0,0.0,0.0,0.0,0.0,0.0,0.0,0.0,0.0,0.0,0.0,-3.6866,-3.7263,-3.9633,-3.8856,-3.8804,-3.9697,-3.9697,-3.9697,-3.9697,-3.9697,-3.9584,-3.9358,-3.907,-3.8429,-3.7663,0.0,0.0,0.0,-3.581,-3.5619,-3.5559,-3.5005,-3.5102,-3.5619,-3.5619,-3.5966,-3.6405,0.0,0.0,0.0,0.0,0.0,0.0,-2.0972,-2.1593,-2.2103,-2.2403,-2.3672,-2.4671,-2.4969,-2.5004,-2.5406,-2.6418,0.0,0.0,0.0,0.0,0.0,0.0,0.0,0.0,0.0,0.0,0.0,0.0,0.0,0.0,0.0,0.0,0.0,0.0,0.0,0.0,0.0,0.0,0.0,0.0,0.0,0.0,0.0,0.0,0.0,0.0,0.0,0.0,0.0,0.0,0.0,0.0,0.0,-2.3437,-2.3867,0.0,-2.4951,-2.5566,-2.5654,-2.5693,-2.5693,-2.5693,-2.5693,-2.5693,0.0,0.0,-2.5693,-2.5693,-2.5693,-2.5693,-2.5693,-2.5693,-2.6294,-2.8028,-2.8634,-2.9464,-3.1247,-3.2098,0.0,0.0,0.0,0.0,0.0,0.0,0.0,0.0,0.0,0.0,0.0,0.0,-3.7103,-3.9633,-3.8687,-3.8635,-3.9697,-3.9697,-3.9697,-3.9697,-3.9697,-3.9697,-3.9685,-3.9295,-3.8705,0.0,0.0,0.0,0.0,-3.6405,-3.6405,-3.6405,-3.6405,-3.6405,-3.6405,-3.6405,-3.6405,-3.6405,0.0,0.0,0.0,0.0,0.0,0.0,0.0,-2.1989,-2.2366,-2.3331,-2.3514,-2.3891,-2.4898,-2.5004,-2.5406,-2.6418,0.0,0.0,0.0,0.0,0.0,0.0,0.0,0.0,0.0,0.0,0.0,-2.3478,-2.448,0.0,0.0,0.0,0.0,0.0,0.0,0.0,0.0,0.0,0.0,0.0,0.0,0.0,0.0,0.0,0.0,0.0,0.0,0.0,0.0,0.0,0.0,0.0,0.0,-2.3437,-2.3867,-2.4287,-2.4727,-2.5176,-2.5567,-2.5693,-2.5693,-2.5693,-2.5693,-2.5693,0.0,0.0,-2.5693,-2.5693,-2.5693,-2.5693,-2.5693,-2.5693,-2.5684,-2.5732,-2.6802,-2.7636,-2.7636,0.0,0.0,0.0,0.0,0.0,0.0,0.0,0.0,0.0,0.0,0.0,0.0,0.0,-3.819,-3.9633,-3.9697,-3.9685,-3.9697,-3.9697,-3.9697,-3.9697,-3.9697,-3.9697,-3.9697,-3.9685,0.0,0.0,0.0,0.0,0.0,-3.6405,-3.6405,-3.6405,-3.6405,-3.6405,-3.6405,-3.6405,-3.6405,-3.6405,0.0,0.0,0.0,0.0,0.0,0.0,0.0,-2.3599,-2.4156,-2.448,-2.5099,-2.5687,-2.599,-2.5406,-2.5406,-2.6418,0.0,0.0,0.0,0.0,0.0,0.0,0.0,0.0,0.0,0.0,-2.4862,-2.4528,-2.4156,-2.3818,0.0,0.0,0.0,0.0,0.0,0.0,0.0,0.0,0.0,0.0,0.0,0.0,0.0,0.0,0.0,0.0,0.0,0.0,0.0,0.0,0.0,0.0,0.0,0.0,0.0,-2.4287,-2.4727,0.0,-2.5567,-2.5693,-2.5693,-2.5693,-2.5693,-2.5693,-2.5693,0.0,-2.5693,-2.5693,-2.5693,-2.5693,-2.5693,-2.5693,-2.6245,-2.7945,-2.8588,-2.9131,0.0,0.0,0.0,0.0,0.0,0.0,0.0,0.0,0.0,0.0,0.0,0.0,0.0,0.0,-3.9245,-3.9697,-3.9697,-3.9697,-3.9697,-3.9697,-3.9697,-3.9697,-3.9697,-3.9697,-3.9685,-3.9308,0.0,0.0,0.0,0.0,0.0,-3.6405,-3.6405,-3.6405,-3.6405,-3.6405,-3.6405,-3.6405,-3.6405,-3.6405,0.0,0.0,0.0,0.0,0.0,0.0,0.0,-2.4337,-2.5158,-2.5511,-2.6094,-2.6499,-2.6499,-2.5955,-2.5804,-2.6465,0.0,0.0,0.0,0.0,0.0,0.0,0.0,0.0,0.0,-2.5873,-2.5581,-2.5581,-2.4957,-2.4624,-2.466,-2.5288,-2.5581,0.0,0.0,0.0,0.0,0.0,0.0,0.0,0.0,0.0,-2.0605,0.0,0.0,0.0,0.0,0.0,0.0,0.0,0.0,0.0,0.0,0.0,0.0,0.0,-2.4482,-2.4951,-2.5528,-2.5693,-2.5693,-2.5693,-2.5693,0.0,0.0,-2.5693,-2.5693,-2.5693,-2.5693,-2.5693,-2.5693,-2.611,-2.6754,-2.7851,-2.9166,-3.0045,0.0,0.0,0.0,0.0,0.0,0.0,0.0,0.0,0.0,0.0,0.0,0.0,0.0,0.0,-3.9697,-3.9697,-3.9697,-3.9697,-3.9697,-3.9697,-3.9697,-3.9697,-3.9484,-3.9383,-3.9371,0.0,0.0,0.0,0.0,0.0,0.0,-3.6405,-3.6405,-3.6405,-3.6405,-3.6405,-3.6405,-3.6405,-3.6405,-3.6405,0.0,0.0,0.0,0.0,0.0,0.0,0.0,0.0,0.0,0.0,-2.6499,-2.6499,-2.6499,-2.6499,-2.6499,0.0,0.0,0.0,0.0,0.0,0.0,0.0,0.0,0.0,0.0,-2.6499,-2.6499,-2.6499,-2.6499,-2.6499,-2.6499,-2.6499,-2.6499,-2.6499,-2.6499,0.0,0.0,0.0,0.0,0.0,0.0,0.0,0.0,0.0,0.0,0.0,0.0,0.0,0.0,0.0,0.0,0.0,0.0,0.0,0.0,0.0,0.0,0.0,0.0,-2.5664,-2.5693,-2.5693,0.0,0.0,-2.5693,-2.5693,0.0,-2.5693,-2.5693,-2.5693,-2.5693,-2.6754,-2.722,-2.6014,-2.8844,0.0,0.0,0.0,0.0,0.0,0.0,0.0,0.0,0.0,0.0,0.0,0.0,0.0,0.0,0.0,0.0,-3.9572,-3.9572,-3.9597,-3.9634,-3.9597,-3.9572,-3.9572,-3.9057,-3.8856,-3.8844,0.0,0.0,0.0,0.0,0.0,0.0,-3.6405,-3.6405,-3.6405,-3.6405,-3.6405,-3.6405,-3.6405,-3.6405,-3.6405,0.0,0.0,0.0,0.0,0.0,0.0,0.0,0.0,0.0,0.0,-2.6499,-2.6499,-2.6499,-2.6499,0.0,0.0,0.0,0.0,0.0,0.0,0.0,0.0,0.0,0.0,0.0,-2.6499,-2.6499,-2.6499,-2.6499,-2.6499,-2.6499,-2.6499,-2.6499,-2.6499,-2.6499,0.0,0.0,0.0,0.0,0.0,0.0,0.0,0.0,0.0,0.0,0.0,-2.1602,-2.1953,0.0,0.0,0.0,0.0,0.0,0.0,0.0,0.0,-2.3857,-2.4121,-2.499,0.0,-2.5693,-2.5693,-2.5693,-2.5693,0.0,-2.5693,-2.5693,-2.5693,-2.5693,-2.5693,-2.5693,-2.6754,-2.7494,-2.722,0.0,0.0,0.0,0.0,0.0,0.0,0.0,0.0,0.0,0.0,0.0,0.0,0.0,0.0,0.0,0.0,0.0,-3.8404,-3.8404,-3.8617,-3.9057,-3.863,-3.8404,-3.8404,-3.8266,-3.8216,-3.8191,0.0,0.0,0.0,0.0,0.0,0.0,-3.6405,-3.6405,-3.6405,-3.6405,-3.6405,-3.6405,-3.6405,-3.6405,-3.6405,0.0,0.0,0.0,0.0,0.0,0.0,0.0,0.0,0.0,0.0,0.0,0.0,0.0,0.0,0.0,0.0,0.0,0.0,0.0,0.0,0.0,0.0,0.0,0.0,-2.6499,-2.6499,-2.6499,-2.6499,-2.6499,-2.6499,-2.6499,-2.6499,-2.6499,-2.6499,-2.6499,-2.5652,0.0,0.0,0.0,0.0,0.0,0.0,0.0,0.0,0.0,0.0,-2.1572,-2.1885,0.0,-2.2808,-2.3091,-2.3091,0.0,0.0,0.0,0.0,-2.3633,-2.3935,-2.459,-2.5088,-2.5478,-2.5635,-2.5693,-2.5693,-2.5693,-2.5693,-2.5693,-2.5693,-2.5693,-2.5693,-2.5693,-2.721,0.0,0.0,0.0,0.0,0.0,0.0,0.0,0.0,0.0,0.0,0.0,0.0,0.0,0.0,0.0,0.0,0.0,0.0,0.0,0.0,-3.6249,-3.6646,-3.8467,-3.8165,-3.8002,-3.8002,-3.7751,-3.7626,-3.7613,0.0,0.0,0.0,0.0,0.0,-3.6405,-3.6405,-3.6405,-3.6405,-3.6405,-3.6405,-3.6405,-3.6405,-3.6405,-3.6405,0.0,0.0,0.0,0.0,0.0,0.0,0.0,0.0,0.0,0.0,0.0,0.0,0.0,0.0,0.0,0.0,0.0,0.0,0.0,0.0,0.0,0.0,0.0,-2.6499,-2.6499,-2.6499,-2.6499,-2.6499,-2.6499,-2.6499,-2.6499,-2.6499,-2.6499,-2.6499,-2.6499,-2.5955,0.0,0.0,0.0,0.0,-2.1193,0.0,0.0,0.0,0.0,0.0,0.0,0.0,0.0,-2.2783,-2.3042,-2.3091,-2.3091,0.0,0.0,0.0,0.0,0.0,-2.4209,-2.459,-2.501,-2.5596,-2.5693,-2.5693,-2.5693,-2.5693,-2.5693,-2.5693,0.0,0.0,0.0,-2.7898,0.0,0.0,0.0,0.0,0.0,0.0,0.0,0.0,0.0,0.0,0.0,0.0,0.0,0.0,0.0,0.0,0.0,0.0,0.0,0.0,-3.4231,-3.4563,-3.7122,-3.7345,-3.7554,-3.7751,-3.7287,-3.7061,-3.7048,-3.6619,0.0,0.0,0.0,0.0,-3.6405,-3.6405,-3.6405,-3.6405,-3.6405,-3.6405,-3.6405,-3.6405,-3.6405,-3.6405,0.0,0.0,0.0,0.0,0.0,0.0,0.0,0.0,0.0,0.0,0.0,0.0,0.0,0.0,0.0,0.0,0.0,0.0,0.0,0.0,0.0,0.0,-2.6499,-2.6499,-2.6499,-2.6499,-2.6499,-2.6499,-2.6499,-2.6499,-2.6499,-2.6499,-2.6499,-2.6499,-2.6499,-2.5955,-2.4981,-2.4826,-2.4192,-2.3184,0.0,0.0,0.0,0.0,0.0,0.0,0.0,0.0,0.0,-2.2441,-2.2799,-2.3091,-2.3091,0.0,0.0,0.0,0.0,0.0,-2.3769,-2.3935,-2.4268,-2.5401,-2.5693,-2.5693,-2.5693,-2.5693,-2.5693,-2.5693,0.0,0.0,0.0,-2.8577,0.0,0.0,0.0,0.0,0.0,0.0,0.0,0.0,0.0,0.0,0.0,0.0,0.0,0.0,0.0,0.0,0.0,0.0,0.0,0.0,0.0,-3.3875,-3.3161,-3.4353,-3.5515,-3.6656,-3.6568,-3.6531,-3.6531,-3.6455,-3.6405,0.0,0.0,0.0,-3.6405,-3.6405,-3.6405,-3.6405,-3.6405,-3.6405,-3.6405,-3.6405,-3.6405,-3.6405,0.0,0.0,0.0,0.0,0.0,0.0,0.0,0.0,0.0,0.0,0.0,0.0,0.0,0.0,0.0,0.0,0.0,0.0,0.0,0.0,0.0,-2.6499,-2.6499,-2.6499,-2.6499,-2.6499,-2.6499,-2.6499,-2.6499,-2.6499,-2.6499,-2.6499,-2.6499,-2.6499,-2.6499,-2.5955,-2.5004,-2.5004,-2.412,-2.2664,0.0,0.0,0.0,0.0,0.0,0.0,0.0,0.0,0.0,0.0,-2.275,-2.3091,-2.3091,0.0,0.0,0.0,0.0,0.0,-2.3672,-2.3789,-2.4043,-2.5107,-2.5371,-2.5439,-2.5635,-2.5693,-2.5693,-2.5693,0.0,0.0,0.0,0.0,0.0,0.0,0.0,0.0,0.0,0.0,0.0,0.0,0.0,0.0,0.0,0.0,0.0,0.0,0.0,0.0,0.0,0.0,0.0,0.0,0.0,0.0,-3.1224,-3.2593,-3.3958,-3.5319,-3.6061,-3.6405,-3.6405,-3.6405,-3.6405,0.0,0.0,-3.6405,-3.6405,-3.6405,-3.6405,-3.6405,-3.6405,-3.6405,-3.6405,-3.6405,-3.6405,-3.6405,0.0,0.0,0.0,0.0,0.0,0.0,0.0,0.0,0.0,0.0,0.0,0.0,0.0,0.0,0.0,0.0,0.0,0.0,0.0,0.0,-2.6499,-2.6499,-2.6499,-2.6499,-2.6499,-2.6499,-2.6499,-2.6499,-2.6499,-2.6499,-2.6499,-2.6499,-2.6499,-2.6499,-2.6499,-2.606,-2.5335,-2.5087,-2.4108,-2.2664,0.0,0.0,0.0,0.0,0.0,0.0,0.0,0.0,0.0,0.0,0.0,0.0,0.0,0.0,0.0,-2.3091,-2.3091,-2.3169,-2.3545,-2.3633,-2.3848,-2.4697,-2.5037,-2.5281,-2.6011,-2.6159,-2.6245,-2.6514,0.0,0.0,0.0,0.0,0.0,0.0,0.0,0.0,0.0,0.0,0.0,0.0,0.0,0.0,0.0,0.0,0.0,0.0,0.0,0.0,0.0,0.0,0.0,0.0,0.0,0.0,-2.9807,-3.148,-3.3005,-3.4434,-3.5763,-3.6405,-3.6405,-3.6405,-3.6405,-3.6405,-3.6405,-3.6405,-3.6405,-3.6405,-3.6405,-3.6405,-3.6405,-3.6405,-3.6405,-3.6405,-3.6405,-3.6405,0.0,0.0,0.0,0.0,0.0,0.0,0.0,0.0,0.0,0.0,0.0,0.0,0.0,0.0,0.0,0.0,0.0,0.0,0.0,0.0,-2.6499,-2.6499,-2.6499,-2.6499,-2.6499,-2.6499,-2.6499,-2.6499,-2.6499,-2.6499,-2.6499,-2.6499,-2.6499,-2.6499,-2.6499,-2.6452,-2.6349,-2.5406,-2.4933,-2.4636,-2.2739,0.0,0.0,0.0,0.0,0.0,0.0,0.0,0.0,0.0,0.0,0.0,0.0,0.0,-2.3091,-2.3091,-2.3091,-2.3101,-2.313,-2.314,-2.3344,-2.4248,-2.4766,-2.5508,-2.7107,-2.7447,-2.7767,-2.8901,0.0,0.0,0.0,0.0,0.0,0.0,0.0,0.0,0.0,0.0,0.0,0.0,0.0,0.0,0.0,0.0,0.0,0.0,0.0,0.0,0.0,0.0,0.0,0.0,0.0,0.0,-2.8441,-3.1019,-3.3005,-3.4434,-3.5763,-3.6405,-3.6405,-3.6405,-3.6405,-3.6405,-3.6405,-3.6405,-3.6405,-3.6405,-3.6405,-3.6405,-3.6405,-3.6405,-3.6405,-3.6405,-3.6405,-3.6405,0.0,0.0,0.0,0.0,0.0,0.0,0.0,0.0,0.0,0.0,0.0,0.0,0.0,0.0,0.0,0.0,0.0,0.0,0.0,0.0,-2.6499,-2.6499,-2.6499,-2.6499,-2.6499,-2.6499,-2.6499,-2.6499,-2.6499,-2.6499,-2.6499,-2.6499,-2.6499,-2.6499,-2.6499,-2.6499,-2.6499,-2.6094,-2.5217,-2.4,-2.3257,-2.2226,0.0,0.0,0.0,0.0,0.0,0.0,0.0,0.0,-2.2441,-2.3091,-2.3091,-2.3091,-2.3091,-2.3091,-2.3091,-2.3091,-2.3091,-2.3637,-2.4158,-2.4047,-2.4676,-2.5675,-2.7254,-2.7589,-2.7955,-2.9131,-3.0361,0.0,0.0,0.0,0.0,0.0,0.0,0.0,0.0,0.0,0.0,0.0,0.0,0.0,0.0,0.0,0.0,0.0,0.0,0.0,0.0,0.0,0.0,0.0,0.0,0.0,0.0,-3.2252,-3.3871,-3.4434,-3.5763,-3.6405,-3.6405,-3.6405,-3.6405,-3.6405,-3.6405,-3.6405,-3.6405,-3.6405,-3.6405,-3.6405,-3.6405,-3.6405,-3.6405,-3.6405,-3.6405,-3.6405,0.0,0.0,0.0,0.0,0.0,0.0,0.0,0.0,0.0,0.0,0.0,0.0,0.0,0.0,0.0,0.0,0.0,0.0,0.0,-2.6499,-2.6499,-2.6499,-2.6499,-2.6499,-2.6499,-2.6499,-2.6499,-2.6499,-2.6499,-2.6499,-2.6499,-2.6499,-2.6499,-2.6499,-2.6499,-2.6499,-2.6499,-2.6164,-2.5063,-2.3514,-2.3514,-2.2339,0.0,0.0,0.0,0.0,0.0,0.0,0.0,0.0,-2.2441,-2.3091,-2.3091,-2.3091,-2.3091,-2.3091,-2.3091,-2.3091,-2.3091,-2.3681,-2.4194,-2.3895,-2.4607,-2.5784,-2.7345,-2.7857,-2.8416,-2.9984,-3.1116,-3.2052,-3.2939,0.0,0.0,0.0,0.0,0.0,0.0,0.0,0.0,0.0,0.0,0.0,0.0,0.0,0.0,0.0,0.0,0.0,0.0,0.0,0.0,0.0,0.0,0.0,0.0,-3.3266,-3.4385,-3.4434,-3.5763,-3.6405,-3.6405,-3.6405,-3.6405,-3.6405,-3.6405,-3.6405,-3.6405,-3.6405,-3.6405,-3.6405,-3.6405,-3.6405,-3.6405,-3.6405,-3.6405,-3.6405,0.0,0.0,0.0,0.0,0.0,0.0,0.0,0.0,0.0,0.0,0.0,0.0,0.0,0.0,0.0,0.0,0.0,0.0,-2.6499,-2.6487,-2.6499,-2.6499,-2.6487,-2.6499,-2.6499,-2.6499,-2.6499,-2.6499,-2.6499,-2.6499,-2.6499,-2.6499,-2.6499,-2.6499,-2.6499,-2.6499,-2.6418,-2.5441,-2.4409,-2.3514,-2.3514,-2.2339,-2.0712,0.0,0.0,0.0,0.0,0.0,0.0,0.0,-2.2441,-2.3091,-2.3091,-2.3091,-2.3091,-2.3091,-2.3091,-2.3091,-2.3091,-2.3135,-2.3242,-2.3672,0.0,0.0,-2.7501,-2.8364,-2.9445,-3.1739,-3.2667,-3.3111,-3.3124,0.0,0.0,0.0,0.0,0.0,0.0,0.0,0.0,0.0,0.0,0.0,0.0,0.0,0.0,0.0,0.0,0.0,0.0,0.0,0.0,0.0,0.0,0.0,0.0,-3.3712,-3.4434,-3.4434,-3.5775,-3.6405,-3.6405,-3.6405,-3.6405,-3.6405,-3.6405,-3.6405,-3.6405,-3.6405,-3.6405,-3.6405,-3.6405,-3.6405,-3.6405,-3.6405,-3.6405,-3.6405,0.0,0.0,0.0,0.0,0.0,0.0,0.0,0.0,0.0,0.0,0.0,0.0,0.0,0.0,0.0,0.0,0.0,0.0,-2.5476,-2.6094,-2.6164,-2.5476,-2.6129,-2.6499,-2.6499,-2.6499,-2.6499,-2.6499,-2.6499,-2.6499,-2.6499,-2.6499,-2.6499,-2.6499,-2.6499,-2.6499,-2.6487,-2.6164,-2.5476,-2.4564,-2.4564,-2.3368,-2.1631,0.0,0.0,0.0,0.0,0.0,0.0,0.0,0.0,0.0,-2.3091,-2.3091,-2.3091,-2.3091,-2.3091,-2.3091,-2.3091,-2.4264,0.0,-2.3676,0.0,0.0,0.0,-2.8474,0.0,0.0,-3.2641,-3.2591,-3.3006,0.0,0.0,0.0,0.0,0.0,0.0,0.0,0.0,0.0,0.0,0.0,0.0,0.0,0.0,0.0,0.0,0.0,0.0,0.0,0.0,0.0,0.0,0.0,0.0,0.0,-3.581,-3.581,-3.6203,-3.6405,-3.6405,-3.6405,-3.6405,-3.6405,-3.6405,-3.6405,-3.6405,-3.6405,-3.6405,-3.6405,-3.6405,-3.6405,-3.6405,-3.6405,-3.6405,-3.6355,0.0,0.0,0.0,0.0,0.0,0.0,0.0,0.0,0.0,0.0,0.0,0.0,0.0,0.0,0.0,0.0,0.0,0.0,0.0,0.0,-2.5629,-2.5052,-2.5943,-2.6499,-2.6499,-2.6499,-2.6499,-2.6499,-2.6499,-2.6499,-2.6499,-2.6499,-2.6499,-2.6499,-2.6499,-2.6499,-2.6452,-2.606,-2.5546,-2.5004,-2.5004,-2.4036,-2.259,0.0,0.0,0.0,0.0,0.0,0.0,0.0,0.0,0.0,-2.3091,-2.3091,-2.3178,-2.3637,-2.3464,-2.3309,-2.4178,-2.4808,0.0,-2.4563,-2.5964,-2.758,-2.8017,0.0,0.0,0.0,0.0,0.0,0.0,0.0,0.0,0.0,0.0,0.0,0.0,0.0,0.0,0.0,0.0,0.0,0.0,0.0,0.0,0.0,0.0,0.0,0.0,0.0,0.0,0.0,0.0,0.0,0.0,0.0,0.0,-3.5705,-3.5705,-3.5705,-3.5717,-3.6204,-3.6405,-3.6405,-3.6405,-3.6405,-3.6405,-3.6405,-3.6405,-3.6405,-3.6405,-3.6405,-3.6405,-3.6405,-3.6267,-3.5994,0.0,0.0,0.0,0.0,0.0,0.0,0.0,0.0,0.0,0.0,-2.1962,0.0,0.0,0.0,0.0,0.0,0.0,0.0,0.0,0.0,-2.5004,-2.5004,-2.5943,-2.6499,-2.6499,-2.6499,-2.6499,-2.6499,-2.6499,-2.6499,-2.6499,-2.6499,-2.6499,-2.6499,-2.6499,-2.6499,-2.6452,-2.5511,-2.5158,-2.5158,-2.5158,-2.448,-2.3514,-2.3514,0.0,0.0,0.0,0.0,0.0,0.0,0.0,0.0,-2.3091,-2.3091,-2.3299,-2.4329,-2.392,-2.3551,-2.5766,-2.4851,-2.3767,-2.5975,-2.6554,0.0,-2.9918,-3.0545,-3.0846,-3.1926,0.0,0.0,0.0,0.0,0.0,0.0,0.0,0.0,0.0,0.0,0.0,0.0,0.0,0.0,0.0,0.0,0.0,0.0,0.0,0.0,0.0,0.0,0.0,0.0,0.0,0.0,0.0,0.0,0.0,0.0,-3.468,-3.468,-3.4763,-3.5755,-3.6267,-3.6267,-3.6267,-3.6279,-3.6329,-3.6329,-3.6329,-3.6329,-3.6329,-3.6304,-3.6267,-3.6267,-3.5893,-3.542,0.0,0.0,0.0,0.0,0.0,0.0,0.0,0.0,0.0,0.0,0.0,0.0,0.0,0.0,0.0,0.0,0.0,0.0,0.0,0.0,-2.5004,-2.5004,-2.5943,-2.6499,-2.6499,-2.6499,-2.6499,-2.6499,-2.6499,-2.6499,-2.6499,-2.6499,-2.6499,-2.6499,-2.6499,-2.6499,-2.6499,-2.628,-2.6176,-2.6176,-2.6176,-2.5099,-2.3514,-2.3514,-2.2414,0.0,0.0,0.0,0.0,0.0,0.0,0.0,-2.3091,-2.3091,-2.3135,-2.3387,-2.3299,-2.3387,-2.4798,-2.4798,0.0,0.0,-2.7128,-2.8143,-2.9644,-2.9967,-3.0281,0.0,0.0,0.0,0.0,0.0,0.0,0.0,0.0,0.0,0.0,0.0,0.0,0.0,0.0,0.0,0.0,0.0,0.0,0.0,0.0,0.0,0.0,0.0,0.0,0.0,0.0,0.0,-3.468,-3.4441,-3.4441,0.0,-3.468,-3.468,-3.4726,-3.4964,-3.5077,-3.5077,-3.5077,-3.5316,-3.5671,-3.5671,-3.5671,-3.5671,-3.5671,-3.5454,-3.5077,-3.5077,-3.5002,-3.4793,0.0,0.0,0.0,0.0,0.0,0.0,0.0,0.0,0.0,0.0,0.0,0.0,0.0,0.0,0.0,0.0,0.0,0.0,0.0,0.0,0.0,-2.5699,-2.6211,-2.6499,-2.6499,-2.6499,-2.6499,-2.6499,-2.6499,-2.6499,-2.6499,-2.6499,-2.6499,-2.6499,-2.6499,-2.6499,-2.6499,-2.6499,-2.6499,-2.6452,-2.599,-2.5429,-2.4838,-2.3879,-2.3184,-2.2638,-2.2161,0.0,0.0,0.0,0.0,0.0,0.0,0.0,-2.3222,-2.3757,-2.392,-2.4253,-2.5942,0.0,0.0,-2.6224,0.0,-2.9067,-2.9663,-2.9792,0.0,0.0,0.0,0.0,0.0,0.0,0.0,0.0,0.0,0.0,0.0,0.0,0.0,0.0,0.0,0.0,0.0,0.0,0.0,0.0,0.0,0.0,0.0,0.0,0.0,0.0,0.0,0.0,-3.3935,-3.3321,-3.3321,-3.3935,-3.3935,-3.3935,-3.3947,-3.4487,-3.468,-3.468,-3.468,-3.4843,-3.5107,-3.5107,-3.5107,-3.5107,-3.5107,-3.4931,-3.468,-3.468,-3.4562,-3.4286,0.0,0.0,0.0,0.0,0.0,0.0,0.0,0.0,0.0,0.0,0.0,0.0,0.0,0.0,0.0,0.0,0.0,0.0,0.0,0.0,0.0,-2.6418,-2.6499,-2.6499,-2.6499,-2.6499,-2.6499,-2.6499,-2.6499,-2.6499,-2.6499,-2.6499,-2.6499,-2.6499,-2.6499,-2.6499,-2.6499,-2.6499,-2.6499,-2.6418,-2.5581,-2.5664,-2.606,-2.4397,-2.4192,-2.46,-2.3588,-2.3269,-2.3282,-2.3322,0.0,0.0,0.0,0.0,-2.3594,-2.45,-2.4787,-2.5284,-2.751,0.0,-2.5577,-2.6554,-2.8159,0.0,-2.9753,-2.9792,0.0,0.0,0.0,0.0,0.0,0.0,0.0,0.0,0.0,0.0,0.0,0.0,0.0,0.0,0.0,0.0,0.0,0.0,0.0,0.0,0.0,0.0,0.0,0.0,0.0,0.0,0.0,-3.2052,-3.3081,-3.2052,-3.2052,-3.3124,-3.3124,-3.3124,-3.3106,-3.4022,-3.4437,-3.4437,-3.4437,-3.45,-3.4575,-3.4575,-3.4575,-3.4575,-3.4575,-3.4525,-3.4437,-3.4437,-3.4148,-3.3759,0.0,0.0,0.0,0.0,0.0,0.0,0.0,0.0,0.0,0.0,0.0,0.0,0.0,0.0,0.0,0.0,0.0,0.0,-2.322,0.0,0.0,-2.6499,-2.6499,-2.6499,-2.6499,-2.6499,-2.6499,-2.6499,-2.6499,-2.6499,-2.6499,-2.6499,-2.6499,-2.6499,-2.6499,-2.6499,-2.6499,-2.6499,-2.6499,-2.6499,-2.6349,-2.5873,-2.5182,-2.4898,-2.4337,-2.3551,-2.2553,-2.2654,-2.3322,-2.3452,-2.3307,0.0,0.0,0.0,-2.4585,-2.4745,-2.4787,-2.5284,-2.751,0.0,-2.7723,0.0,-2.8096,-2.8597,0.0,0.0,0.0,0.0,0.0,0.0,0.0,0.0,0.0,0.0,0.0,0.0,0.0,0.0,0.0,0.0,0.0,0.0,0.0,0.0,0.0,0.0,0.0,0.0,0.0,0.0,-3.3124,-3.3124,-3.2927,0.0,-3.3124,-3.2939,-3.2939,-3.3124,-3.3124,-3.3124,-3.3081,-3.3232,-3.3294,-3.3294,-3.3294,-3.3571,-3.401,-3.401,-3.401,-3.401,-3.401,-3.3721,-3.3294,-3.3294,-3.3257,-3.3224,0.0,0.0,0.0,0.0,0.0,0.0,0.0,0.0,0.0,0.0,0.0,0.0,0.0,0.0,0.0,-2.1336,-2.1773,-2.2664,-2.4228,-2.5687,-2.6499,-2.6499,-2.6499,-2.6499,-2.6499,-2.6499,-2.6499,-2.6499,-2.6499,-2.6499,-2.6499,-2.6499,-2.6499,-2.6499,-2.6499,-2.6499,-2.6499,-2.6499,-2.6499,-2.6465,-2.5873,-2.5734,-2.5769,-2.5229,-2.5075,-2.5063,-2.4036,-2.4086,-2.4459,-2.3665,-2.3464,-2.3616,-2.3816,0.0,0.0,0.0,-2.5703,-2.6849,-2.7844,-2.8096,-2.8096,0.0,-2.8096,-2.8386,-2.9534,0.0,0.0,0.0,0.0,0.0,0.0,0.0,0.0,0.0,0.0,0.0,0.0,0.0,0.0,0.0,0.0,0.0,0.0,0.0,0.0,0.0,0.0,0.0,0.0,-3.3124,-3.3124,-3.3124,-3.3124,0.0,-3.3124,-3.3124,-3.3124,-3.3124,-3.3124,-3.3124,-3.3124,-3.3124,-3.3124,-3.3124,-3.3124,-3.3219,-3.3432,-3.3432,-3.3432,-3.3432,-3.3432,-3.3294,-3.3124,-3.3124,-3.3124,-3.3124,0.0,0.0,0.0,0.0,0.0,0.0,0.0,0.0,0.0,0.0,0.0,0.0,0.0,0.0,0.0,0.0,-2.2478,-2.3514,-2.5264,-2.6094,-2.6499,-2.6499,-2.6499,-2.6499,-2.6499,-2.6499,-2.6499,-2.6499,-2.6499,-2.6499,-2.6499,-2.6499,-2.6499,-2.6499,-2.6499,-2.6499,-2.6499,-2.6499,-2.6499,-2.6418,-2.5699,-2.5838,-2.6418,-2.5664,-2.5838,-2.6383,-2.537,-2.5265,-2.5394,-2.4142,-2.3859,-2.3981,-2.397,-2.4553,0.0,0.0,0.0,-2.8466,0.0,0.0,-2.8096,-2.8096,-2.8096,-2.8307,0.0,0.0,0.0,0.0,0.0,0.0,0.0,0.0,0.0,0.0,0.0,0.0,0.0,0.0,0.0,0.0,0.0,0.0,0.0,0.0,0.0,0.0,0.0,0.0,-3.3124,-3.3124,-3.3124,-3.3124,-3.3124,-3.3124,-3.3124,-3.3124,-3.3124,-3.3124,-3.3124,-3.3124,-3.3124,-3.3124,-3.3124,-3.3124,-3.3124,-3.3124,-3.3124,-3.3124,-3.3124,-3.3124,-3.3124,-3.3124,-3.3124,-3.3124,-3.3124,-3.3124,0.0,0.0,0.0,0.0,0.0,0.0,0.0,0.0,0.0,0.0,0.0,0.0,-2.0605,-2.1403,-2.1962,-2.1989,-2.3745,-2.53,-2.6349,-2.6452,-2.6499,-2.6499,-2.6499,0.0,-2.6499,-2.6499,-2.6499,-2.6499,-2.6499,-2.6499,-2.6499,-2.6499,-2.6499,-2.6499,-2.6499,-2.6499,-2.6499,-2.6499,-2.6499,-2.6499,-2.6452,-2.6452,-2.6487,-2.6452,-2.6452,-2.6383,-2.537,-2.5265,-2.5542,-2.5057,-2.4505,-2.4262,-2.5832,-2.6348,-2.6595,0.0,0.0,0.0,0.0,-2.8096,0.0,-2.8096,-2.8096,0.0,0.0,0.0,0.0,0.0,0.0,0.0,0.0,0.0,0.0,0.0,0.0,0.0,0.0,0.0,0.0,0.0,0.0,0.0,0.0,0.0,0.0,0.0,0.0,0.0,-3.3124,-3.3124,-3.3124,-3.3124,-3.3124,-3.3124,-3.3124,-3.3124,-3.3124,-3.3124,-3.3124,-3.3124,-3.3124,-3.3124,-3.3124,-3.3124,-3.3124,-3.3124,-3.3124,-3.3124,-3.3124,-3.3124,-3.3124,-3.3124,-3.3124,-3.3124,-3.3124,-3.3124,0.0,0.0,0.0,0.0,0.0,0.0,0.0,0.0,0.0,0.0,0.0,0.0,0.0,-2.0895,-2.1593,-2.285,-2.4803,-2.6129,-2.6499,-2.6499,-2.6499,-2.6499,-2.6499,-2.6499,-2.6499,-2.6499,-2.6499,-2.6499,-2.6499,-2.6499,-2.6499,-2.6499,-2.6499,-2.6499,-2.6499,-2.6499,-2.6499,-2.6499,-2.6499,-2.6499,-2.6499,-2.6499,-2.6499,-2.6499,-2.6499,0.0,0.0,0.0,0.0,-2.4857,-2.4986,-2.5639,-2.5844,-2.665,-2.7735,-2.8858,-2.9495,-2.9702,0.0,0.0,0.0,-2.9028,-2.8119,0.0,0.0,0.0,0.0,0.0,0.0,0.0,0.0,0.0,0.0,0.0,0.0,0.0,0.0,0.0,0.0,0.0,0.0,0.0,0.0,0.0,0.0,0.0,0.0,0.0,-3.2516,-3.288,-3.3124,-3.3124,-3.3124,-3.3124,-3.3124,-3.3124,-3.3124,-3.3124,-3.3124,-3.3124,-3.3124,-3.3124,-3.3124,-3.3124,-3.3124,-3.3124,-3.3124,-3.3124,-3.3124,-3.3124,-3.3124,-3.3124,-3.3124,-3.3124,-3.3124,-3.3124,0.0,0.0,0.0,0.0,0.0,0.0,0.0,0.0,0.0,0.0,0.0,0.0,0.0,0.0,-2.2376,-2.4325,-2.5721,-2.6499,-2.6499,-2.6499,-2.6499,-2.6499,-2.6499,-2.6499,-2.6499,-2.6499,-2.6499,-2.6499,-2.6499,-2.6499,-2.6499,-2.6499,-2.6499,-2.6499,-2.6499,-2.6499,-2.6499,-2.6499,0.0,-2.6499,0.0,-2.6499,-2.6499,-2.6499,0.0,0.0,0.0,0.0,0.0,0.0,0.0,0.0,-2.6191,-2.7312,-2.8806,-2.9573,-2.9792,-2.9792,-2.9792,0.0,0.0,0.0,0.0,0.0,0.0,0.0,0.0,0.0,0.0,0.0,0.0,0.0,0.0,0.0,0.0,0.0,0.0,0.0,0.0,0.0,0.0,0.0,0.0,0.0,0.0,0.0,0.0,0.0,-3.1938,-3.2303,-3.2516,-3.2516,-3.2692,-3.278,-3.278,-3.298,-3.3124,-3.3124,-3.3124,-3.3124,-3.3124,-3.3124,-3.3124,-3.3124,-3.3124,-3.3124,-3.3124,-3.3124,-3.3124,-3.3124,-3.3124,-3.3124,-3.3124,-3.3124,-3.3124,-3.3124,0.0,0.0,0.0,0.0,0.0,0.0,0.0,0.0,0.0,-2.0605,0.0,0.0,0.0,0.0,0.0,-2.6233,-2.6452,-2.6499,-2.6499,-2.6499,-2.6499,-2.6499,-2.6499,-2.6499,-2.6499,-2.6499,-2.6499,-2.6499,-2.6499,-2.6499,-2.6499,-2.6499,-2.6499,-2.6499,-2.6499,-2.6499,-2.6499,0.0,-2.6499,-2.6499,0.0,-2.6499,-2.6499,0.0,0.0,0.0,-2.6499,-2.6499,0.0,-2.5829,0.0,0.0,0.0,0.0,-2.9767,-2.9779,-2.9792,-2.9792,0.0,0.0,0.0,0.0,0.0,0.0,0.0,0.0,0.0,0.0,0.0,0.0,0.0,0.0,0.0,0.0,0.0,0.0,0.0,0.0,0.0,0.0,0.0,0.0,0.0,0.0,0.0,0.0,0.0,-3.1279,-3.132,-3.1373,-3.1386,-3.1386,-3.1901,-3.219,-3.219,-3.2754,-3.3074,-3.3074,-3.3086,-3.3056,-3.3056,-3.3111,-3.3124,-3.3124,-3.3124,-3.3124,-3.3124,-3.3124,-3.3124,-3.3124,-3.3124,-3.3124,-3.3124,-3.3124,-3.3124,-3.3124,0.0,0.0,0.0,0.0,0.0,0.0,0.0,0.0,0.0,0.0,0.0,0.0,-2.0605,-2.2339,-2.3734,-2.4289,-2.5652,-2.6499,-2.6499,-2.6499,-2.6499,-2.6499,-2.6499,-2.6499,-2.6499,-2.6499,-2.6499,-2.6499,-2.6499,-2.6499,-2.6499,0.0,-2.6499,-2.6499,-2.6499,-2.6499,-2.6499,-2.6499,0.0,-2.6499,-2.6499,-2.6499,0.0,0.0,0.0,0.0,0.0,-2.6499,-2.6477,0.0,-2.6507,-2.7013,0.0,0.0,-2.9252,0.0,0.0,0.0,-2.9792,0.0,0.0,0.0,0.0,0.0,0.0,0.0,0.0,0.0,0.0,0.0,0.0,0.0,0.0,0.0,0.0,0.0,0.0,0.0,0.0,0.0,0.0,0.0,0.0,0.0,0.0,0.0,0.0,-2.8762,-2.9559,-3.0741,-3.1386,-3.1386,-3.1537,-3.1625,-3.1625,-3.1775,-3.1851,-3.1863,-3.2252,-3.2453,-3.2466,-3.288,-3.3124,-3.3124,-3.3124,-3.3124,-3.3124,-3.3124,-3.3124,-3.3124,-3.3124,-3.3124,-3.3124,-3.3124,-3.3124,-3.3124,0.0,0.0,0.0,0.0,0.0,0.0,0.0,0.0,0.0,0.0,0.0,0.0,-2.1155,-2.2563,-2.3672,-2.4084,-2.5581,-2.6499,-2.6499,-2.6499,-2.6499,-2.6499,-2.6499,-2.6499,-2.6499,-2.6499,-2.6499,-2.6499,-2.6499,0.0,0.0,0.0,0.0,0.0,0.0,0.0,0.0,0.0,0.0,0.0,-2.6499,0.0,0.0,-2.6499,-2.6499,0.0,0.0,0.0,-2.6499,-2.6499,-2.6864,0.0,0.0,0.0,0.0,0.0,0.0,-2.9428,-2.9428,-2.9616,0.0,0.0,0.0,0.0,0.0,-2.8279,0.0,0.0,0.0,0.0,0.0,0.0,0.0,0.0,0.0,0.0,0.0,0.0,0.0,0.0,0.0,0.0,0.0,0.0,0.0,0.0,-2.7906,-2.8624,-2.9241,-3.0201,-3.0721,-3.0721,-3.0947,-3.1072,-3.1072,-3.1286,-3.1386,-3.1386,-3.1725,-3.1863,-3.1888,-3.2215,-3.2503,-3.2717,-3.2717,-3.2855,-3.3124,-3.3124,-3.3124,-3.3124,-3.3124,-3.3124,-3.3124,-3.3124,-3.3124,-3.3124,0.0,0.0,0.0,0.0,0.0,0.0,0.0,0.0,0.0,0.0,-2.0605,-2.0972,-2.1886,-2.2888,-2.3891,-2.4898,-2.5921,-2.6499,-2.6499,-2.6499,-2.6499,-2.6499,-2.6499,-2.6499,-2.6499,-2.6499,-2.6499,-2.6499,0.0,0.0,0.0,0.0,0.0,0.0,0.0,0.0,0.0,0.0,0.0,-2.6499,-2.6499,-2.6499,0.0,0.0,-2.6418,0.0,-2.6349,-2.6267,-2.6198,-2.6314,-2.6709,0.0,0.0,0.0,0.0,0.0,-2.8448,-2.88,-2.88,-2.9214,-2.9603,0.0,0.0,0.0,-2.714,-2.7399,0.0,0.0,0.0,0.0,0.0,0.0,0.0,0.0,0.0,0.0,0.0,0.0,0.0,0.0,0.0,0.0,0.0,0.0,0.0,-2.7643,-2.874,-2.9507,-2.9585,-2.974,-2.9792,-2.9792,-3.0269,-3.052,-3.052,-3.0984,-3.121,-3.121,-3.1273,-3.1298,-3.1298,-3.1361,-3.1662,-3.2127,-3.2127,-3.2416,-3.2935,-3.2998,-3.3061,-3.3124,-3.3124,-3.3124,-3.3124,-3.3124,-3.3124,-3.3124,0.0,0.0,0.0,0.0,0.0,0.0,0.0,0.0,0.0,-2.0605,-2.0605,-2.0972,-2.1886,-2.2888,-2.3891,-2.4898,-2.5921,-2.6499,-2.6499,-2.6499,-2.6499,-2.6499,-2.6499,-2.6499,-2.6499,-2.6499,-2.6499,-2.6499,0.0,0.0,0.0,0.0,0.0,0.0,0.0,0.0,0.0,0.0,0.0,-2.6499,-2.6499,0.0,-2.6499,-2.6499,-2.599,-2.53,-2.53,-2.4779,-2.4217,0.0,-2.5912,-2.6738,0.0,0.0,0.0,0.0,0.0,0.0,0.0,0.0,0.0,0.0,0.0,0.0,-2.7878,-2.7953,0.0,0.0,0.0,0.0,0.0,0.0,0.0,0.0,0.0,0.0,0.0,0.0,0.0,0.0,0.0,0.0,0.0,0.0,-2.4307,-2.4092,-2.5964,-2.7504,-2.8386,-2.9314,-2.9792,-2.9792,-2.9892,-2.9955,-2.9955,-3.0055,-3.0105,-3.0118,-3.0557,-3.0771,-3.0783,-3.1198,-3.1449,-3.1549,-3.1549,-3.1612,-3.175,-3.2202,-3.2654,-3.3124,-3.3124,-3.3124,-3.3124,-3.3124,-3.3124,-3.3124,0.0,0.0,0.0,0.0,0.0,0.0,0.0,0.0,-2.0605,-2.0605,-2.1011,-2.1479,-2.1962,-2.3331,-2.4456,-2.4969,-2.5921,-2.6499,-2.6499,-2.6499,-2.6499,-2.6499,-2.6499,-2.6499,-2.6499,-2.6499,-2.6499,-2.6499,0.0,0.0,0.0,0.0,0.0,0.0,0.0,0.0,0.0,0.0,-2.6499,-2.6499,-2.6499,0.0,-2.6499,-2.6499,-2.5886,-2.5004,-2.5004,-2.4671,-2.4337,-2.4826,-2.5664,0.0,0.0,-2.6901,-2.6964,0.0,-2.7482,-2.7695,0.0,0.0,0.0,-2.8109,0.0,0.0,0.0,-2.731,0.0,0.0,0.0,0.0,0.0,0.0,0.0,0.0,0.0,0.0,0.0,0.0,0.0,0.0,0.0,0.0,0.0,0.0,-2.5488,-2.5198,-2.6253,-2.7254,-2.8072,-2.9197,-2.9792,-2.9792,-2.9792,-2.9792,-2.9792,-2.9792,-2.9792,-2.9792,-3.0068,-3.0206,-3.0218,-3.047,-3.0746,-3.0997,-3.0997,-3.1148,-3.1411,-3.1687,-3.1976,-3.229,-3.2898,-3.3124,-3.3124,-3.3124,-3.3124,-3.3124,-2.0537,0.0,0.0,0.0,0.0,0.0,0.0,0.0,-2.0673,-2.0857,-2.1517,-2.214,-2.2553,-2.4036,-2.5075,-2.5264,-2.6025,-2.6499,0.0,0.0,0.0,-2.6499,-2.6499,-2.6499,-2.6499,-2.6499,-2.6499,-2.6499,0.0,0.0,0.0,0.0,0.0,0.0,0.0,0.0,0.0,0.0,0.0,-2.6499,0.0,-2.6499,-2.6499,-2.628,-2.5581,-2.4671,-2.4492,-2.4564,-2.4743,-2.4933,0.0,-2.6499,-2.6499,-2.6499,0.0,0.0,0.0,0.0,0.0,0.0,0.0,0.0,0.0,-2.7566,0.0,0.0,0.0,0.0,0.0,0.0,0.0,0.0,0.0,0.0,0.0,0.0,0.0,0.0,0.0,0.0,0.0,0.0,0.0,0.0,-2.7107,-2.685,-2.7052,-2.7436,-2.805,-2.9065,-2.9628,-2.9628,-2.9729,-2.9792,-2.9792,-2.9792,-2.9792,-2.9792,-2.9792,-2.9792,-2.9792,-2.9792,-3.0043,-3.0457,-3.0457,-3.0696,-3.1085,-3.1198,-3.1248,-3.1348,-3.2353,-3.286,-3.2918,-3.2918,-3.298,-3.3124,-2.0595,-2.0605,0.0,0.0,0.0,0.0,0.0,0.0,-2.0895,-2.1735,-2.1924,-2.2664,-2.4445,0.0,0.0,0.0,0.0,0.0,-2.6499,0.0,-2.6499,-2.6499,-2.6499,-2.6499,-2.6499,-2.6499,-2.6499,-2.6499,0.0,0.0,0.0,0.0,0.0,0.0,-2.6499,0.0,0.0,0.0,-2.6499,0.0,-2.6499,-2.6499,0.0,-2.5523,-2.4564,-2.3551,-2.2664,-2.2925,-2.3818,0.0,-2.5664,-2.6499,0.0,-2.6499,-2.6499,0.0,0.0,0.0,0.0,0.0,0.0,0.0,-2.6688,0.0,0.0,0.0,0.0,0.0,0.0,0.0,0.0,0.0,0.0,0.0,0.0,0.0,0.0,0.0,0.0,0.0,0.0,0.0,0.0,0.0,0.0,-2.5189,-2.6073,-2.7033,-2.8051,-2.8675,-2.8988,-2.8988,-2.9528,-2.9792,-2.9792,-2.9792,-2.9792,-2.9792,-2.9792,-2.9792,-2.9792,-2.9792,-2.9829,-2.988,-2.988,-2.9917,-3.0018,-3.0507,-3.0708,-3.0758,-3.1348,-3.1876,-3.2303,-3.2303,-3.2641,-3.3124,-2.0605,-2.0605,0.0,0.0,0.0,0.0,0.0,0.0,-2.0934,-2.1886,-2.2515,-2.3404,0.0,0.0,0.0,0.0,0.0,-2.6499,0.0,0.0,-2.6499,0.0,0.0,0.0,0.0,-2.6499,-2.6499,-2.6499,-2.6499,0.0,0.0,0.0,0.0,0.0,-2.6499,0.0,-2.6499,0.0,0.0,0.0,0.0,0.0,0.0,-2.537,-2.4384,-2.3294,-2.1745,-2.2188,-2.3489,0.0,-2.4337,0.0,0.0,0.0,0.0,0.0,0.0,0.0,0.0,0.0,0.0,0.0,0.0,0.0,0.0,0.0,-2.6499,0.0,0.0,0.0,0.0,0.0,0.0,0.0,0.0,0.0,0.0,0.0,0.0,0.0,0.0,0.0,0.0,0.0,0.0,0.0,0.0,-2.5918,-2.5474,-2.6778,-2.7712,-2.8079,-2.8847,-2.9453,-2.9792,-2.9792,-2.9792,-2.9792,-2.9792,-2.9792,-2.9792,-2.9792,-2.9792,-2.9792,-2.9792,-2.9792,-2.9817,-3.0043,-3.0143,-3.0156,-3.0382,-3.0984,-3.1738,-3.1738,-3.1888,-3.2102,-2.0605,-2.0605,0.0,0.0,0.0,0.0,0.0,0.0,0.0,0.0,0.0,0.0,-2.5252,-2.606,0.0,0.0,-2.6499,-2.6499,0.0,0.0,-2.6499,0.0,0.0,0.0,0.0,0.0,-2.6499,-2.6499,-2.6499,-2.6499,0.0,0.0,0.0,0.0,0.0,-2.6499,-2.6499,0.0,0.0,-2.6499,-2.6499,-2.6164,-2.5604,-2.485,-2.3818,-2.2563,-2.1413,-2.1897,-2.3036,-2.2553,-2.3368,0.0,-2.3745,0.0,0.0,0.0,0.0,0.0,-2.6013,0.0,0.0,0.0,0.0,0.0,0.0,0.0,0.0,0.0,0.0,0.0,0.0,0.0,0.0,0.0,0.0,0.0,0.0,0.0,0.0,0.0,0.0,0.0,0.0,0.0,0.0,0.0,-2.4562,0.0,-2.3563,-2.5085,-2.6302,-2.6997,-2.7824,-2.8686,-2.9553,-2.9553,-2.9641,-2.9792,-2.9792,-2.9792,-2.9792,-2.9792,-2.9792,-2.9792,-2.9792,-2.9792,-2.9792,-2.9792,-2.9792,-2.9792,-2.9792,-3.0269,-3.0972,-3.1122,-3.1273,-3.1386,-2.0605,-2.0605,0.0,0.0,0.0,0.0,0.0,0.0,0.0,0.0,0.0,0.0,0.0,0.0,0.0,0.0,0.0,-2.6499,-2.6499,0.0,-2.6499,0.0,0.0,-2.6499,0.0,0.0,-2.6499,-2.6499,-2.6499,-2.6499,0.0,0.0,0.0,0.0,-2.6499,-2.6499,-2.6499,-2.6499,-2.6499,-2.6499,-2.6499,-2.5311,-2.3588,0.0,-2.2376,-2.0789,-2.1669,0.0,0.0,-2.3147,-2.3478,0.0,0.0,0.0,0.0,0.0,0.0,0.0,0.0,0.0,0.0,-2.6245,0.0,0.0,0.0,0.0,-2.6499,0.0,0.0,0.0,0.0,0.0,-2.6499,-2.6499,0.0,0.0,0.0,0.0,0.0,0.0,0.0,0.0,0.0,0.0,0.0,0.0,-2.4432,0.0,-2.3559,-2.4056,-2.484,-2.5826,-2.64,-2.7392,-2.8913,-2.8913,-2.9239,-2.9792,-2.9792,-2.9792,-2.9792,-2.9792,-2.9792,-2.9792,-2.9792,-2.9792,-2.9792,-2.9792,-2.9792,-2.9792,-2.9792,-2.9817,-2.9905,-3.0444,-3.0959,-3.1386,0.0,-2.0605,0.0,0.0,0.0,0.0,0.0,-2.1116,0.0,0.0,0.0,0.0,0.0,0.0,-2.5769,0.0,0.0,-2.6499,-2.6499,-2.6499,0.0,0.0,0.0,-2.6499,0.0,0.0,-2.6499,-2.6499,-2.6499,-2.6499,-2.6499,-2.6499,0.0,0.0,0.0,-2.6499,0.0,0.0,0.0,0.0,0.0,-2.5687,-2.4409,0.0,0.0,-2.1489,-2.1183,-2.1479,0.0,-2.1669,-2.2,-2.2403,-2.1783,-2.2451,-2.3368,-2.2702,-2.2962,0.0,0.0,0.0,-2.4264,-2.5252,0.0,0.0,0.0,0.0,0.0,0.0,0.0,0.0,0.0,0.0,-2.6499,-2.6499,-2.6499,-2.6499,0.0,0.0,0.0,0.0,0.0,0.0,0.0,0.0,0.0,-2.259,-2.2813,-2.2601,0.0,-2.2336,-2.3118,-2.3863,-2.4676,-2.5803,-2.7368,-2.7782,-2.8381,-2.9227,-2.9616,-2.9792,-2.9792,-2.9792,-2.9792,-2.9792,-2.9792,-2.9792,-2.9792,-2.9792,-2.9792,-2.9792,-2.9792,-2.9792,-2.9817,-2.9993,-3.0181,-3.0331,-2.0605,0.0,0.0,0.0,0.0,0.0,0.0,0.0,0.0,0.0,-2.2553,0.0,-2.4862,0.0,-2.5406,0.0,-2.6499,-2.6499,-2.6499,-2.6499,0.0,-2.6499,-2.6499,0.0,0.0,0.0,0.0,-2.6499,-2.6499,-2.6499,-2.6499,-2.6499,0.0,0.0,0.0,-2.6499,-2.6499,0.0,-2.6499,0.0,0.0,-2.5687,0.0,0.0,-2.2888,0.0,0.0,-2.1011,-2.1413,-2.0779,-2.1001,-2.1413,-2.0789,-2.1451,-2.2339,-2.1707,-2.1962,-2.2526,-2.2888,-2.2962,0.0,0.0,-2.4456,0.0,-2.5734,0.0,0.0,0.0,0.0,0.0,0.0,0.0,-2.6499,-2.6499,-2.6499,-2.6499,0.0,-2.6499,0.0,0.0,0.0,0.0,0.0,0.0,-2.3988,-2.2627,-2.2553,-2.1962,0.0,0.0,-2.2326,-2.3091,-2.4033,-2.5129,-2.6304,-2.7061,-2.7751,-2.8409,-2.9137,-2.9591,-2.9792,-2.9792,-2.9792,-2.9792,-2.9792,-2.9792,-2.9792,-2.9792,-2.9792,-2.9792,-2.9792,-2.9792,-2.9792,-2.9792,-2.9792,-2.9792,0.0,0.0,0.0,0.0,-2.0605,0.0,0.0,0.0,-2.0972,0.0,-2.1952,-2.2739,-2.4636,-2.4898,-2.5335,-2.6349,-2.6452,0.0,-2.6499,-2.6499,0.0,0.0,-2.6499,-2.6499,-2.6499,0.0,0.0,0.0,0.0,-2.6499,-2.6499,-2.6499,0.0,0.0,-2.6499,0.0,-2.6499,-2.6499,-2.6452,-2.6418,-2.6418,-2.5276,-2.3551,-2.3478,0.0,-2.1952,-2.0934,-2.0605,-2.0605,-2.0605,-2.0605,-2.0605,-2.0605,-2.0605,-2.0605,-2.0605,-2.0605,-2.0789,-2.1697,-2.1924,-2.2178,-2.3184,0.0,0.0,0.0,0.0,-2.4933,0.0,0.0,0.0,0.0,0.0,0.0,-2.6499,-2.6499,-2.6499,-2.6499,0.0,0.0,0.0,0.0,0.0,0.0,-2.6418,-2.5569,-2.3624,-2.3441,-2.2601,0.0,0.0,0.0,-2.3331,-2.4337,-2.5123,-2.5694,-2.666,-2.7286,-2.7531,-2.8397,-2.9151,-2.9792,-2.9792,-2.9792,-2.9792,-2.9792,-2.9792,-2.9792,-2.9792,-2.9792,-2.9792,-2.9792,-2.9792,-2.9792,-2.9792,-2.9792,-2.9792,-2.0605,-2.0605,-2.0605,0.0,-2.0605,-2.0605,0.0,0.0,0.0,0.0,-2.1555,-2.2215,-2.2702,-2.3441,-2.4301,-2.53,-2.606,0.0,0.0,0.0,0.0,-2.6499,-2.6499,-2.6499,-2.6499,-2.6499,0.0,-2.6499,0.0,0.0,-2.6499,0.0,0.0,0.0,0.0,0.0,-2.6499,-2.6499,-2.606,-2.537,-2.537,-2.5075,0.0,0.0,-2.2702,-2.2888,-2.1193,-2.0605,-2.0605,-2.0605,-2.0605,-2.0605,-2.0605,-2.0605,-2.0605,-2.0605,-2.0605,-2.0634,-2.0895,-2.0972,-2.1193,-2.2151,-2.2403,-2.2664,0.0,0.0,0.0,0.0,0.0,0.0,0.0,0.0,0.0,-2.6383,-2.6499,-2.6499,0.0,0.0,0.0,0.0,0.0,0.0,0.0,-2.5134,-2.4072,-2.3551,-2.2813,0.0,0.0,0.0,0.0,-2.1346,-2.2264,-2.3202,-2.4073,-2.4745,-2.6049,-2.7928,-2.7896,-2.8539,-2.9792,-2.9792,-2.9792,-2.9792,-2.9792,-2.9792,-2.9792,-2.9792,-2.9792,-2.9792,-2.9792,-2.9792,-2.9792,-2.9792,-2.9792,-2.9792,-2.0605,0.0,0.0,-2.0605,0.0,0.0,-2.0605,0.0,0.0,-2.1221,-2.1298,0.0,-2.2553,-2.2776,-2.3257,-2.4264,-2.485,0.0,0.0,0.0,0.0,-2.5838,-2.5838,-2.5652,-2.5205,-2.6047,0.0,-2.5838,0.0,0.0,-2.6499,0.0,0.0,0.0,0.0,-2.6499,0.0,-2.6499,-2.6164,-2.5629,-2.5194,0.0,0.0,-2.2776,-2.2366,-2.2664,-2.1155,-2.0605,-2.0605,-2.0605,-2.0605,-2.0605,-2.0605,-2.0605,-2.0605,-2.0605,-2.0605,-2.0605,-2.0605,-2.0605,-2.0712,-2.126,-2.1375,-2.1631,-2.2627,-2.285,-2.285,0.0,0.0,0.0,0.0,0.0,0.0,-2.6349,0.0,0.0,0.0,0.0,0.0,0.0,0.0,0.0,0.0,0.0,0.0,0.0,0.0,0.0,0.0,0.0,0.0,0.0,-2.2824,-2.3368,-2.3514,-2.4249,-2.5426,-2.7078,-2.7119,-2.7892,-2.9428,-2.9679,-2.9792,-2.9792,-2.9792,-2.9792,-2.9792,-2.9792,-2.9792,-2.9792,-2.9792,-2.9792,-2.9792,-2.9792,-2.9792,-2.9792,0.0,0.0,0.0,0.0,0.0,0.0,0.0,-2.0605,0.0,-2.1697,0.0,-2.1231,-2.2936,-2.244,-2.2366,-2.322,0.0,-2.3854,-2.4755,-2.4,-2.3891,-2.4755,-2.4791,-2.4373,-2.3514,-2.5205,0.0,0.0,0.0,0.0,0.0,0.0,0.0,0.0,0.0,0.0,0.0,-2.6314,-2.6233,0.0,-2.5004,-2.4671,-2.4564,-2.259,-2.1886,-2.1886,-2.0934,-2.0605,-2.0605,-2.0605,-2.0605,-2.0605,-2.0605,-2.0605,-2.0605,-2.0605,-2.0605,-2.0605,-2.0605,-2.0605,-2.0605,-2.0605,-2.0605,-2.0828,-2.1621,-2.1811,-2.1811,-2.1811,-2.2515,0.0,0.0,0.0,0.0,0.0,0.0,0.0,0.0,0.0,0.0,0.0,0.0,0.0,0.0,0.0,0.0,0.0,0.0,0.0,0.0,0.0,0.0,0.0,-2.4264,0.0,-2.3514,0.0,-2.5146,-2.5778,-2.6239,-2.7241,-2.8749,-2.949,-2.9792,-2.9792,-2.9792,-2.9792,-2.9792,-2.9792,-2.9792,-2.9792,-2.9792,-2.9792,-2.9792,-2.9624,-2.9573,-2.9585,0.0,0.0,0.0,0.0,0.0,-2.0605,-2.0605,-2.0605,-2.0644,-2.0818,-2.0712,0.0,-2.1088,-2.1631,-2.2065,-2.2253,-2.3036,0.0,0.0,0.0,0.0,-2.3745,-2.377,-2.3672,-2.3514,-2.3854,-2.4373,0.0,0.0,0.0,-2.6499,0.0,0.0,0.0,0.0,0.0,-2.5264,-2.5264,0.0,-2.3952,-2.2925,-2.3036,-2.3562,-2.1603,-2.1336,-2.1886,-2.0934,-2.0605,-2.0605,-2.0605,-2.0605,-2.0605,-2.0605,-2.0605,-2.0605,-2.0605,-2.0605,-2.0605,-2.0605,-2.0605,-2.0605,-2.0605,-2.0605,-2.0644,-2.0828,-2.0857,-2.0857,-2.0857,-2.0972,-2.1308,-2.1886,0.0,0.0,0.0,0.0,0.0,0.0,0.0,0.0,0.0,0.0,0.0,0.0,0.0,0.0,0.0,0.0,0.0,0.0,0.0,0.0,0.0,0.0,0.0,0.0,0.0,0.0,-2.579,-2.5573,-2.6248,-2.7784,-2.9169,-2.9792,-2.9792,-2.9792,-2.9792,-2.9792,-2.9792,-2.9792,-2.9792,-2.9792,-2.9792,-2.9702,-2.8727,-2.8386,-2.8518,0.0,0.0,0.0,0.0,0.0,0.0,0.0,-2.0605,0.0,-2.126,-2.0895,-2.0789,-2.126,-2.1298,-2.126,-2.126,-2.1707,-2.2188,-2.2702,-2.2264,-2.2226,-2.2702,-2.2739,0.0,-2.201,-2.2962,-2.3745,-2.4228,0.0,0.0,0.0,0.0,0.0,0.0,0.0,-2.5441,0.0,0.0,0.0,-2.4145,-2.2627,-2.2925,-2.4011,-2.1527,-2.1527,-2.259,-2.1116,-2.0895,-2.126,-2.075,-2.0605,-2.0605,-2.0605,-2.0605,-2.0605,-2.0605,-2.0605,-2.0605,-2.0605,-2.0605,-2.0605,-2.0605,-2.0605,-2.0605,-2.0605,-2.0605,-2.0605,-2.0605,-2.0605,-2.0905,-2.1849,-2.3257,0.0,0.0,0.0,0.0,0.0,0.0,0.0,0.0,0.0,0.0,0.0,0.0,0.0,0.0,0.0,0.0,0.0,0.0,0.0,0.0,0.0,0.0,0.0,0.0,0.0,-2.4611,-2.5205,-2.6068,-2.7083,-2.8633,-2.9503,-2.9792,-2.9792,-2.9792,-2.9753,-2.9145,-2.9287,-2.9675,-2.8542,-2.841,-2.8767,-2.7695,-2.7279,-2.7452,0.0,-2.0605,0.0,0.0,-2.0605,0.0,0.0,-2.0605,-2.0857,-2.1593,-2.1039,-2.0895,-2.1631,-2.1039,-2.0605,-2.0605,-2.0605,-2.0895,-2.1669,-2.1011,-2.0934,-2.1669,-2.1697,-2.1375,-2.0605,-2.2086,-2.2962,0.0,0.0,0.0,0.0,0.0,0.0,0.0,0.0,0.0,0.0,0.0,-2.3745,-2.4528,-2.2739,-2.3073,-2.4409,-2.1859,-2.1707,-2.2664,-2.1155,-2.1078,-2.1593,-2.0857,-2.0605,-2.0605,-2.0605,-2.0605,-2.0605,-2.0605,-2.0605,-2.0605,-2.0605,-2.0605,-2.0644,-2.0857,-2.075,-2.0634,-2.0857,-2.0895,-2.0895,-2.0895,-2.0895,-2.1116,-2.1849,-2.3147,0.0,0.0,0.0,0.0,0.0,0.0,0.0,0.0,0.0,0.0,0.0,0.0,0.0,0.0,0.0,0.0,0.0,0.0,0.0,0.0,0.0,0.0,-2.2328,0.0,-2.3514,0.0,-2.486,-2.5744,-2.6311,-2.7885,-2.8922,-2.9456,-2.9702,-2.9663,-2.9365,-2.8227,-2.8279,-2.8922,-2.718,-2.7005,-2.7643,-2.6543,-2.6141,-2.6254,0.0,0.0,0.0,0.0,0.0,0.0,0.0,-2.0605,-2.0644,-2.0712,-2.0634,-2.0644,-2.0712,-2.0634,-2.0605,-2.0605,-2.0605,-2.0644,-2.0712,-2.0644,-2.0644,-2.0712,-2.0712,-2.0683,-2.0605,-2.0789,-2.1308,0.0,0.0,0.0,0.0,0.0,0.0,0.0,0.0,0.0,0.0,-2.2178,-2.2739,-2.3551,-2.244,-2.2664,-2.3514,-2.2328,-2.1441,-2.0867,-2.0673,-2.0644,-2.0712,-2.0644,-2.0605,-2.0605,-2.0605,-2.0605,-2.0605,-2.0605,-2.0605,-2.0605,-2.0605,-2.0605,-2.0779,-2.1669,-2.1221,-2.0818,-2.1659,-2.1886,-2.1886,-2.1886,-2.1886,-2.1886,-2.1989,-2.1451,-2.1565,0.0,0.0,0.0,0.0,0.0,0.0,0.0,0.0,0.0,0.0,0.0,0.0,0.0,0.0,0.0,0.0,0.0,0.0,0.0,0.0,-2.3441,-2.3368,-2.3441,0.0,-2.3526,-2.4131,-2.4702,-2.521,-2.6853,-2.7855,-2.8307,-2.9365,-2.9197,-2.8176,-2.7087,-2.673,-2.6812,-2.6595,-2.6554,-2.6513,-2.5378,-2.4957,-2.4957,0.0,0.0,0.0,0.0,0.0,0.0,0.0,-2.0605,-2.0605,-2.0605,-2.0605,-2.0605,-2.0605,-2.0605,-2.0605,-2.0605,-2.0605,-2.0605,-2.0605,-2.0605,-2.0605,-2.0605,-2.0605,-2.0605,-2.0605,-2.0605,-2.1039,0.0,0.0,0.0,0.0,0.0,0.0,0.0,0.0,-2.2739,-2.1952,-2.1413,-2.1707,-2.2515,-2.1555,-2.1745,-2.2478,-2.1517,-2.126,-2.1375,-2.0789,-2.0972,-2.1336,-2.0789,-2.0605,-2.0605,-2.0605,-2.0605,-2.0605,-2.0605,-2.0605,-2.0605,-2.0605,-2.0605,-2.0683,-2.1088,-2.0895,-2.0712,-2.1078,-2.1155,-2.1155,-2.1155,-2.1593,-2.1849,-2.126,-2.1821,-2.2188,0.0,0.0,0.0,0.0,0.0,0.0,0.0,0.0,0.0,0.0,0.0,0.0,0.0,0.0,0.0,0.0,0.0,0.0,-2.4409,0.0,-2.259,-2.259,-2.259,-2.259,-2.2627,-2.342,-2.4231,-2.5004,-2.5702,-2.6398,-2.7168,-2.7626,-2.7545,-2.7035,-2.5922,-2.588,-2.6348,-2.4978,-2.4893,-2.5336,-2.4211,-2.38,-2.38,-1.7302,0.0,-1.8598,0.0,-1.9638,-2.0245,-2.0557,-2.0605,-2.0605,-2.0605,-2.0605,-2.0605,-2.0605,-2.0605,-2.0605,-2.0605,-2.0605,-2.0605,-2.0605,-2.0605,-2.0605,-2.0605,-2.0605,0.0,-2.0605,-2.0605,-2.0934,-2.1593,-2.259,0.0,0.0,0.0,0.0,0.0,-2.2328,-2.1849,-2.1555,-2.0895,-2.1155,-2.1952,-2.126,-2.1413,-2.1924,-2.126,-2.126,-2.1479,-2.0828,-2.1049,-2.1489,-2.0818,-2.0605,-2.0605,-2.0605,-2.0605,-2.0605,-2.0605,-2.0605,-2.0605,-2.0605,-2.0605,-2.0673,-2.0934,-2.0779,-2.0673,-2.0934,-2.1011,-2.1011,-2.1011,-2.1555,-2.1697,-2.0789,-2.1718,-2.2376,0.0,0.0,0.0,0.0,0.0,0.0,0.0,0.0,-2.1935,-2.1989,0.0,0.0,0.0,0.0,0.0,0.0,0.0,0.0,0.0,0.0,0.0,0.0,0.0,-2.1989,-2.2027,-2.3036,-2.4041,-2.5004,-2.5649,-2.6291,-2.6964,-2.6648,-2.6307,-2.5922,-2.4755,-2.4755,-2.5347,-2.3724,-2.3594,-2.4211,-2.3387,-2.3091,-2.3091,-1.7302,-1.7293,-1.7658,-1.8798,-1.8997,-1.9362,-2.044,-2.0605,-2.0605,-2.0605,-2.0605,-2.0605,-2.0605,-2.0605,-2.0605,-2.0605,-2.0605,-2.0605,-2.0605,-2.0605,-2.0605,0.0,0.0,-2.0605,-2.0605,-2.0605,-2.0605,-2.0605,0.0,0.0,-2.2065,0.0,0.0,-2.2027,-2.2,-2.1479,-2.0605,-2.0605,-2.1155,-2.1989,-2.1989,-2.1989,-2.1989,-2.1989,-2.1413,-2.0605,-2.0605,-2.0605,-2.0605,-2.0605,-2.0605,-2.0605,-2.0605,-2.0605,-2.0605,-2.0605,-2.0605,-2.0605,-2.0605,-2.0605,-2.0818,-2.1735,-2.1298,-2.0828,-2.1773,-2.1989,-2.1989,-2.1989,-2.1989,-2.1697,-2.0789,-2.0605,-2.127,-2.3158,0.0,0.0,0.0,0.0,0.0,0.0,-2.3745,-2.4192,-2.2178,0.0,0.0,0.0,0.0,0.0,0.0,0.0,0.0,-2.2103,-2.2027,0.0,-2.1989,-2.1989,-2.1989,-2.2027,-2.3036,-2.4041,-2.5066,-2.7123,-2.8084,-2.8004,-2.6964,-2.5839,-2.4745,-2.3594,-2.3135,-2.3135,-2.3091,-2.3091,-2.3135,-2.3101,-2.3091,-2.3091,-1.5103,-1.5711,-1.6314,-1.6675,-1.798,-1.9116,-1.9441,-2.0118,-2.0605,-2.0605,-2.0605,-2.0605,-2.0605,-2.0605,-2.0605,0.0,-2.0605,-2.0605,0.0,-2.0605,-2.0605,-2.0605,-2.0605,-2.0605,-2.0605,-2.0605,-2.0605,-2.0605,0.0,0.0,0.0,-2.2328,-2.1962,-2.1039,-2.1039,-2.0895,-2.0605,-2.0605,-2.0789,-2.1039,-2.1039,-2.1039,-2.1039,-2.1039,-2.0857,-2.0605,-2.0605,-2.0605,-2.0605,-2.0605,-2.0605,-2.0605,-2.0605,-2.0605,-2.0605,-2.0605,-2.0605,-2.0605,-2.0605,-2.0605,-2.0673,-2.0972,-2.0818,-2.0673,-2.0972,-2.1039,-2.1039,-2.1039,-2.1039,-2.1155,-2.1479,-2.1039,-2.1011,-2.2253,0.0,0.0,0.0,0.0,0.0,0.0,0.0,-2.1756,0.0,-2.2188,0.0,0.0,0.0,0.0,0.0,0.0,0.0,0.0,-2.1745,0.0,-2.1989,-2.1375,-2.1375,-2.1989,-2.1669,-2.2009,-2.293,-2.4137,-2.467,-2.467,-2.4349,-2.3973,-2.3594,-2.3256,-2.3091,-2.3091,-2.3091,-2.3091,-2.3091,-2.3091,-2.3091,-2.3091,-1.4088,-1.4657,-1.522,-1.5621,-1.6838,-1.802,-1.8877,-1.9559,-2.0118,-2.0566,-2.0605,-2.0605,-2.0605,-2.0605,0.0,-2.0605,-2.0605,0.0,-2.0605,-2.0605,-2.0605,-2.0605,-2.0605,-2.0605,-2.0605,0.0,0.0,-2.0605,-2.1193,-2.1479,-2.1479,-2.1479,-2.1155,-2.0605,-2.0605,-2.0605,-2.0605,-2.0605,-2.0605,-2.0605,-2.0605,-2.0605,-2.0605,-2.0605,-2.0605,-2.0605,-2.0605,-2.0605,-2.0605,-2.0605,-2.0605,-2.0605,-2.0605,-2.0605,-2.0605,-2.0605,-2.0605,-2.0605,-2.0605,-2.0605,-2.0605,-2.0605,-2.0605,-2.0605,-2.0605,-2.0605,-2.0605,-2.0605,-2.0605,-2.0789,-2.1375,-2.1011,-2.0895,-2.1849,0.0,0.0,0.0,0.0,0.0,0.0,0.0,0.0,0.0,-2.1669,0.0,0.0,0.0,0.0,0.0,0.0,0.0,-2.2414,-2.1231,0.0,-2.1479,-2.0895,-2.0895,-2.1489,-2.1604,-2.2188,-2.3082,-2.399,-2.4135,-2.3757,-2.3757,-2.3507,-2.3091,-2.3091,-2.3091,-2.3091,-2.3091,-2.3091,-2.3091,-2.3091,-2.3091,-2.3091,-1.4088,-1.4088,0.0,0.0,-1.5655,0.0,-1.847,-1.8917,-1.9362,-2.0362,-2.0557,-2.0605,-2.0605,-2.0605,-2.0605,-2.0605,0.0,0.0,0.0,-2.0605,-2.0605,-2.0605,-2.0605,0.0,-2.0605,-2.0605,-2.0605,-2.0605,-2.0605,-2.0605,-2.0605,-2.0605,-2.0605,-2.0605,-2.0605,-2.0605,-2.0605,-2.0605,-2.0605,-2.0605,-2.0605,-2.0605,-2.0605,-2.0605,-2.0605,-2.0605,-2.0605,-2.0605,-2.0605,-2.0605,-2.0605,-2.0605,-2.0605,-2.0605,-2.0605,-2.0605,-2.0605,-2.0605,-2.0605,-2.0605,-2.0605,-2.0605,-2.0605,-2.0605,-2.0605,-2.0605,-2.0605,-2.0605,-2.0605,-2.0605,-2.0683,-2.0644,-2.0895,-2.1849,-2.1221,-2.0895,-2.1773,0.0,0.0,0.0,0.0,0.0,0.0,-2.1886,-2.1555,0.0,0.0,0.0,0.0,0.0,0.0,-2.0644,-2.0605,-2.0605,-2.0605,-2.0673,-2.0712,-2.0722,-2.2587,-2.3931,-2.4842,-2.5821,-2.5683,-2.466,-2.466,-2.4092,-2.3091,-2.3091,-2.3091,-2.3091,-2.3091,-2.3091,-2.3091,-2.3091,-2.3091,-2.3091,0.0,0.0,-1.4166,-1.4454,-1.5179,-1.5861,-1.6388,-1.79,-1.9076,-1.9362,-2.0079,-2.0605,-2.0605,-2.0605,-2.0605,-2.0605,-2.0605,-2.0605,-2.0605,-2.0605,-2.0605,-2.0605,-2.0605,-2.0605,-2.0605,-2.0605,-2.0605,-2.0605,-2.0605,-2.0605,-2.0605,-2.0605,-2.0605,-2.0605,-2.0605,-2.0605,-2.0605,-2.0605,-2.0605,-2.0605,-2.0605,-2.0605,-2.0605,-2.0605,-2.0605,-2.0605,-2.0605,-2.0605,-2.0605,-2.0605,-2.0605,-2.0605,-2.0605,-2.0605,-2.0605,-2.0605,-2.0605,-2.0605,-2.0605,-2.0605,-2.0605,-2.0605,-2.0605,-2.0605,-2.0605,-2.0605,-2.0605,-2.0605,-2.0605,-2.0818,-2.1555,-2.1078,-2.0895,-2.1849,-2.1221,-2.0673,-2.0895,0.0,0.0,0.0,-2.0934,-2.0934,-2.0934,-2.0934,-2.1155,0.0,0.0,0.0,0.0,0.0,-2.1811,-2.0644,-2.0605,-2.0605,-2.0605,-2.1298,-2.1669,-2.1669,-2.2814,-2.3111,-2.2655,-2.3535,-2.3767,-2.3507,-2.3507,-2.3343,-2.3091,-2.3091,-2.3091,-2.3091,-2.3091,-2.3091,-2.3091,-2.3091,-2.3091,-2.3091,-1.4088,-1.4088,-1.4088,-1.4088,-1.4573,-1.5137,-1.5621,-1.6715,-1.7658,-1.8149,-1.8749,-1.9274,-1.9795,-1.9883,-2.0079,-2.0566,-2.0605,-2.0605,-2.0605,-2.0605,-2.0605,-2.0605,-2.0605,-2.0605,-2.0605,-2.0605,-2.0605,-2.0605,-2.0605,-2.0605,-2.0605,-2.0605,-2.0605,-2.0605,-2.0605,-2.0605,-2.0605,-2.0605,-2.0605,-2.0605,-2.0605,-2.0605,-2.0605,-2.0605,-2.0605,-2.0605,-2.0605,-2.0605,-2.0605,-2.0605,-2.0605,-2.0605,-2.0605,-2.0605,-2.0605,-2.0605,-2.0605,-2.0605,-2.0605,-2.0605,-2.0605,-2.0605,-2.0605,-2.0605,-2.0605,-2.0605,-2.0605,-2.0605,-2.0605,-2.075,-2.126,-2.0934,-2.0789,-2.126,-2.0934,-2.0605,-2.0605,-2.0605,0.0,-2.0605,-2.0605,-2.0605,-2.0605,-2.0605,-2.0828,-2.1336,0.0,0.0,-2.1375,-2.1375,-2.1116,-2.0605,-2.0605,-2.0605,-2.0605,-2.1116,-2.1375,-2.1385,-2.225,-2.238,-2.1914,-2.2711,-2.3091,-2.3091,-2.3091,-2.3091,-2.3091,-2.3091,-2.3091,-2.3091,-2.3091,-2.3091,-2.3091,-2.3091,-2.3091,-2.3091,-1.4088,-1.4088,-1.4088,-1.4088,-1.4088,-1.4412,-1.5338,-1.5621,-1.6026,-1.6927,-1.7212,-1.7666,-1.8638,-1.8758,-1.9195,-2.0245,-2.0362,-2.045,-2.0605,-2.0605,-2.0605,-2.0605,-2.0605,-2.0605,-2.0605,-2.0605,-2.0605,-2.0605,-2.0605,-2.0605,-2.0605,-2.0605,-2.0605,-2.0605,-2.0605,-2.0605,-2.0605,-2.0605,-2.0605,-2.0605,-2.0605,-2.0605,-2.0605,-2.0605,-2.0605,-2.0605,-2.0605,-2.0605,-2.0605,-2.0605,-2.0605,-2.0605,-2.0605,-2.0605,-2.0605,-2.0605,-2.0605,-2.0605,-2.0605,-2.0605,-2.0605,-2.0605,-2.0605,-2.0605,-2.0605,-2.0605,-2.0605,-2.0605,-2.0605,-2.0605,-2.0605,-2.0605,-2.0644,-2.0789,-2.0673,-2.0634,-2.0789,0.0,-2.0605,-2.0605,-2.0605,-2.0605,-2.0605,-2.0605,-2.0605,-2.0605,-2.0605,0.0,0.0,-2.0605,-2.0605,-2.0605,-2.0605,-2.0673,-2.0828,-2.0828,-2.0828,-2.0838,-2.1688,-2.204,-2.1914,-2.2711,-2.3091,-2.3091,-2.3091,-2.3091,-2.3091,-2.3091,-2.3091,-2.3091,-2.3091,-2.3091,-2.3091,-2.3091,-2.3091,-2.3091,-1.4088,-1.4088,-1.4088,-1.4088,-1.4088,-1.4166,-1.4328,-1.5137,-1.5779,-1.5944,-1.6723,-1.7383,-1.7536,-1.7545,-1.8029,-1.9155,-1.9244,-1.9638,-2.0527,-2.0605,-2.0605,-2.0605,-2.0605,-2.0605,-2.0605,-2.0605,-2.0605,-2.0605,-2.0605,-2.0605,-2.0605,-2.0605,-2.0605,-2.0605,-2.0605,-2.0605,-2.0605,-2.0605,-2.0605,-2.0605,-2.0605,-2.0605,-2.0605,-2.0605,-2.0605,-2.0605,-2.0605,-2.0605,-2.0605,-2.0605,-2.0605,-2.0605,-2.0605,-2.0605,-2.0605,-2.0605,-2.0605,-2.0605,-2.0605,-2.0605,-2.0605,-2.0605,-2.0605,-2.0605,-2.0605,-2.0605,-2.0605,-2.0605,-2.0605,-2.0605,-2.0605,-2.0605,-2.0857,-2.1669,-2.1116,-2.0895,0.0,0.0,-2.0605,-2.0605,-2.0605,-2.0605,-2.0605,-2.0605,-2.0605,-2.0605,-2.0605,-2.0605,-2.0605,-2.0605,-2.0605,-2.0605,-2.0605,-2.0972,-2.1773,-2.1773,-2.1773,-2.1783,-2.2656,-2.2686,-2.1914,-2.2711,-2.3091,-2.3091,-2.3091,-2.3091,-2.3091,-2.3091,-2.3091,-2.3091,-2.3091,-2.3091,-2.3091,-2.3091,-2.3091,-2.3091,-1.4088,-1.4088,-1.4088,-1.4088,-1.4088,-1.4088,-1.4088,-1.4531,-1.4852,-1.4852,-1.5262,-1.5794,-1.6396,-1.6437,-1.6887,-1.798,-1.8069,-1.855,-1.9687,-2.0284,-2.0605,-2.0605,-2.0605,-2.0605,-2.0605,-2.0605,-2.0605,-2.0605,-2.0605,-2.0605,-2.0605,-2.0605,-2.0605,-2.0605,-2.0605,-2.0605,-2.0605,-2.0605,-2.0605,-2.0605,-2.0605,-2.0605,-2.0605,-2.0605,-2.0605,-2.0605,-2.0605,-2.0605,-2.0605,-2.0605,-2.0605,-2.0605,-2.0605,-2.0605,-2.0605,-2.0605,-2.0605,-2.0605,-2.0605,-2.0605,-2.0605,-2.0605,-2.0605,-2.0605,-2.0605,-2.0605,-2.0605,-2.0605,-2.0605,-2.0605,-2.0605,-2.0605,-2.075,-2.1193,-2.0895,0.0,0.0,-2.0857,-2.0605,-2.0605,-2.0605,-2.0605,-2.0605,-2.0605,-2.0605,-2.0605,-2.0605,-2.0605,-2.0605,-2.0605,-2.0605,-2.0605,-2.0605,-2.0828,-2.1221,-2.127,-2.127,-2.1231,-2.1848,-2.2069,-2.1904,-2.2519,-2.2877,-2.3091,-2.3091,-2.3091,-2.3091,-2.3091,-2.3091,-2.3091,-2.3091,-2.2955,-2.276,-2.276,-2.2656,-2.2461,-1.4088,-1.4088,-1.4088,-1.4088,-1.4088,-1.4088,-1.4088,-1.4088,-1.4088,-1.4088,-1.4088,-1.4412,-1.5255,-1.5338,-1.5745,-1.6846,-1.6927,-1.7415,-1.851,-1.9392,-2.0079,-2.0566,-2.0605,-2.0605,-2.0605,-2.0605,-2.0605,-2.0605,-2.0605,-2.0605,-2.0605,-2.0605,-2.0605,-2.0605,-2.0605,-2.0605,-2.0605,-2.0605,-2.0605,-2.0605,-2.0605,-2.0605,-2.0605,-2.0605,-2.0605,-2.0605,-2.0605,-2.0605,-2.0605,-2.0605,-2.0605,-2.0605,-2.0605,-2.0605,-2.0605,-2.0605,-2.0605,-2.0605,-2.0605,-2.0605,-2.0605,-2.0605,-2.0605,-2.0605,-2.0605,-2.0605,-2.0605,-2.0605,-2.0605,-2.0605,-2.0605,-2.0605,-2.0673,-2.0895,0.0,0.0,0.0,-2.075,-2.0605,-2.0605,-2.0605,-2.0605,-2.0605,-2.0605,-2.0605,-2.0605,-2.0605,-2.0605,-2.0605,-2.0605,-2.0605,-2.0605,-2.0605,-2.0605,-2.0605,-2.0605,-2.0605,-2.0605,-2.1025,-2.1375,-2.1758,-2.2275,-2.2685,-2.2955,-2.3052,-2.3091,-2.3091,-2.2984,-2.2945,-2.2945,-2.2847,-2.2646,-2.2363,-2.2363,-2.2168,-2.1885,-1.4088,-1.4088,-1.4088,-1.4088,-1.4088,-1.4088,-1.4088,-1.4088,-1.4088,-1.4088,-1.4088,-1.4124,-1.4208,-1.4208,-1.4657,-1.5737,-1.582,-1.6273,-1.7334,-1.7496,-1.847,-2.0518,-2.0605,-2.0605,-2.0605,-2.0605,-2.0605,-2.0605,-2.0605,-2.0605,-2.0605,-2.0605,-2.0605,-2.0605,-2.0605,-2.0605,-2.0605,-2.0605,-2.0605,-2.0605,-2.0605,-2.0605,-2.0605,-2.0605,-2.0605,-2.0605,-2.0605,-2.0605,-2.0605,-2.0605,-2.0605,-2.0605,-2.0605,-2.0605,-2.0605,-2.0605,-2.0605,-2.0605,-2.0605,-2.0605,-2.0605,-2.0605,-2.0605,-2.0605,-2.0605,-2.0605,-2.0605,-2.0605,-2.0605,-2.0605,-2.0605,-2.0605,-2.0895,-2.1773,0.0,0.0,-2.1773,-2.1155,-2.0605,-2.0605,-2.0605,-2.0605,-2.0605,-2.0605,-2.0605,-2.0605,-2.0605,-2.0605,-2.0605,-2.0605,-2.0605,-2.0605,-2.0605,-2.0605,-2.0605,-2.0605,-2.0605,-2.0605,-2.1025,-2.121,-2.1268,-2.2139,-2.2529,-2.2578,-2.2925,-2.3091,-2.3062,-2.2715,-2.2559,-2.2519,-2.2129,-2.1963,-2.1934,-2.1934,-2.1914,-2.1885,-1.4088,-1.4088,-1.4088,-1.4088,-1.4088,-1.4088,-1.4088,-1.4088,-1.4088,-1.4088,-1.4088,-1.4088,-1.4088,-1.4088,-1.425,-1.465,-1.4692,-1.547,-1.7172,-1.7302,-1.798,-1.952,-2.0245,-2.0605,-2.0605,-2.0605,-2.0605,-2.0605,-2.0605,-2.0605,-2.0605,-2.0605,-2.0605,-2.0605,-2.0605,-2.0605,-2.0605,-2.0605,-2.0605,-2.0605,-2.0605,-2.0605,-2.0605,-2.0605,-2.0605,-2.0605,-2.0605,-2.0605,-2.0605,-2.0605,-2.0605,-2.0605,-2.0605,-2.0605,-2.0605,-2.0605,-2.0605,-2.0605,-2.0605,-2.0605,-2.0605,-2.0605,-2.0605,-2.0605,-2.0605,-2.0605,-2.0605,-2.0605,-2.0605,-2.0605,-2.0605,-2.0605,-2.0712,-2.1078,0.0,-2.0712,-2.1078,-2.0818,-2.0605,-2.0605,-2.0605,-2.0605,-2.0605,-2.0605,-2.0605,-2.0605,-2.0605,-2.0605,-2.0605,-2.0605,-2.0605,-2.0605,-2.0605,-2.0605,-2.0605,-2.0605,-2.0605,-2.0605,-2.0732,-2.0967,-2.121,-2.1531,-2.1865,-2.2129,-2.2295,-2.2363,-2.2344,-2.2187,-2.2129,-2.2109,-2.1953,-2.1719,-2.1484,-2.1484,-2.1309,-2.1104,-1.4088,-1.4088,-1.4088,-1.4088,-1.4088,-1.4088,-1.4088,-1.4088,-1.4088,-1.4088,-1.4088,-1.4088,-1.4088,-1.4088,-1.4088,-1.4088,-1.4088,-1.4699,-1.6206,-1.6935,-1.7948,-1.9441,-2.0206,-2.0605,-2.0605,-2.0605,-2.0605,-2.0605,-2.0605,-2.0605,-2.0605,-2.0605,-2.0605,-2.0605,-2.0605,-2.0605,-2.0605,-2.0605,-2.0605,-2.0605,-2.0605,-2.0605,-2.0605,-2.0605,-2.0605,-2.0605,-2.0605,-2.0605,-2.0605,-2.0605,-2.0605,-2.0605,-2.0605,-2.0605,-2.0605,-2.0605,-2.0605,-2.0605,-2.0605,-2.0605,-2.0605,-2.0605,-2.0605,-2.0605,-2.0605,-2.0605,-2.0605,-2.0605,-2.0605,-2.0605,-2.0605,-2.0605,-2.0605,-2.0605,-2.0605,-2.0605,-2.0605,-2.0605,-2.0605,-2.0605,-2.0605,-2.0605,-2.0605,-2.0605,-2.0605,-2.0605,-2.0605,-2.0605,-2.0605,-2.0605,-2.0605,-2.0605,-2.0605,-2.0605,-2.0605,-2.0605,-2.0605,-2.0605,-2.0605,-2.0723,-2.1025,-2.1132,-2.1356,-2.1689,-2.1826,-2.1885,-2.1875,-2.1738,-2.168,-2.167,-2.1523,-2.1289,-2.1025,-2.1025,-2.083,-2.0605,-1.4088,-1.4088,-1.4088,-1.4088,-1.4088,-1.4088,-1.4088,-1.4088,-1.4088,-1.4088,-1.4088,-1.4088,-1.4088,-1.4088,-1.4088,-1.4088,-1.4088,-1.4088,-1.413,-1.6124,-1.827,-2.0479,-2.0605,-2.0605,-2.0605,-2.0605,-2.0605,-2.0605,-2.0605,-2.0605,-2.0605,-2.0605,-2.0605,-2.0605,-2.0605,-2.0605,-2.0605,-2.0605,-2.0605,-2.0605,-2.0605,-2.0605,-2.0605,-2.0605,-2.0605,-2.0605,-2.0605,-2.0605,-2.0605,-2.0605,-2.0605,-2.0605,-2.0605,-2.0605,-2.0605,-2.0605,-2.0605,-2.0605,-2.0605,-2.0605,-2.0605,-2.0605,-2.0605,-2.0605,-2.0605,-2.0605,-2.0605,-2.0605,-2.0605,-2.0605,-2.0605,-2.0605,-2.0605,-2.0605,-2.0605,-2.0605,-2.0605,-2.0605,-2.0605,-2.0605,-2.0605,-2.0605,-2.0605,-2.0605,-2.0605,-2.0605,-2.0605,-2.0605,-2.0605,-2.0605,-2.0605,-2.0605,-2.0605,-2.0605,-2.0605,-2.0605,-2.0605,-2.0605,-2.0605,-2.0605,-2.0615,-2.1025,-2.119,-2.121,-2.1689,-2.1875,-2.1846,-2.1406,-2.119,-2.1142,-2.0781,-2.0605,-2.0605,-2.0605,-2.0605,-2.0605,-1.4088,-1.4088,-1.4088,-1.4088,-1.4088,-1.4088,-1.4088,-1.4088,-1.4088,-1.4088,-1.4088,-1.4088,-1.4088,-1.4088,-1.4088,-1.4088,-1.4088,-1.4412,-1.5179,-1.6527,-1.7577,-1.827,-1.9756,-2.0605,-2.0605,-2.0605,-2.0605,-2.0605,-2.0605,-2.0605,-2.0605,-2.0605,-2.0605,-2.0605,-2.0605,-2.0605,-2.0605,-2.0605,-2.0605,-2.0605,-2.0605,-2.0605,-2.0605,-2.0605,-2.0605,-2.0605,-2.0605,-2.0605,-2.0605,-2.0605,-2.0605,-2.0605,-2.0605,-2.0605,-2.0605,-2.0605,-2.0605,-2.0605,-2.0605,-2.0605,-2.0605,-2.0605,-2.0605,-2.0605,-2.0605,-2.0605,-2.0605,-2.0605,-2.0605,-2.0605,-2.0605,-2.0605,-2.0605,-2.0605,-2.0605,-2.0605,-2.0605,-2.0605,-2.0605,-2.0605,-2.0605,-2.0605,-2.0605,-2.0605,-2.0605,-2.0605,-2.0605,-2.0605,-2.0605,-2.0605,-2.0605,-2.0605,-2.0605,-2.0605,-2.0605,-2.0605,-2.0605,-2.0605,-2.0605,-2.0605,-2.0605,-2.0703,-2.0762,-2.0771,-2.0938,-2.0997,-2.0987,-2.086,-2.0762,-2.0752,-2.0654,-2.0605,-2.0605,-2.0605,-2.0605,-2.0605,-1.4088,-1.4088,-1.4088,-1.4088,-1.4088,-1.4088,-1.4088,-1.4088,-1.4088,-1.4088,-1.4088,-1.4088,-1.4088,-1.4088,-1.4088,-1.4088,-1.4088,-1.437,-1.5019,-1.6075,-1.6683,-1.6683,-1.8341,-1.9511,-1.9962,-2.0362,-2.0605,-2.0605,-2.0605,-2.0605,-2.0605,-2.0605,-2.0605,-2.0605,-2.0605,-2.0605,-2.0605,-2.0605,-2.0605,-2.0605,-2.0605,-2.0605,-2.0605,-2.0605,-2.0605,-2.0605,-2.0605,-2.0605,-2.0605,-2.0605,-2.0605,-2.0605,-2.0605,-2.0605,-2.0605,-2.0605,-2.0605,-2.0605,-2.0605,-2.0605,-2.0605,-2.0605,-2.0605,-2.0605,-2.0605,-2.0605,-2.0605,-2.0605,-2.0605,-2.0605,-2.0605,-2.0605,-2.0605,-2.0605,-2.0605,-2.0605,-2.0605,-2.0605,-2.0605,-2.0605,-2.0605,-2.0605,-2.0605,-2.0605,-2.0605,-2.0605,-2.0605,-2.0605,-2.0605,-2.0605,-2.0605,-2.0605,-2.0605,-2.0605,-2.0605,-2.0605,-2.0605,-2.0605,-2.0605,-2.0605,-2.0605,-2.0605,-2.0605,-2.0605,-2.0605,-2.0605,-2.0605,-2.0605,-2.0605,-2.0605,-2.0605,-2.0605,-2.0605,-2.0605,-2.0605,-2.0605,-1.4088,-1.4088,-1.4088,-1.4088,-1.4088,-1.4088,-1.4088,-1.4088,-1.4088,-1.4088,-1.4088,-1.4088,-1.4088,-1.4088,-1.4088,-1.4088,-1.4088,-1.4088,-1.4088,-1.5012,-1.5579,-1.5579,-1.656,-1.7658,-1.8669,-1.9844,-2.044,-2.044,-2.0557,-2.0605,-2.0605,-2.0605,-2.0605,-2.0605,-2.0605,-2.0605,-2.0605,-2.0605,-2.0605,-2.0605,-2.0605,-2.0605,-2.0605,-2.0605,-2.0605,-2.0605,-2.0605,-2.0605,-2.0605,-2.0605,-2.0605,-2.0605,-2.0605,-2.0605,-2.0605,-2.0605,-2.0605,-2.0605,-2.0605,-2.0605,-2.0605,-2.0605,-2.0605,-2.0605,-2.0605,-2.0605,-2.0605,-2.0605,-2.0605,-2.0605,-2.0605,-2.0605,-2.0605,-2.0605,-2.0605,-2.0605,-2.0605,-2.0605,-2.0605,-2.0605,-2.0605,-2.0605,-2.0605,-2.0605,-2.0605,-2.0605,-2.0605,-2.0605,-2.0605,-2.0605,-2.0605,-2.0605,-2.0605,-2.0605,-2.0605,-2.0605,-2.0605,-2.0605,-2.0605,-2.0605,-2.0605,-2.0605,-2.0605,-2.0605,-2.0605,-2.0605,-2.0605,-2.0605,-2.0605,-2.0605,-2.0605,-2.0605,-2.0605,-2.0605,-2.0605,-2.0605,-1.4088,-1.4088,-1.4088,-1.4088,-1.4088,-1.4088,-1.4088,-1.4088,-1.4088,-1.4088,-1.4088,-1.4088,-1.4088,-1.4088,-1.4088,-1.4088,-1.4088,-1.4088,-1.4088,-1.4328,-1.4454,-1.4454,-1.5462,-1.615,-1.6396,-1.8341,-1.9362,-1.9362,-2.0206,-2.0605,-2.0605,-2.0605,-2.0605,-2.0605,-2.0605,-2.0605,-2.0605,-2.0605,-2.0605,-2.0605,-2.0605,-2.0605,-2.0605,-2.0605,-2.0605,-2.0605,-2.0605,-2.0605,-2.0605,-2.0605,-2.0605,-2.0605,-2.0605,-2.0605,-2.0605,-2.0605,-2.0605,-2.0605,-2.0605,-2.0605,-2.0605,-2.0605,-2.0605,-2.0605,-2.0605,-2.0605,-2.0605,-2.0605,-2.0605,-2.0605,-2.0605,-2.0605,-2.0605,-2.0605,-2.0605,-2.0605,-2.0605,-2.0605,-2.0605,-2.0605,-2.0605,-2.0605,-2.0605,-2.0605,-2.0605,-2.0605,-2.0605,-2.0605,-2.0605,-2.0605,-2.0605,-2.0605,-2.0605,-2.0605,-2.0605,-2.0605,-2.0605,-2.0605,-2.0605,-2.0605,-2.0605,-2.0605,-2.0605,-2.0605,-2.0605,-2.0605,-2.0605,-2.0605,-2.0605,-2.0605,-2.0605,-2.0605,-2.0605,-2.0605,-2.0605,-2.0605,-1.3118,-1.3245,-1.3421,-1.3997,-1.4088,-1.4088,-1.4088,-1.4088,-1.4088,-1.4088,-1.4088,-1.4088,-1.4088,-1.4088,-1.4088,-1.4088,-1.4088,-1.4088,-1.4088,-1.4088,-1.4088,-1.4088,-1.4657,-1.4936,-1.4936,-1.656,-1.7698,-1.8189,-1.9313,-1.9844,-1.9844,-2.0362,-2.0605,-2.0605,-2.0605,-2.0605,-2.0605,-2.0605,-2.0605,-2.0605,-2.0605,-2.0605,-2.0605,-2.0605,-2.0605,-2.0605,-2.0605,-2.0605,-2.0605,-2.0605,-2.0605,-2.0605,-2.0605,-2.0605,-2.0605,-2.0605,-2.0605,-2.0605,-2.0605,-2.0605,-2.0605,-2.0605,-2.0605,-2.0605,-2.0605,-2.0605,-2.0605,-2.0605,-2.0605,-2.0605,-2.0605,-2.0605,-2.0605,-2.0605,-2.0605,-2.0605,-2.0605,-2.0605,-2.0605,-2.0605,-2.0605,-2.0605,-2.0605,-2.0605,-2.0605,-2.0605,-2.0605,-2.0605,-2.0605,-2.0605,-2.0605,-2.0605,-2.0605,-2.0605,-2.0605,-2.0605,-2.0605,-2.0605,-2.0605,-2.0605,-2.0605,-2.0605,-2.0605,-2.0605,-2.0605,-2.0605,-2.0605,-2.0605,-2.0605,-2.0605,-2.0605,-2.0605,-2.0605,-2.0605,-2.0605,-2.0605,-1.1809,-1.2029,-1.2334,-1.3343,-1.3652,-1.3779,-1.3779,-1.3955,-1.4088,-1.4088,-1.4088,-1.4088,-1.4088,-1.4088,-1.4088,-1.4088,-1.4088,-1.4088,-1.4088,-1.4088,-1.4088,-1.4088,-1.4088,-1.4088,-1.4088,-1.4977,-1.5951,-1.7009,-1.8149,-1.8798,-1.9036,-1.9923,-2.0401,-2.0605,-2.0605,-2.0605,-2.0605,-2.0605,-2.0605,-2.0605,-2.0605,-2.0605,-2.0605,-2.0605,-2.0605,-2.0605,-2.0605,-2.0605,-2.0605,-2.0605,-2.0605,-2.0605,-2.0605,-2.0605,-2.0605,-2.0605,-2.0605,-2.0605,-2.0605,-2.0605,-2.0605,-2.0605,-2.0605,-2.0605,-2.0605,-2.0605,-2.0605,-2.0605,-2.0605,-2.0605,-2.0605,-2.0605,-2.0605,-2.0605,-2.0605,-2.0605,-2.0605,-2.0605,-2.0605,-2.0605,-2.0605,-2.0605,-2.0605,-2.0605,-2.0605,-2.0605,-2.0605,-2.0605,-2.0605,-2.0605,-2.0605,-2.0605,-2.0605,-2.0605,-2.0605,-2.0605,-2.0605,-2.0605,-2.0605,-2.0605,-2.0605,-2.0605,-2.0605,-2.0605,-2.0605,-2.0605,-2.0605,-2.0605,-2.0605,-2.0605,-2.0605,-2.0605,-2.0605,-2.0605,-2.0605,-2.0605,-1.0783,-1.0826,-1.0869,-1.1042,-1.1901,-1.2547,-1.2547,-1.3428,-1.4088,-1.4088,-1.4088,-1.4088,-1.4088,-1.4088,-1.4088,-1.4088,-1.4088,-1.4088,-1.4088,-1.4088,-1.4088,-1.4088,-1.4088,-1.4088,-1.4088,-1.425,-1.4852,-1.5902,-1.7009,-1.802,-1.8997,-1.9164,-1.9717,-2.0605,-2.0605,-2.0605,-2.0605,-2.0605,-2.0605,-2.0605,-2.0605,-2.0605,-2.0605,-2.0605,-2.0605,-2.0605,-2.0605,-2.0605,-2.0605,-2.0605,-2.0605,-2.0605,-2.0605,-2.0605,-2.0605,-2.0605,-2.0605,-2.0605,-2.0605,-2.0605,-2.0605,-2.0605,-2.0605,-2.0605,-2.0605,-2.0605,-2.0605,-2.0605,-2.0605,-2.0605,-2.0605,-2.0605,-2.0605,-2.0605,-2.0605,-2.0605,-2.0605,-2.0605,-2.0605,-2.0605,-2.0605,-2.0605,-2.0605,-2.0605,-2.0605,-2.0605,-2.0605,-2.0605,-2.0605,-2.0605,-2.0605,-2.0605,-2.0605,-2.0605,-2.0605,-2.0605,-2.0605,-2.0605,-2.0605,-2.0605,-2.0605,-2.0605,-2.0605,-2.0605,-2.0605,-2.0605,-2.0605,-2.0605,-2.0605,-2.0605,-2.0605,-2.0605,-2.0605,-2.0605,-2.0605,-2.0605,-0.9536,-0.9666,-0.9836,-1.0481,-1.1042,-1.1558,-1.22,-1.2766,-1.3336,-1.3997,-1.4088,-1.4088,-1.4088,-1.4088,-1.4088,-1.4088,-1.4088,-1.4088,-1.4088,-1.4088,-1.4088,-1.4088,-1.4088,-1.4088,-1.4088,-1.4088,-1.4328,-1.4817,-1.5869,-1.6683,-1.7163,-1.7779,-1.831,-1.8749,-1.8749,-1.9116,-1.9726,-1.9726,-1.9726,-1.9726,-1.9726,-1.9313,-1.8749,-1.8749,-1.8749,-1.8829,-1.9481,-2.0079,-2.0605,-2.0605,-2.0605,-2.0605,-2.0605,-2.0605,-2.0605,-2.0605,-2.0605,-2.0605,-2.0605,-2.0605,-2.0605,-2.0605,-2.0605,-2.0605,-2.0605,-2.0605,-2.0605,-2.0605,-2.0605,-2.0605,-2.0605,-2.0605,-2.0605,-2.0605,-2.0605,-2.0605,-2.0605,-2.0605,-2.0605,-2.0605,-2.0605,-2.0605,-2.0605,-2.0605,-2.0605,-2.0605,-2.004,-1.9726,-1.9726,-1.9107,-1.8749,-1.8749,-1.8749,-1.9067,-1.9678,-1.9726,-1.9726,-1.9726,-1.9726,-2.0001,-2.0605,-2.0605,-2.0605,-2.0605,-2.0605,-2.0605,-2.0605,-2.0605,-2.0605,-2.0605,-2.0605,-2.0605,-2.0605,-2.0605,-2.0605,-2.0605]}]]